GFSMW_700_spd_000.txt.gz
Wind_Speed
22 24 24 24 23 24 27 29 27 19 15 14 16 16 15 15 15 15 18 19 19 20 21 24 26 29 30 27 24 26 26 29 28 28 26 25 27 27 27 26 27 28 28
30 29 26 24 22 22 24 22 18 15 14 15 16 15 13 13 14 15 16 16 18 20 23 26 28 28 27 26 26 26 26 29 32 33 32 31 28 29 29 29 31 32 33
29 25 23 23 20 20 18 17 15 15 15 15 14 13 13 13 12 13 14 15 19 22 24 26 26 25 25 26 27 27 28 29 32 36 38 40 40 40 35 35 36 39 40
32 30 26 21 20 20 20 18 18 17 15 14 12 12 10 9 10 12 15 18 22 23 23 23 23 23 24 26 28 30 31 32 33 34 35 38 42 46 52 41 40 43 46
37 33 28 22 21 22 22 20 18 16 15 13 12 9 7 8 10 13 17 20 21 21 22 22 24 26 28 30 32 34 35 36 36 37 37 38 39 43 49 57 54 50 49
39 37 32 27 24 24 23 21 19 17 15 13 11 8 7 9 11 14 17 19 20 22 23 25 27 30 32 33 35 36 37 37 38 39 40 42 44 46 50 55 59 62 62
39 38 35 29 27 25 25 22 20 16 15 13 10 8 8 10 13 16 19 21 24 26 28 30 31 33 35 37 39 39 39 38 38 39 41 42 45 48 51 56 61 65 65
41 40 35 29 28 27 26 24 20 18 15 12 9 9 11 13 16 20 22 25 28 30 32 34 35 37 39 41 41 40 39 39 40 41 43 46 47 50 52 56 61 68 67
42 39 36 30 30 30 28 25 21 19 16 13 10 10 13 16 19 23 26 28 31 33 36 37 38 40 43 44 43 42 41 40 42 43 46 48 50 52 52 53 55 59 67
41 39 35 29 33 32 29 25 22 18 16 13 12 13 15 18 22 25 28 31 34 37 39 40 41 43 45 45 44 42 41 42 44 46 48 50 52 53 53 53 54 54 57
31 33 30 28 34 34 30 26 22 17 15 15 14 15 18 21 25 28 31 34 37 39 41 41 43 45 46 45 44 43 44 46 47 49 51 51 53 54 53 52 53 54 55
24 27 27 30 37 35 31 26 21 19 17 16 17 18 21 25 28 31 34 36 39 41 42 43 45 46 46 44 44 45 46 49 50 51 53 53 54 52 51 52 54 55 55
22 25 26 31 36 34 30 26 23 20 20 19 20 22 24 28 31 34 36 39 41 42 42 44 46 45 44 44 44 47 49 51 52 53 53 53 53 54 55 55 56 56 54
20 22 26 32 35 32 29 26 25 24 23 23 23 25 28 31 34 36 38 41 42 41 43 45 44 43 43 45 47 50 51 52 52 52 52 53 56 57 58 57 56 54 52
19 19 24 28 31 31 29 27 28 27 26 26 26 28 31 33 35 37 40 42 41 42 44 43 42 42 44 47 50 52 54 53 52 52 54 56 59 58 56 54 53 50 48
15 16 17 21 26 26 26 27 28 29 29 28 29 31 33 34 37 40 40 40 41 42 41 41 42 43 45 48 50 52 53 52 53 56 58 58 57 56 54 51 47 42 39
12 12 12 13 17 22 24 26 28 29 29 29 30 32 34 36 38 38 39 40 41 40 39 40 42 44 47 49 51 51 52 53 55 58 59 57 55 52 50 47 44 39 36
12 14 13 14 17 21 24 25 25 26 27 29 31 33 35 36 36 37 38 39 39 38 39 40 43 46 48 50 50 52 53 55 57 57 55 52 50 48 47 43 37 39 42
7 12 16 17 18 18 20 22 23 24 26 29 31 33 34 35 36 36 37 38 37 37 39 42 45 48 48 49 51 53 54 57 57 54 50 48 47 44 39 34 40 44 46
12 14 16 17 18 19 19 19 21 24 27 29 31 32 33 33 34 35 35 36 37 38 41 43 45 46 47 50 51 54 56 57 54 50 48 45 41 37 31 37 44 45 42
15 16 17 17 16 16 18 20 22 25 27 28 29 30 31 32 33 33 34 35 36 39 41 43 43 45 47 49 51 54 54 52 50 48 46 41 36 35 39 39 39 38 37
14 14 14 14 15 16 18 21 23 24 25 26 28 29 31 31 31 32 32 35 39 41 42 43 44 45 46 49 52 51 49 46 47 47 42 37 37 38 38 36 34 32 34
13 13 13 13 15 18 20 20 20 22 24 26 27 28 29 29 30 32 34 36 39 41 42 44 46 46 48 50 50 48 45 45 44 41 37 36 37 37 34 31 30 31 30
11 12 13 15 16 16 16 18 20 23 24 26 26 26 27 29 31 34 36 38 40 41 43 45 46 48 50 50 49 46 45 44 41 38 36 36 35 32 29 27 27 23 24
11 13 14 14 14 15 17 20 22 23 23 24 25 26 28 29 31 33 36 37 38 42 45 47 48 51 51 48 45 43 43 40 38 37 36 34 30 26 25 22 20 21 23
12 12 10 11 14 17 19 21 21 22 23 24 26 27 28 30 32 33 32 35 39 40 42 45 48 48 46 43 40 40 37 36 35 35 34 30 27 26 24 22 20 22 23

GFSMW_700_spd_003.txt.gz
Wind_Speed
27 27 28 26 23 23 24 25 27 28 27 24 21 18 19 20 18 16 15 17 18 19 20 21 25 27 28 26 25 25 26 27 26 25 25 28 29 29 29 28 29 30 31
29 25 26 22 22 23 25 27 27 23 20 20 20 20 20 17 15 15 16 16 16 19 21 24 26 26 25 25 25 26 27 29 30 31 33 32 30 31 33 32 32 33 34
29 30 27 24 24 24 25 24 21 18 19 21 21 19 16 14 15 14 13 14 17 20 23 24 24 24 24 24 24 26 28 31 34 36 38 40 41 41 36 35 35 37 37
27 32 28 22 19 20 21 19 18 19 20 20 18 16 15 13 12 10 12 15 19 21 22 23 23 23 23 24 26 28 31 34 36 37 38 39 43 46 50 41 38 40 42
31 29 27 23 23 20 18 19 20 21 20 18 17 16 13 10 9 10 13 16 19 20 22 23 24 24 25 27 30 33 35 37 39 40 40 39 40 43 49 53 47 44 46
36 31 31 27 26 23 19 23 23 22 20 19 16 15 11 9 8 10 14 16 19 22 24 25 27 28 29 31 33 36 39 40 40 40 40 42 44 45 49 54 56 59 59
43 36 37 29 29 26 21 25 24 22 21 18 16 13 10 8 9 12 15 18 22 25 27 29 31 32 33 34 37 40 42 41 41 40 40 41 44 47 50 55 59 64 65
40 37 34 30 30 27 23 26 26 24 21 18 16 13 10 10 11 14 17 21 25 28 30 33 35 36 37 38 40 43 44 42 42 42 42 44 47 50 53 57 62 67 68
35 35 31 31 30 27 24 27 26 24 20 18 15 12 11 11 13 16 20 24 28 31 33 36 38 39 40 42 43 44 44 43 43 43 44 47 50 53 55 55 56 60 70
31 36 34 32 30 28 26 30 28 22 20 18 15 13 12 13 16 19 23 27 30 34 36 39 41 42 42 44 46 45 44 44 43 46 48 51 54 56 55 55 55 57 60
29 33 35 32 30 28 31 32 28 25 22 18 15 14 14 16 19 22 26 29 33 36 38 41 43 42 43 45 45 45 45 45 47 49 53 55 57 57 56 57 57 59 61
21 21 30 30 30 29 34 31 27 25 21 18 17 16 17 19 22 25 28 32 36 39 41 43 43 44 45 45 46 46 45 48 51 54 56 56 57 58 58 58 60 63 63
20 24 28 28 28 30 34 31 27 24 21 19 18 19 21 23 26 28 32 36 39 41 43 43 43 45 44 45 45 46 48 50 53 55 56 58 59 59 60 63 64 64 63
17 22 25 26 26 29 32 30 27 24 22 22 22 23 25 27 29 32 35 39 41 42 43 43 44 45 45 45 46 48 50 53 54 55 57 58 59 61 63 64 63 60 57
19 21 22 24 26 29 31 29 27 26 25 26 26 27 28 30 32 35 38 41 41 42 42 43 44 44 44 45 48 51 53 54 55 57 57 57 60 61 60 58 56 54 52
20 19 20 20 24 28 29 29 28 28 28 30 30 30 31 32 35 38 40 41 41 42 43 44 44 42 44 46 49 52 53 55 56 56 57 59 59 58 55 53 51 47 41
17 15 13 15 18 22 25 26 28 30 31 32 31 31 32 34 37 39 40 39 41 41 42 42 42 43 46 48 51 52 54 54 54 56 58 59 56 54 54 50 46 43 43
16 15 14 15 16 19 23 27 29 28 27 27 28 29 32 35 38 38 38 39 40 41 40 40 42 44 47 49 50 52 53 52 54 56 57 55 52 51 48 43 43 42 43
14 14 14 16 17 19 21 22 21 22 23 25 27 30 33 35 36 37 38 39 39 39 38 41 43 45 46 49 51 52 51 53 55 56 53 50 50 45 41 42 45 44 40
17 16 17 17 18 17 17 17 19 20 22 24 28 31 33 34 34 36 37 38 37 38 39 40 43 45 48 49 50 50 53 56 57 54 50 47 42 39 39 42 42 40 37
16 18 17 16 16 16 17 18 18 20 24 27 29 30 30 32 34 35 35 35 36 37 39 41 43 45 48 48 48 51 54 55 54 50 47 43 40 40 40 38 36 35 36
15 16 16 15 15 15 14 16 19 23 24 25 26 28 30 32 32 32 33 35 37 38 41 43 43 44 46 47 49 52 53 51 48 46 43 40 40 40 38 34 33 33 32
13 14 13 13 12 14 16 19 20 21 22 24 27 29 30 31 31 31 32 33 37 40 42 45 46 47 46 48 50 51 50 47 44 42 40 39 39 37 32 30 31 30 28
11 11 11 12 13 15 17 17 18 20 23 26 27 28 28 29 30 31 34 36 39 41 43 46 48 48 48 50 51 52 48 43 42 41 39 38 37 32 30 29 26 25 26
9 9 10 12 14 14 14 16 19 22 24 25 25 25 26 27 30 32 35 37 40 43 47 48 49 51 52 52 51 47 43 41 39 39 37 36 31 28 26 22 22 23 23
8 10 11 11 11 12 15 18 20 21 22 22 23 25 27 29 31 33 34 38 41 42 44 46 49 50 51 48 44 40 38 37 37 36 36 32 29 28 24 23 20 21 23

GFSMW_700_spd_006.txt.gz
Wind_Speed
39 32 29 26 30 29 28 26 22 22 24 25 27 26 25 24 22 21 19 16 15 17 17 18 22 25 26 25 24 24 23 23 23 23 24 26 28 30 30 30 29 30 32
35 32 28 26 24 25 25 24 23 22 22 23 24 24 23 22 21 18 15 14 13 14 17 20 24 25 25 24 24 24 24 25 25 27 29 30 29 30 31 31 33 33 34
38 35 32 25 22 23 20 20 22 22 22 23 24 22 21 20 17 15 13 11 11 15 19 21 23 24 25 25 25 25 25 27 29 32 35 38 40 42 37 33 32 35 36
34 35 33 29 24 21 18 17 21 21 21 22 21 19 16 15 15 13 10 9 12 16 19 21 22 24 26 26 26 27 28 31 33 35 38 40 44 46 49 44 38 37 38
33 32 29 28 27 22 20 18 19 19 20 19 18 16 16 17 15 11 9 9 13 16 19 22 25 27 28 29 29 30 32 34 37 39 41 41 41 42 46 49 44 40 41
35 31 29 26 29 26 21 17 18 19 20 19 18 17 16 15 12 9 8 10 14 17 20 24 28 30 31 32 32 33 35 37 39 42 43 44 44 44 46 50 51 54 53
36 37 34 29 29 24 21 18 17 21 21 19 18 17 17 16 12 10 10 13 16 19 23 27 30 32 34 35 35 36 38 40 41 42 42 43 43 45 47 51 55 59 61
31 38 37 33 31 24 23 20 18 23 21 20 19 18 18 16 13 11 13 15 18 22 25 29 33 35 37 38 38 38 40 42 43 44 44 43 44 46 49 53 58 63 64
31 30 36 38 30 28 23 21 20 24 24 21 19 19 18 15 13 14 15 18 21 24 28 32 36 38 39 41 40 41 43 43 44 45 44 45 47 49 52 54 55 59 69
30 31 29 37 30 26 25 24 24 26 24 22 21 20 18 17 15 16 18 20 23 27 31 35 38 40 42 43 42 43 45 45 44 44 45 47 50 52 53 54 55 56 60
28 26 25 31 29 28 27 26 26 28 26 24 23 20 18 17 18 19 21 23 26 30 34 38 41 43 45 45 45 46 45 44 44 45 47 50 52 53 55 56 57 60 63
29 27 29 30 31 29 29 28 28 29 27 25 23 21 20 19 20 22 24 26 30 34 38 40 43 45 45 45 46 45 44 44 45 48 50 51 53 55 56 59 61 63 64
20 23 28 32 34 30 30 28 29 29 27 25 23 21 21 22 23 25 26 29 34 37 40 42 45 45 45 46 46 45 44 45 48 50 52 54 55 56 58 61 62 62 61
20 23 25 28 27 27 27 27 29 28 26 25 23 23 23 24 26 27 29 34 37 40 42 45 45 45 45 46 45 44 45 47 49 50 52 53 55 58 60 61 60 58 57
17 19 19 22 23 24 24 27 28 27 26 25 25 24 26 27 28 30 34 37 39 42 44 44 45 45 45 44 44 46 48 49 50 51 52 54 57 59 59 57 55 54 51
17 17 18 18 19 20 20 25 27 26 26 26 26 27 28 29 31 35 36 38 40 43 43 44 44 44 43 43 44 47 49 49 51 53 53 55 57 57 56 53 50 46 43
15 15 14 14 15 17 19 23 25 25 25 27 28 28 29 32 34 35 36 38 41 42 42 43 43 42 43 43 45 47 49 51 52 53 54 56 56 55 52 48 44 42 41
15 14 12 13 15 16 19 22 24 26 27 27 27 28 30 31 32 33 36 39 40 40 41 41 41 41 43 44 46 48 50 52 52 53 55 56 54 49 48 45 43 43 41
15 13 11 11 13 16 18 21 23 23 23 24 26 27 27 28 31 34 36 37 38 40 39 40 40 42 42 45 47 49 51 51 52 54 53 53 49 45 44 42 45 43 37
18 17 15 15 16 15 16 16 18 19 21 22 22 23 26 30 32 34 35 36 38 38 37 37 40 42 44 46 48 51 53 54 56 56 52 47 43 42 41 43 43 39 35
17 20 19 16 15 15 15 15 16 17 18 19 22 25 28 30 31 33 35 36 35 36 37 39 40 42 45 47 49 51 52 54 56 53 46 41 41 40 40 39 36 35 34
14 15 16 15 14 14 13 14 14 15 18 21 24 25 27 29 31 32 33 34 35 36 37 39 39 42 45 48 50 52 53 54 51 45 41 39 40 38 37 33 33 31 28
12 14 14 13 13 13 12 13 15 18 20 21 22 25 27 29 29 30 31 33 35 37 39 41 43 45 47 48 51 52 52 48 43 40 38 38 37 35 31 30 30 29 30
12 12 11 11 11 12 13 14 16 17 18 21 23 25 26 27 28 29 30 33 35 37 40 44 47 49 50 52 53 51 47 43 40 39 38 36 34 31 30 27 25 27 27
10 10 10 10 11 12 13 14 15 17 20 22 23 24 25 25 27 29 31 33 37 41 45 47 49 52 53 53 51 47 43 40 39 38 35 33 30 28 25 22 23 24 25
8 8 9 10 10 10 10 13 16 19 20 21 22 22 23 25 27 29 31 35 38 40 43 46 49 52 50 46 44 41 38 37 36 34 32 30 29 26 25 24 22 23 26

GFSMW_700_spd_009.txt.gz
Wind_Speed
41 43 43 42 38 32 28 28 27 28 29 30 29 27 25 26 26 25 22 21 18 16 16 15 16 19 21 21 22 22 21 21 21 19 21 22 23 25 25 27 30 30 31
43 39 40 42 37 30 29 27 29 29 27 25 24 24 25 26 25 22 21 19 16 15 14 14 16 19 20 21 22 23 24 24 23 24 25 25 25 26 27 29 30 32 33
41 40 39 37 39 31 28 26 27 26 26 23 26 25 25 26 23 20 18 16 15 13 13 13 16 18 21 23 25 25 26 26 26 27 28 31 32 33 31 31 31 31 31
39 38 39 38 38 30 26 25 25 24 24 23 26 27 23 21 17 17 17 16 13 11 12 13 16 20 23 26 28 28 28 28 28 28 30 33 36 39 42 40 40 40 37
36 35 37 38 37 33 28 26 23 22 22 24 25 25 20 19 18 18 18 15 12 11 11 14 18 21 25 28 30 30 30 30 30 31 33 35 37 40 43 45 42 40 38
26 28 33 36 39 36 31 27 23 21 22 22 22 21 19 18 17 18 16 13 12 11 13 16 19 23 26 29 31 32 33 33 33 35 37 39 41 42 45 48 47 47 47
22 25 34 37 39 36 33 28 23 20 20 21 22 20 19 18 19 19 16 14 13 13 16 18 21 25 29 32 34 35 36 35 36 38 39 41 42 42 43 45 48 52 53
23 24 33 37 35 32 33 28 23 19 20 23 22 21 20 21 22 19 16 14 14 16 18 21 24 28 31 34 37 38 38 38 39 40 41 42 43 43 45 48 52 55 57
25 23 30 39 37 33 31 25 24 22 21 24 24 23 22 23 22 18 16 16 16 18 20 23 27 31 34 37 39 40 40 41 41 42 43 43 43 44 47 49 51 55 63
29 27 26 31 38 34 32 27 24 24 24 26 25 23 23 23 21 18 17 17 19 20 23 27 31 34 37 40 42 42 42 42 43 44 43 43 45 46 48 50 52 53 56
29 29 27 28 38 37 33 31 27 26 25 27 25 25 25 24 21 19 19 20 21 23 27 30 34 37 40 43 43 44 43 43 43 43 44 45 46 47 49 50 51 53 55
25 29 29 27 33 39 36 32 28 27 27 27 27 27 26 23 21 20 21 22 24 27 30 34 37 40 43 44 45 44 44 44 43 43 44 45 47 48 49 50 51 54 55
23 30 30 30 35 38 34 31 29 28 28 29 28 27 25 22 21 21 23 24 27 30 34 37 40 42 44 45 46 45 44 43 44 45 46 47 49 50 50 51 53 55 57
22 30 30 35 31 33 31 30 30 29 28 29 28 27 24 22 22 23 25 27 30 34 37 39 41 43 44 44 44 45 43 43 43 45 47 49 50 50 52 54 55 56 56
19 27 30 34 34 32 32 30 28 28 29 30 28 26 24 23 24 25 27 30 34 37 39 40 42 43 43 43 43 44 44 44 44 46 48 50 50 51 53 55 54 53 51
20 24 25 28 31 30 27 27 26 28 29 28 27 25 24 25 25 27 30 34 36 37 39 40 42 42 42 42 42 43 44 45 47 49 49 50 50 52 53 52 50 47 44
24 27 27 25 23 21 20 21 24 26 26 25 24 24 24 25 27 30 33 34 35 37 39 41 40 41 41 41 42 43 45 46 48 49 50 52 53 53 52 48 44 43 39
25 25 24 22 21 19 20 21 22 23 23 23 23 23 24 26 29 31 32 33 34 37 38 39 39 39 40 40 42 44 46 48 49 50 51 53 53 50 47 44 42 40 37
23 22 21 19 18 18 19 20 21 21 21 21 21 22 25 27 28 29 30 33 35 35 37 37 38 38 39 41 43 45 47 49 51 52 51 52 49 44 41 41 41 39 34
25 22 21 19 17 16 15 15 16 16 17 18 20 22 23 24 26 28 31 32 33 34 34 35 36 38 40 42 44 47 50 52 54 54 50 44 41 38 37 38 38 36 32
21 22 18 14 13 13 12 12 12 13 14 16 19 20 21 24 26 28 29 31 32 33 33 34 36 38 42 43 45 47 51 54 53 49 43 38 37 36 35 35 33 33 30
11 14 15 14 12 11 10 10 11 13 15 16 17 20 22 24 25 28 29 29 30 31 32 34 35 38 41 44 47 50 51 49 46 42 37 36 36 34 33 31 30 28 27
8 11 13 10 9 9 10 11 13 13 14 16 19 20 21 24 25 26 27 28 30 31 34 36 38 39 41 45 48 48 44 43 41 38 36 35 33 32 29 28 27 27 28
9 9 11 10 9 9 10 10 12 14 16 17 18 20 22 22 23 24 26 28 31 34 36 38 41 43 46 48 47 44 42 40 39 38 35 33 31 30 27 24 25 26 26
9 10 9 9 9 9 10 12 13 14 15 17 18 19 19 21 22 24 26 30 33 36 39 41 45 48 48 45 44 43 42 41 39 37 34 30 27 24 22 22 22 24 27
9 8 7 9 9 10 11 11 12 14 15 16 16 17 19 20 23 25 29 32 34 37 40 43 46 46 44 42 42 41 39 37 35 33 30 27 25 24 23 24 24 25 25

GFSMW_700_spd_012.txt.gz
Wind_Speed
42 48 50 48 48 46 42 39 36 33 31 31 32 33 33 31 33 31 27 26 23 21 19 16 16 14 17 17 18 20 20 21 21 21 22 22 23 23 24 25 28 29 30
42 44 45 48 49 47 44 41 38 34 31 29 32 33 31 30 30 30 27 25 23 19 17 15 14 14 14 16 19 22 23 23 23 23 22 23 24 24 25 27 29 32 33
42 40 44 46 46 48 45 41 34 33 32 31 33 32 31 30 30 29 27 23 21 18 16 14 13 12 14 17 20 22 24 24 24 25 26 28 29 29 28 29 31 33 33
40 39 39 45 47 43 45 42 34 33 34 33 32 30 29 27 29 25 23 23 21 18 16 14 12 12 15 18 20 23 24 25 26 26 26 28 30 33 36 36 38 39 37
29 28 36 39 45 42 41 40 35 33 33 32 30 29 30 30 29 25 23 23 21 18 16 13 12 14 17 19 22 24 27 28 29 28 29 30 33 35 39 40 40 42 42
27 29 28 37 41 46 42 39 36 34 32 30 29 29 31 29 28 25 24 23 20 19 16 13 14 16 19 21 24 27 30 32 33 33 33 34 36 38 42 46 45 45 43
22 27 29 34 40 46 44 41 37 35 31 27 27 28 29 24 25 22 21 20 20 18 16 15 16 18 21 24 28 31 33 35 36 37 37 37 39 41 43 46 46 47 46
21 26 29 30 39 43 44 41 37 35 29 27 26 27 27 28 23 23 22 23 21 18 17 17 18 21 24 28 31 34 37 39 39 40 40 40 42 43 43 44 47 49 50
23 22 28 27 38 41 42 39 38 34 30 26 26 28 27 29 25 25 26 24 21 19 19 19 21 24 27 31 35 37 40 42 42 42 42 43 44 43 44 45 47 51 57
20 29 30 27 37 39 39 39 37 34 30 26 27 29 28 27 27 27 24 22 21 20 20 21 24 28 31 35 38 40 43 44 44 43 44 45 44 44 45 47 49 52 56
21 23 31 29 36 42 40 35 36 34 30 27 28 29 33 28 28 27 25 24 22 22 22 24 27 31 35 38 41 43 45 45 44 46 45 45 45 45 47 49 52 54 56
24 22 33 30 33 42 40 36 35 32 28 26 28 31 28 28 27 26 25 24 23 23 25 27 31 35 38 41 42 45 46 45 45 45 45 45 45 47 49 51 53 54 55
24 23 34 33 34 40 42 38 35 31 27 26 29 30 29 28 28 27 25 24 24 25 27 30 35 38 41 43 44 46 45 45 45 45 44 45 47 49 51 52 53 54 56
19 25 35 36 36 38 42 39 35 30 28 26 29 28 28 28 28 26 25 25 26 27 29 35 38 40 42 43 46 46 46 45 44 43 45 47 49 50 52 52 54 55 56
20 26 35 36 35 34 38 38 34 30 28 28 29 28 28 28 26 24 25 27 27 28 34 37 39 40 42 44 45 46 45 44 43 45 46 49 50 51 52 53 53 53 50
18 26 34 33 32 31 34 34 30 28 29 30 27 26 27 27 25 25 26 27 29 33 35 37 39 40 43 44 44 44 43 43 45 46 48 49 51 52 52 51 48 45 43
22 31 35 33 32 30 30 30 28 28 29 28 23 26 26 24 24 24 27 28 32 34 35 36 39 41 42 42 42 41 42 44 46 48 49 51 52 52 49 46 43 40 39
23 27 29 29 28 26 26 24 25 25 24 24 24 23 23 22 23 25 27 31 32 33 35 37 39 40 40 39 40 41 43 45 47 48 49 50 48 46 44 43 41 40 39
29 30 31 29 27 25 23 23 22 22 21 21 20 20 20 21 23 26 29 29 30 33 35 37 38 38 38 38 40 43 45 46 48 48 45 44 45 44 41 40 40 40 36
23 24 25 24 22 22 20 19 18 18 17 17 17 17 19 22 25 25 26 28 31 33 35 36 36 36 37 39 41 43 45 48 47 46 45 44 42 39 37 38 38 37 33
26 24 22 20 18 17 17 17 16 15 14 15 16 18 19 20 22 24 27 28 30 32 33 34 34 37 38 40 42 44 45 45 45 45 43 40 39 37 36 35 34 34 32
16 19 19 19 18 17 15 14 14 13 13 14 15 16 17 20 23 24 26 29 30 31 31 32 35 37 39 41 42 43 42 42 43 42 39 37 36 35 33 32 30 29 29
17 18 18 16 16 16 15 13 11 11 11 12 14 17 18 20 22 25 27 27 28 30 32 33 35 36 39 40 41 39 39 40 40 38 35 34 33 31 29 28 27 28 29
18 19 18 16 13 12 11 9 9 9 12 14 14 16 19 22 23 24 25 27 29 31 33 35 37 38 39 41 40 39 40 40 38 35 33 30 29 28 26 25 26 28 29
17 17 16 13 11 8 8 9 10 11 12 13 15 18 20 21 22 23 25 28 30 32 35 37 39 41 42 41 41 40 39 39 36 33 31 29 26 24 23 24 26 27 27
15 15 13 11 9 9 8 8 9 10 12 15 17 18 19 20 22 24 27 29 31 34 37 39 41 42 41 41 40 38 36 35 33 30 29 26 24 23 24 24 23 24 24

GFSMW_700_spd_015.txt.gz
Wind_Speed
34 32 38 47 44 47 51 49 48 42 40 38 35 33 34 34 34 35 34 33 30 28 26 24 21 19 17 17 16 17 18 20 22 23 24 24 24 25 25 26 27 29 30
36 38 39 43 49 52 54 51 49 47 44 42 36 33 32 31 35 34 33 32 30 29 26 22 19 18 16 15 15 16 17 19 22 23 24 24 27 24 26 28 29 30 32
36 38 39 42 44 48 52 53 53 49 47 44 40 34 33 34 34 34 31 31 30 29 24 20 18 17 15 13 14 15 18 21 22 24 26 27 27 27 28 29 30 32 34
28 32 40 41 40 46 51 51 53 51 48 44 40 36 33 31 32 31 29 31 29 27 23 20 19 17 14 14 14 16 19 22 25 26 27 28 30 32 32 33 34 36 37
19 27 33 36 42 41 48 48 50 50 49 42 38 34 34 36 35 31 31 30 28 21 27 22 20 17 15 15 16 19 21 24 27 29 31 32 33 35 36 35 36 40 41
20 28 34 33 37 44 45 48 47 48 49 41 38 35 38 37 34 32 31 29 26 31 24 22 20 17 16 17 19 22 25 27 30 32 34 35 36 37 39 42 42 43 42
20 20 23 34 37 42 48 45 46 46 45 40 38 37 37 33 31 32 31 28 26 28 25 22 20 18 18 19 22 25 28 31 34 37 39 39 39 39 41 45 46 46 43
17 24 26 29 36 38 48 43 46 45 41 38 36 36 31 33 33 31 28 25 24 24 25 24 21 20 20 22 25 29 32 35 38 40 42 42 41 42 44 45 47 48 46
20 20 26 27 33 36 40 42 45 43 41 38 38 33 31 33 32 30 27 28 26 26 26 23 22 21 22 25 29 32 36 39 41 43 45 44 44 44 44 44 45 48 52
17 22 26 21 29 33 34 40 44 43 42 39 35 32 31 32 29 28 27 28 27 27 25 23 22 23 25 28 32 36 39 42 44 46 47 45 46 45 45 45 46 48 52
23 27 28 24 27 28 32 40 43 45 44 38 34 31 28 30 29 29 28 27 27 26 25 24 25 26 28 32 35 40 43 44 45 48 47 46 46 45 45 46 48 51 53
31 34 26 25 27 28 31 41 43 43 41 36 32 28 25 35 30 31 28 27 28 27 25 26 27 28 32 34 39 43 45 45 47 47 47 46 46 45 47 49 51 53 55
24 24 27 24 27 28 33 41 41 37 35 34 30 27 29 29 31 28 27 28 27 26 27 27 29 32 33 38 42 44 44 46 47 46 46 45 46 47 49 51 53 54 56
29 30 28 24 27 28 34 42 37 32 31 31 28 28 25 32 32 27 28 28 27 27 27 27 32 35 39 41 43 43 44 45 45 45 45 45 47 49 50 52 54 55 55
21 21 24 23 27 30 34 38 35 32 31 27 27 28 31 30 31 30 30 27 26 26 27 30 34 39 42 41 42 44 44 45 45 44 45 47 49 50 51 52 52 52 52
24 27 24 23 29 29 29 36 33 30 30 32 28 35 31 32 27 25 23 25 27 27 28 33 36 42 40 40 42 43 43 43 44 44 45 47 49 51 51 51 50 48 47
20 23 22 26 28 28 26 33 33 32 31 33 27 31 24 23 21 22 24 27 26 27 31 35 40 38 39 40 41 41 42 42 44 45 47 48 48 48 48 48 46 43 41
15 21 24 27 28 27 27 28 30 32 28 28 29 17 20 20 21 19 25 25 26 30 34 36 35 37 39 39 40 40 41 42 45 47 48 47 46 45 45 44 43 42 40
14 20 25 25 26 27 26 22 25 36 27 26 17 18 19 17 22 21 21 24 29 32 32 33 35 37 38 37 39 40 42 44 46 46 45 45 44 43 42 42 41 39 37
22 24 26 29 27 25 25 18 17 8 7 9 11 17 18 16 16 20 24 27 28 29 32 33 35 35 36 37 38 41 43 45 46 44 43 42 43 43 40 39 38 36 33
26 25 24 21 21 21 16 12 11 10 11 13 11 11 12 16 19 22 23 25 28 30 32 33 33 33 35 38 40 43 44 45 45 43 42 41 41 38 36 35 33 32 31
18 19 17 17 17 16 15 14 12 11 8 8 10 13 15 17 19 22 24 26 28 30 30 30 32 35 37 40 41 43 44 43 43 42 41 40 37 34 32 31 30 29 29
14 16 15 13 14 14 13 11 9 8 9 11 13 14 15 18 20 22 25 26 27 27 28 31 33 36 38 41 43 42 41 41 41 41 40 36 34 32 29 28 27 28 29
13 12 12 12 11 11 11 11 11 12 11 11 12 14 16 18 21 23 23 23 25 28 30 33 35 37 39 41 42 41 41 41 40 39 35 32 30 28 26 25 25 27 28
14 14 12 13 12 10 9 10 9 9 10 11 13 15 17 19 19 20 21 24 26 30 32 35 38 40 41 41 41 42 41 40 39 36 32 29 26 23 22 23 25 26 27
15 15 14 12 10 9 9 8 9 10 11 12 14 15 16 17 19 21 23 26 29 32 35 38 40 41 42 42 42 40 38 37 34 31 29 26 23 22 22 23 22 24 24

GFSMW_700_spd_018.txt.gz
Wind_Speed
27 31 32 35 42 46 47 39 43 46 43 42 38 36 33 32 33 33 32 32 31 30 30 28 26 27 23 21 20 18 17 17 17 18 20 19 21 22 23 25 27 29 29
30 30 33 36 36 39 47 47 47 50 49 47 43 38 37 36 33 31 28 32 32 32 31 29 27 25 23 21 18 17 15 15 16 17 19 21 22 22 23 26 28 29 31
25 25 32 36 39 37 39 50 55 54 55 48 49 45 40 39 33 31 31 33 30 30 30 29 27 24 22 20 18 16 14 14 17 19 21 25 26 27 27 28 29 31 32
22 23 29 34 39 40 38 42 51 55 55 53 52 48 44 40 34 29 29 30 30 29 30 28 25 21 21 20 18 16 15 16 18 20 24 26 29 31 30 31 32 33 34
22 22 22 27 34 41 41 40 43 49 50 54 51 48 46 42 34 30 30 31 29 29 31 28 24 23 21 20 18 17 17 19 21 24 27 30 32 35 36 34 33 34 36
22 23 29 32 33 34 44 43 41 45 48 49 47 49 47 42 33 32 34 33 31 31 31 28 25 23 22 21 19 18 19 21 24 27 31 34 36 39 42 42 39 40 38
22 27 33 36 39 37 35 45 46 46 46 48 47 45 45 38 33 34 33 32 31 33 30 25 31 25 24 22 21 21 22 24 27 31 34 37 39 41 44 44 44 44 42
29 28 33 37 30 36 37 35 52 49 46 45 46 44 45 36 34 34 32 31 34 33 27 27 27 26 25 24 23 23 25 27 30 34 38 40 42 43 45 45 47 49 46
23 28 33 38 25 25 32 34 46 53 47 45 45 45 41 36 34 34 33 34 34 31 24 29 29 27 26 25 25 25 27 31 34 39 42 43 44 46 45 45 46 48 50
25 35 34 34 19 21 26 31 33 41 46 45 46 41 36 34 33 33 34 30 32 27 29 26 28 28 27 26 26 28 30 34 39 42 44 45 46 46 46 46 44 44 48
26 32 35 35 27 26 23 31 30 34 43 47 45 37 35 34 34 32 33 30 29 30 27 27 28 28 27 27 28 31 34 38 43 46 46 46 47 46 45 43 44 45 48
22 24 29 28 26 26 23 28 30 35 43 41 39 37 36 35 33 32 29 29 28 26 28 29 29 27 27 29 30 33 37 43 46 47 47 47 47 46 44 44 46 48 50
22 26 26 26 21 24 20 25 27 38 40 36 37 36 35 35 28 28 33 26 27 28 29 29 28 27 28 30 32 37 42 47 46 47 47 47 46 44 44 46 48 50 51
20 28 31 33 20 23 20 23 36 35 35 32 34 33 33 29 28 34 34 31 28 28 28 27 27 27 29 33 37 40 45 45 46 46 46 45 44 45 47 49 49 50 50
25 26 31 34 17 18 23 29 31 30 27 30 32 33 33 33 33 31 25 26 26 24 25 26 25 28 34 36 39 43 43 44 45 45 43 43 45 47 49 50 50 51 52
32 32 28 26 16 15 23 25 26 28 27 30 33 33 30 41 30 34 30 21 21 23 24 25 33 32 35 38 41 41 42 43 43 41 42 44 46 47 47 47 48 49 49
20 24 24 19 15 16 24 23 25 27 27 28 30 31 37 26 41 20 26 18 22 21 29 30 31 34 37 39 38 39 41 40 41 42 44 45 46 46 46 48 48 46 42
16 19 24 15 14 19 22 23 27 27 26 25 26 33 28 27 15 14 12 15 25 26 24 29 33 36 36 35 37 38 38 39 41 43 45 46 46 46 47 48 46 41 37
7 11 9 12 18 22 23 20 22 24 24 24 28 28 26 12 10 15 16 17 19 23 28 31 31 32 33 33 35 36 39 41 42 43 44 45 46 47 46 45 42 37 33
5 5 10 14 17 18 19 22 23 23 25 22 15 4 4 5 8 10 13 19 23 25 26 27 29 31 32 33 35 38 40 42 44 43 43 43 44 43 41 40 39 35 31
20 17 15 18 16 23 22 19 17 17 9 9 10 5 5 5 8 15 17 18 21 23 25 27 28 29 31 34 37 39 41 44 44 44 43 40 40 39 37 35 33 31 29
18 17 13 15 17 15 14 11 11 9 9 9 8 3 3 9 11 12 16 19 21 24 25 26 28 31 34 36 39 41 42 44 45 44 41 40 38 35 32 30 28 27 28
12 13 13 14 14 14 16 11 8 7 7 3 2 4 6 8 12 15 18 20 21 23 25 27 29 32 35 38 40 41 42 43 43 41 39 37 34 31 27 25 26 26 28
8 8 9 9 10 11 10 10 6 4 2 3 5 7 10 12 14 17 18 19 21 24 26 28 31 34 37 39 41 42 42 42 40 38 34 32 29 26 25 23 24 25 26
5 4 6 5 5 5 6 2 3 4 5 8 10 11 12 15 16 17 18 20 23 25 27 31 34 36 38 41 43 43 42 41 39 36 32 28 24 20 20 21 23 23 25
6 5 5 4 3 3 2 5 6 6 8 9 10 13 14 14 16 17 20 22 24 28 31 34 37 39 42 43 43 41 39 38 35 31 29 24 21 19 19 19 20 22 24

GFSMW_700_spd_021.txt.gz
Wind_Speed
24 28 27 28 30 37 45 43 38 40 41 42 38 35 34 32 31 30 29 27 26 29 29 29 28 25 27 27 25 24 21 18 17 15 14 15 16 18 20 21 22 23 25
26 29 33 34 33 33 39 46 45 43 43 46 43 40 37 36 33 31 28 28 28 29 30 29 28 26 26 25 24 23 20 18 16 14 14 15 16 18 20 23 24 26 27
23 23 26 32 37 38 37 39 48 49 46 45 48 47 43 42 39 36 31 29 30 31 28 27 26 26 24 24 24 22 20 18 16 15 16 18 20 22 23 25 27 29 30
20 20 21 27 33 39 42 41 43 51 53 50 52 52 51 45 42 37 32 30 30 30 29 27 27 28 26 23 23 22 21 19 18 18 19 20 23 25 28 29 31 31 33
25 27 26 27 31 35 39 44 42 45 57 58 57 57 55 49 43 40 35 33 32 31 30 28 29 29 28 22 23 23 21 20 20 20 22 24 27 29 31 31 32 33 35
25 29 29 30 30 31 37 41 40 41 51 59 61 61 62 51 44 41 36 36 35 34 31 30 30 27 27 24 24 24 23 22 22 23 24 27 30 34 37 38 38 39 37
28 30 32 34 34 35 35 35 41 44 46 55 59 63 59 45 41 39 36 36 35 35 32 30 31 26 29 26 25 26 25 23 24 25 27 30 34 37 41 43 43 45 42
25 30 31 35 39 41 40 35 36 40 48 48 46 51 50 43 37 36 37 37 34 33 30 29 32 29 25 31 28 28 26 25 26 28 30 33 38 41 44 45 48 49 47
25 27 31 36 39 44 40 32 34 33 43 52 48 49 48 42 37 33 36 35 34 33 32 30 30 27 30 34 31 28 27 28 29 30 33 36 41 45 46 47 49 51 53
22 26 31 36 40 40 34 33 26 30 32 48 50 50 45 39 35 36 37 34 35 34 29 31 30 29 31 34 31 28 29 30 31 33 35 40 45 47 47 49 49 49 49
18 26 32 33 36 39 32 25 30 27 30 35 51 49 44 37 34 35 35 33 32 31 30 29 27 30 32 32 31 30 31 31 33 36 41 45 48 47 48 48 48 46 47
25 28 24 34 38 38 30 26 25 23 32 34 42 47 44 36 34 33 33 34 33 30 26 33 36 30 32 31 30 30 30 32 35 42 46 49 49 48 48 47 45 46 48
30 26 29 25 31 32 30 31 27 26 29 36 35 36 36 35 35 31 34 33 30 30 32 32 31 29 30 29 30 31 32 36 43 46 48 49 48 48 47 46 46 47 48
34 32 31 31 28 31 25 28 30 29 31 33 31 32 34 34 31 32 34 29 28 28 26 31 28 29 28 29 30 31 36 42 45 47 50 46 47 46 46 47 48 49 49
19 25 32 30 33 31 26 25 29 31 26 27 29 30 32 32 33 32 34 32 29 30 26 25 27 27 27 28 31 38 42 44 46 47 45 45 44 45 47 48 49 50 51
18 19 24 36 34 31 21 25 29 30 36 29 28 31 31 33 36 34 32 35 22 25 29 21 26 25 25 33 39 38 42 46 43 42 42 41 43 44 45 46 48 49 48
20 20 24 30 31 30 24 21 18 28 25 24 26 28 30 29 37 28 31 34 28 25 22 20 20 27 32 37 36 41 43 40 40 40 41 41 43 44 45 47 48 46 44
10 11 10 14 17 14 12 12 10 15 17 24 23 25 29 35 28 35 24 22 20 9 15 19 23 28 30 35 39 37 37 37 38 40 41 43 44 46 47 48 48 45 42
7 6 7 9 11 8 11 13 13 13 19 20 21 24 27 33 29 17 22 7 8 12 14 19 25 30 32 32 33 34 35 37 38 39 41 44 46 46 46 47 45 41 35
4 5 3 1 5 9 11 12 10 14 16 21 20 15 17 10 7 6 5 5 10 14 19 22 26 28 30 30 30 32 34 37 38 41 42 43 44 44 43 43 41 36 31
16 13 11 8 8 8 10 6 7 13 19 18 17 15 12 8 5 5 5 7 13 16 20 23 25 26 27 29 31 33 35 39 40 42 42 41 42 40 38 37 34 31 28
17 14 6 22 17 22 22 20 24 21 17 18 16 11 10 5 2 4 7 12 15 17 20 22 23 25 27 29 33 36 39 41 44 43 42 41 40 37 34 31 29 26 26
17 18 19 17 18 20 21 18 20 17 13 13 7 4 3 1 4 8 11 13 15 17 18 21 24 27 30 33 35 37 40 42 44 43 41 40 36 32 29 26 24 24 25
13 14 14 14 16 15 15 14 11 10 8 5 3 3 3 5 8 10 11 13 15 18 20 23 26 29 32 34 37 39 41 42 42 41 37 34 30 27 25 21 23 24 25
8 10 11 8 11 15 10 9 7 6 4 2 2 2 5 7 9 10 12 15 18 20 23 26 28 30 33 37 39 41 43 44 42 38 33 27 24 20 18 20 21 23 24
5 3 5 7 8 11 8 6 5 5 6 7 8 9 9 10 11 13 16 18 20 23 25 28 30 33 36 38 40 42 42 42 40 32 26 20 17 15 16 18 19 21 23

GFSMW_700_spd_024.txt.gz
Wind_Speed
26 30 35 46 54 57 54 50 44 44 45 40 37 35 34 31 31 30 28 26 24 25 23 25 27 27 26 25 26 26 24 24 22 20 18 16 16 15 16 16 18 19 21
29 30 32 34 36 42 48 50 51 53 45 45 39 39 38 34 31 33 32 29 26 25 25 26 27 28 26 25 26 25 24 23 22 20 19 18 17 18 18 20 21 24 25
32 29 31 33 35 37 37 38 44 55 50 46 45 44 41 41 39 38 37 34 30 27 25 27 28 28 27 26 25 23 24 23 22 21 20 19 19 20 21 23 25 27 29
21 21 28 33 35 39 41 40 40 47 58 54 52 49 50 48 43 39 35 36 33 29 26 29 28 27 27 28 24 22 24 24 23 22 22 21 21 22 24 26 28 30 32
18 21 25 26 28 32 39 46 47 47 48 52 59 55 54 51 45 41 40 38 37 35 30 31 28 30 28 30 27 21 23 25 24 24 23 23 24 25 26 28 31 33 35
21 23 25 25 26 30 33 37 46 53 52 53 54 54 52 51 49 43 44 43 38 38 33 31 31 33 31 30 25 29 23 27 26 26 25 26 27 29 30 32 34 36 36
23 25 26 28 31 33 34 33 34 35 53 57 54 52 53 49 47 44 45 45 43 40 35 31 32 34 32 32 28 30 25 27 29 28 28 29 31 32 33 36 39 43 43
22 24 27 31 32 33 33 35 35 36 34 46 52 48 50 43 45 46 44 49 46 39 34 32 34 34 33 34 28 28 26 31 30 31 31 32 32 34 37 39 44 48 49
25 28 33 37 36 37 37 36 42 44 42 40 42 50 52 51 42 42 47 46 41 39 35 35 36 35 33 27 33 28 32 32 31 33 34 33 35 37 40 45 49 52 54
37 35 33 33 38 36 36 35 37 33 35 40 37 41 49 49 45 44 44 42 38 38 35 36 35 36 33 37 33 34 27 37 32 36 34 35 37 40 45 49 52 53 54
34 33 29 30 32 33 36 37 35 34 30 29 33 38 39 44 43 43 41 38 37 36 34 35 36 34 33 32 35 40 31 35 32 37 36 37 39 43 50 52 53 51 52
38 37 40 33 29 32 34 35 36 37 28 27 31 33 36 38 43 42 41 38 37 35 35 37 35 34 34 31 33 31 28 36 34 37 37 40 44 49 52 54 51 50 50
35 32 25 44 30 34 35 37 37 36 34 31 33 33 33 38 41 38 39 36 35 35 34 37 31 32 38 37 33 29 31 34 35 38 39 45 49 51 54 52 50 49 50
28 25 21 31 25 31 36 38 36 35 35 31 32 36 32 32 36 39 39 36 32 32 36 36 40 39 36 27 27 31 33 34 36 39 46 48 49 53 50 50 49 50 51
25 22 18 24 34 35 35 34 28 29 27 30 32 35 28 30 33 38 36 33 35 38 35 34 33 33 31 32 26 26 29 34 39 46 48 48 49 47 48 49 50 52 52
21 19 15 17 17 27 35 35 31 25 23 27 30 26 27 27 30 29 36 33 35 40 35 42 35 30 29 30 26 25 32 40 44 43 47 44 45 46 47 48 50 51 53
15 10 10 12 16 18 22 28 31 23 23 28 30 26 28 29 29 32 34 38 41 41 37 36 30 25 25 23 24 31 34 38 41 41 41 42 44 46 47 49 50 51 48
13 11 9 11 10 11 15 18 18 22 22 24 22 22 23 20 29 30 35 37 27 30 30 22 15 14 18 22 25 30 36 36 38 39 40 42 44 46 48 50 50 49 46
10 9 9 10 10 12 13 15 5 7 10 21 21 12 16 22 25 32 26 17 14 13 10 9 11 16 20 25 29 31 33 34 36 38 41 43 45 47 47 49 50 47 42
18 13 12 12 8 6 7 9 11 9 6 8 12 14 16 14 12 12 16 15 8 7 8 11 15 18 22 25 27 29 31 34 36 39 40 43 45 46 47 47 46 42 38
11 12 13 16 10 10 12 10 10 19 20 18 16 17 14 15 13 10 7 4 5 7 9 13 16 20 23 25 28 30 32 35 35 38 40 43 45 46 44 42 39 36 32
24 21 16 21 25 26 25 24 26 26 25 23 20 17 14 11 8 5 3 1 7 9 12 15 18 20 23 26 29 31 33 35 38 40 43 45 45 42 38 34 31 28 25
19 22 22 22 22 25 24 22 22 23 20 17 14 11 8 5 3 0 2 6 9 11 13 16 19 22 25 27 28 30 35 39 41 44 45 44 42 37 31 27 24 22 23
13 15 15 17 18 19 18 17 14 13 11 8 7 6 4 2 1 3 4 7 9 12 15 17 20 23 26 28 31 35 37 40 42 45 43 41 36 29 22 19 20 21 22
10 8 10 14 13 12 13 9 8 9 7 5 5 6 5 5 5 5 7 10 12 14 17 21 24 27 30 32 35 37 39 42 44 43 40 32 23 18 17 17 18 19 21
3 4 6 8 9 8 8 7 7 6 5 5 6 6 6 7 8 10 11 13 16 19 22 25 28 30 32 34 36 38 41 42 42 40 32 19 14 12 13 14 15 18 19

GFSMW_700_spd_027.txt.gz
Wind_Speed
31 36 40 47 53 54 55 49 45 41 41 43 42 38 36 32 31 27 28 28 27 26 26 26 24 25 26 26 26 25 24 24 23 23 22 21 19 18 16 16 16 17 19
27 29 32 38 41 48 54 57 54 51 48 45 43 44 40 39 34 31 29 31 31 29 27 26 23 24 25 26 26 25 24 24 23 22 22 21 21 19 18 18 19 20 22
29 29 33 35 35 37 41 48 52 55 59 53 49 48 45 43 43 39 35 35 35 32 29 28 26 25 25 26 26 24 25 24 24 23 23 23 22 21 20 21 22 23 24
15 16 22 35 36 39 39 41 42 41 45 52 59 60 57 50 46 40 37 36 37 34 32 30 29 27 27 26 26 26 25 25 23 24 24 24 24 24 24 24 25 26 27
22 17 17 20 30 38 40 42 45 47 45 46 49 51 57 54 49 45 40 40 39 36 33 33 32 30 31 30 30 29 28 24 22 25 26 27 27 27 27 27 27 28 29
17 19 20 21 20 24 27 30 33 39 47 50 49 49 52 57 54 47 47 43 42 39 36 33 32 33 32 31 32 34 31 28 25 23 28 29 30 30 30 30 30 30 31
21 22 23 23 24 24 27 29 30 31 30 34 43 54 50 51 48 47 48 47 43 41 38 36 34 34 35 32 28 35 33 29 33 27 31 32 32 33 33 33 34 35 35
22 23 26 26 28 28 26 27 30 32 34 34 32 34 49 54 51 49 48 46 42 41 41 36 34 35 35 35 30 39 36 30 34 30 35 35 35 33 35 36 37 39 41
25 27 29 32 33 34 36 36 33 31 34 36 39 41 38 42 48 46 47 46 45 43 40 39 36 37 38 37 35 38 38 33 34 34 38 38 36 34 35 38 40 42 47
34 36 38 38 39 40 40 38 36 35 35 35 35 36 42 43 40 42 43 43 45 39 39 41 39 39 40 39 39 38 44 41 38 38 34 43 35 35 36 40 42 45 52
38 39 37 39 45 38 36 36 34 35 35 36 32 30 30 30 33 37 42 44 43 43 43 41 38 39 40 41 40 42 36 41 34 31 35 34 35 37 38 41 45 51 56
36 29 30 27 32 34 45 39 31 28 28 33 33 30 28 29 31 31 31 42 44 42 41 39 39 40 41 38 40 45 39 38 40 41 38 32 41 37 40 45 51 54 55
32 27 24 26 25 28 29 39 32 28 28 33 37 35 32 31 32 29 30 39 41 39 39 38 40 37 38 40 41 50 41 38 33 35 33 34 35 39 44 51 54 54 52
31 26 24 24 17 20 27 43 39 27 30 32 34 36 37 32 31 30 31 36 37 36 39 38 36 42 42 42 44 46 37 41 34 30 31 33 37 44 49 51 51 49 50
29 25 22 21 17 14 19 34 30 29 33 32 30 30 33 32 29 28 30 33 34 33 33 36 35 41 41 42 49 38 35 39 35 29 30 36 43 45 48 46 46 48 50
24 22 17 15 14 17 16 15 31 37 31 29 26 26 27 26 24 25 28 29 32 35 34 36 33 39 49 40 45 43 37 36 28 29 35 39 42 43 44 45 47 50 52
19 18 13 12 12 12 12 12 18 25 24 26 25 24 25 25 26 24 29 30 32 34 32 36 40 44 34 41 35 32 26 23 27 33 37 38 39 41 43 45 48 50 50
13 11 10 8 9 10 13 13 15 11 16 17 20 24 18 21 27 26 25 25 28 30 26 32 36 31 29 22 19 18 21 26 30 33 35 36 39 41 44 47 50 52 51
15 13 12 10 10 11 11 10 12 6 3 11 12 12 18 25 22 10 16 21 18 27 21 17 13 11 10 14 18 21 25 28 30 33 36 38 40 42 46 50 52 50 46
12 15 15 10 11 9 7 9 8 6 8 3 9 8 8 12 14 14 6 8 25 14 10 7 7 10 14 18 21 24 25 28 30 34 37 39 43 46 48 49 49 47 43
13 13 23 23 25 26 23 20 17 16 15 15 19 19 19 15 14 12 15 12 10 6 5 6 9 12 16 19 20 23 25 28 31 34 37 41 45 46 47 46 45 43 36
16 17 21 23 25 28 30 28 28 29 26 24 24 22 21 19 15 12 8 6 3 2 6 7 10 13 16 19 22 26 29 33 34 37 39 43 44 45 45 45 41 32 25
11 14 15 17 20 22 23 21 20 22 21 19 17 15 12 11 9 7 5 3 3 5 7 9 13 16 19 23 26 29 31 34 38 40 42 43 45 44 42 36 26 20 18
6 8 10 12 14 16 17 16 15 14 14 14 13 10 9 7 5 4 4 4 7 9 12 14 17 20 23 26 28 31 33 37 41 42 43 44 42 39 30 19 16 15 16
6 5 7 10 8 8 11 10 10 9 10 9 8 6 6 6 6 6 7 9 10 12 14 17 20 23 25 28 31 35 38 40 42 42 41 39 34 24 16 14 14 15 16
4 3 2 4 4 6 7 6 6 6 6 6 6 5 5 4 5 7 8 10 12 15 18 22 25 27 30 33 36 39 41 40 39 37 34 27 18 12 11 13 14 15 15

GFSMW_700_spd_030.txt.gz
Wind_Speed
26 31 37 41 45 51 50 48 47 46 43 42 41 40 38 35 33 31 29 28 29 29 26 25 25 25 25 25 26 24 24 25 24 24 23 21 20 19 18 18 17 17 17
25 27 29 32 38 38 42 52 53 50 47 45 44 44 42 42 38 35 32 30 31 30 30 27 28 29 28 28 26 26 26 24 24 23 23 22 21 21 20 20 20 20 20
27 29 30 30 32 36 38 40 43 48 58 57 52 51 49 47 48 45 40 36 34 31 34 32 30 31 30 28 28 26 25 24 24 23 23 24 23 22 22 22 22 23 24
13 18 21 22 28 36 39 38 39 39 38 42 54 59 57 56 53 50 45 42 40 39 37 35 33 33 32 29 28 28 25 25 24 25 25 25 25 25 25 25 26 26 26
18 18 20 20 20 20 24 40 38 39 39 39 41 44 52 59 62 58 55 49 46 40 39 36 34 32 33 30 29 31 27 28 26 26 24 25 26 27 28 28 28 29 29
14 17 19 21 21 21 19 18 25 27 34 40 43 46 45 44 48 52 53 48 48 44 40 38 36 34 34 32 32 31 28 27 32 33 28 24 25 27 30 31 31 30 30
19 22 24 25 24 24 24 24 24 24 23 25 29 31 34 43 51 47 44 48 49 46 45 42 38 36 35 32 32 32 31 30 32 31 31 28 27 29 33 34 34 33 33
21 24 26 26 27 27 26 28 29 30 31 29 28 29 31 32 32 42 49 44 43 44 44 46 41 37 36 36 34 34 35 32 37 42 32 34 30 29 33 40 37 36 37
28 30 31 33 36 35 35 37 38 37 36 37 37 34 31 31 32 30 32 40 44 43 42 41 43 40 40 37 36 35 37 38 39 37 41 36 35 31 35 43 38 37 41
29 31 35 38 41 44 45 45 46 45 43 43 42 38 34 32 32 32 36 34 36 44 43 44 41 43 42 38 38 38 38 39 42 42 42 35 42 40 38 37 39 37 40
34 32 29 30 32 37 40 41 44 46 41 42 42 40 37 35 31 29 31 34 36 35 39 40 40 39 43 40 38 39 39 42 46 47 47 44 43 35 40 39 36 38 42
34 33 28 26 27 32 35 35 36 36 46 40 43 42 39 35 30 27 28 31 33 35 38 40 39 39 41 41 41 39 40 44 46 44 50 51 39 44 40 41 38 37 42
35 30 27 25 22 22 22 25 28 33 35 40 38 32 31 32 31 29 28 30 31 34 37 42 42 41 39 41 41 41 45 39 46 46 53 43 38 41 40 39 37 39 45
31 27 29 21 21 19 18 22 24 30 33 37 45 36 27 27 30 29 31 30 31 33 35 39 40 38 37 41 39 39 45 53 41 53 46 46 41 38 39 35 38 43 45
24 24 24 18 19 19 19 23 25 23 26 33 39 27 23 28 29 30 28 28 28 30 32 33 33 37 37 37 40 45 39 40 48 44 41 38 38 33 32 38 40 41 41
26 22 21 19 18 19 21 20 19 17 18 26 25 27 26 25 27 27 24 24 24 27 27 28 30 27 34 32 38 37 38 48 45 40 34 31 28 31 35 37 38 40 42
23 17 15 17 16 16 18 19 20 22 24 24 19 22 23 23 23 22 20 21 20 21 23 27 25 34 32 33 38 35 34 31 33 29 26 28 32 33 35 37 39 41 43
19 18 17 16 16 15 14 14 17 15 14 10 19 13 14 15 16 16 18 19 20 16 23 20 26 26 29 30 26 22 25 22 23 22 28 31 31 33 36 39 41 43 44
17 20 18 14 12 13 10 13 11 7 4 3 6 5 4 10 14 14 12 20 21 32 20 13 17 18 18 14 12 13 16 19 22 25 29 32 33 35 38 42 45 46 45
15 18 20 21 18 13 11 11 14 14 8 4 3 0 8 10 7 10 19 9 10 6 6 8 7 8 6 8 12 16 18 21 24 29 32 34 35 38 42 45 47 47 47
12 13 16 20 23 25 26 25 21 20 22 19 16 11 12 15 13 14 15 18 16 12 8 5 2 3 6 11 13 15 19 22 26 30 32 35 39 42 45 46 47 47 45
10 12 13 13 15 19 21 22 23 25 25 24 24 24 23 21 19 16 14 12 10 6 4 2 4 6 9 12 15 19 23 26 29 32 36 40 43 45 45 45 45 43 36
8 9 11 11 13 15 17 17 18 18 18 18 17 17 17 15 13 12 10 9 7 5 4 7 9 12 15 18 22 26 29 32 35 37 40 42 44 44 43 42 39 30 19
6 7 8 9 9 11 13 14 13 13 13 15 14 13 13 12 11 10 8 6 5 6 7 9 12 15 18 21 24 27 31 35 39 41 42 40 39 38 35 28 20 15 14
7 4 4 7 9 7 9 11 10 10 10 10 10 10 10 9 8 7 7 7 7 9 10 13 16 19 22 26 30 34 37 39 39 39 37 35 31 27 19 13 11 12 11
7 6 6 7 7 5 6 6 6 7 8 8 8 8 8 8 8 8 9 9 10 12 15 18 22 25 29 33 36 38 39 39 36 32 26 23 17 11 10 11 11 12 13

GFSMW_700_spd_033.txt.gz
Wind_Speed
24 27 34 42 46 49 49 48 45 44 43 41 40 37 36 33 32 31 30 30 30 31 33 31 30 27 26 26 26 26 27 27 25 24 24 23 23 22 21 20 20 19 19
24 29 33 37 40 43 47 50 49 51 51 47 44 44 41 40 36 35 34 34 33 32 34 34 33 31 28 27 28 30 30 28 26 25 25 24 23 23 23 22 22 22 22
24 28 32 33 35 36 38 41 43 42 43 48 50 49 47 47 46 44 42 38 35 35 35 35 37 34 34 30 31 33 32 29 27 27 26 25 25 24 24 24 24 25 26
19 20 20 19 22 28 34 35 36 37 39 39 42 47 53 56 55 53 47 46 45 40 39 38 37 36 37 36 32 32 33 32 29 29 28 27 26 26 26 26 26 27 29
17 18 17 17 18 19 22 26 32 38 40 39 38 36 38 41 44 50 55 54 52 50 46 42 41 41 40 37 35 34 33 31 29 29 28 29 26 25 26 26 28 30 31
8 13 17 19 21 23 24 25 24 25 37 41 39 39 39 40 42 42 42 44 45 50 52 48 46 43 41 37 35 32 34 35 34 32 30 30 33 30 25 26 29 32 33
12 17 21 23 25 26 27 27 26 25 26 33 39 40 37 36 37 39 44 47 44 41 43 45 47 45 43 40 37 35 35 35 34 32 31 32 35 35 33 30 27 34 35
17 21 24 28 31 32 31 30 29 30 31 32 34 37 37 38 37 35 34 37 42 45 44 39 44 46 45 42 38 37 36 36 35 36 36 35 39 37 41 37 33 37 38
26 29 30 31 34 37 37 37 37 35 36 37 37 37 38 39 38 37 35 34 34 39 43 44 40 41 44 46 43 40 39 36 37 37 38 37 40 40 44 43 41 39 41
25 27 28 30 31 33 35 37 40 42 43 44 44 44 43 42 41 37 35 33 33 32 35 39 42 41 39 39 43 45 43 40 37 39 41 40 48 49 45 42 50 44 45
27 26 26 27 27 27 29 28 31 34 38 42 44 46 45 44 42 39 36 33 32 35 38 36 39 41 42 40 39 44 45 45 39 38 43 47 50 52 49 43 51 42 46
26 24 26 26 26 23 21 23 26 28 29 29 32 38 41 39 37 38 36 30 27 33 38 40 39 40 41 40 40 41 43 42 36 40 44 52 47 55 47 45 50 49 48
28 22 21 19 17 16 19 22 24 24 26 29 32 34 37 37 34 38 36 28 26 31 33 38 40 40 40 38 38 39 37 37 40 43 49 54 51 55 41 45 52 51 45
23 21 22 20 18 17 18 19 23 25 27 27 30 33 33 38 33 28 37 29 28 29 27 31 36 39 40 39 39 38 37 39 43 44 46 53 49 48 40 46 46 43 39
25 21 20 17 18 19 18 20 24 24 24 25 23 21 27 34 41 36 32 25 30 28 25 26 30 33 35 34 36 37 36 42 43 40 46 48 44 43 40 40 37 37 38
25 21 20 21 21 20 18 21 20 21 19 20 17 15 15 14 16 16 22 26 26 24 23 24 24 27 30 33 33 33 37 34 41 41 38 37 35 34 32 34 35 37 35
22 18 20 23 24 21 17 18 17 20 16 14 8 10 13 15 16 17 18 19 20 21 20 21 20 24 26 29 32 20 25 34 32 29 28 28 28 29 33 34 37 36 36
20 22 22 24 21 15 15 16 17 14 13 10 2 7 8 10 13 13 14 17 18 17 16 18 17 24 29 27 14 22 21 21 19 20 23 24 28 31 32 33 36 36 36
15 18 21 25 22 14 13 14 16 14 7 6 5 2 3 6 9 8 10 12 14 14 14 18 16 23 13 9 16 12 11 12 15 21 22 25 25 30 34 36 38 38 39
13 16 17 19 22 21 17 15 12 15 14 8 2 3 2 3 6 10 11 9 13 6 6 6 6 5 6 4 3 7 10 15 18 21 23 27 31 35 36 39 39 40 41
11 12 13 14 14 16 21 23 22 23 25 26 22 19 19 19 18 16 14 16 15 15 12 10 7 5 3 2 6 9 14 16 21 25 28 32 35 37 38 41 43 44 43
8 10 11 12 12 11 12 14 14 17 20 19 19 20 19 18 18 17 15 14 12 10 8 7 4 2 2 5 10 13 16 20 25 29 33 37 39 41 42 42 40 37 33
7 7 9 10 10 11 11 12 13 14 14 15 15 15 15 14 13 13 12 11 9 7 6 4 4 6 8 12 16 19 23 27 31 34 37 39 40 39 36 32 27 21 14
10 10 8 7 8 7 8 9 10 10 10 11 12 12 12 12 11 11 9 8 8 8 8 9 10 13 16 18 22 26 30 34 36 38 38 36 31 26 21 17 13 12 12
7 9 9 8 8 4 5 5 6 7 8 8 8 8 8 8 7 7 8 8 9 10 11 13 15 18 21 25 29 32 35 36 34 31 27 22 19 16 11 9 10 9 9
6 9 10 9 10 6 4 4 4 4 4 5 5 6 6 7 8 8 9 10 11 13 15 17 20 24 27 31 33 34 34 33 29 22 16 13 9 7 8 8 8 9 11

GFSMW_700_spd_036.txt.gz
Wind_Speed
31 33 37 39 41 44 45 46 46 44 42 43 41 39 38 34 36 35 34 33 34 35 37 36 37 36 34 34 33 33 32 31 30 29 29 28 28 27 26 25 25 23 22
29 32 34 37 41 43 46 47 48 48 48 48 47 45 43 42 38 36 35 35 36 36 35 35 35 36 35 34 35 33 30 30 30 31 31 31 30 29 27 27 26 26 25
28 31 33 34 36 38 39 40 41 43 44 47 50 52 53 52 49 44 40 38 38 37 37 38 38 37 36 37 37 35 33 32 32 33 34 33 32 29 29 28 28 28 28
25 27 28 29 30 30 32 35 37 37 37 38 41 43 46 47 48 48 46 45 43 44 44 43 42 40 38 38 38 38 35 36 35 35 35 34 33 32 31 30 30 30 30
19 21 22 22 22 22 22 24 26 30 34 38 40 41 42 42 42 43 46 49 52 51 49 49 48 46 43 40 40 40 40 41 40 36 34 33 32 31 33 32 29 30 31
13 16 19 22 23 24 25 27 28 29 31 32 34 43 44 41 41 42 41 38 39 42 47 53 54 53 51 48 45 43 42 42 42 38 35 36 37 34 35 38 33 33 34
11 15 18 20 23 26 29 30 31 32 33 33 33 32 42 44 43 43 44 44 47 46 44 42 46 51 50 49 51 50 45 44 43 40 38 38 37 37 36 36 35 37 38
15 18 21 25 28 31 33 35 36 35 36 35 35 35 36 41 45 45 45 45 46 48 49 50 48 46 45 46 49 50 48 44 44 43 40 39 39 38 40 42 35 46 40
21 25 28 30 32 33 35 35 36 38 40 39 38 39 40 40 41 41 41 41 40 40 41 42 45 48 48 46 46 48 49 46 44 43 42 42 42 41 43 41 44 44 49
23 24 27 29 30 31 31 32 32 32 34 38 42 43 44 45 45 45 44 42 41 41 40 41 42 46 48 47 46 46 50 50 47 45 45 48 45 45 41 42 50 48 55
20 21 21 22 23 24 24 25 25 25 27 29 33 36 41 46 49 50 46 45 41 39 38 37 39 40 43 47 47 45 44 45 47 47 51 46 43 48 44 46 54 49 55
20 21 19 20 20 20 18 16 17 18 21 23 25 28 29 33 36 39 40 39 38 37 36 36 36 39 43 43 46 47 45 43 42 44 45 48 47 46 46 50 51 58 56
19 17 17 19 19 19 19 20 21 22 24 26 28 28 29 30 32 32 32 32 34 35 35 35 34 34 38 44 44 45 46 44 44 45 43 44 46 50 46 49 52 53 51
18 20 18 17 15 16 16 17 19 20 25 26 25 27 27 28 28 29 31 28 31 35 34 33 30 30 34 37 43 43 43 43 41 39 39 44 42 44 45 53 49 46 45
21 19 15 16 16 19 20 18 18 21 25 26 24 22 20 16 15 22 27 32 36 35 37 39 29 28 31 33 34 38 39 41 37 36 37 41 41 46 51 42 38 40 40
16 17 17 18 18 20 21 18 17 20 23 16 15 11 8 10 11 12 13 14 13 22 18 22 23 28 29 31 28 28 31 34 34 36 37 40 43 42 39 34 32 34 36
14 18 20 21 18 15 12 10 14 17 12 11 9 5 4 7 12 13 13 15 17 17 18 20 23 25 26 23 25 25 25 28 37 39 35 35 30 30 28 28 30 33 39
14 14 17 18 22 17 12 11 9 8 7 5 2 4 4 9 10 12 13 13 12 11 14 18 21 18 20 23 22 29 21 21 30 19 19 19 20 24 27 32 35 34 40
10 13 14 17 20 21 18 10 10 10 10 5 4 2 4 5 8 11 10 10 9 11 15 17 21 16 14 17 13 7 11 14 11 11 15 20 25 29 30 33 36 38 37
9 11 12 14 16 17 19 19 18 19 19 16 13 9 8 8 5 7 8 10 9 8 6 5 1 1 3 3 5 4 3 10 12 17 20 23 26 30 33 36 37 37 37
8 9 11 12 12 12 12 14 15 15 18 20 19 18 17 17 16 15 14 13 12 11 9 8 6 4 1 1 4 5 8 12 16 20 25 27 31 34 35 39 39 38 36
8 8 9 10 8 8 9 10 10 10 12 12 12 12 12 13 13 14 13 12 10 8 6 4 3 3 5 7 9 12 15 18 22 26 29 32 35 38 39 39 35 28 22
9 9 9 7 8 6 7 6 7 8 8 8 8 9 10 10 10 10 9 8 7 6 5 4 5 6 8 11 14 16 19 23 28 32 35 36 36 34 29 22 16 13 10
10 9 8 7 6 6 5 4 4 5 5 5 6 7 8 8 8 7 7 6 6 6 7 9 11 13 15 18 22 25 28 31 32 34 34 33 30 23 17 12 9 9 9
12 7 8 11 6 7 5 4 3 2 3 4 5 5 6 6 6 6 6 7 8 9 11 13 16 19 21 25 28 30 31 32 32 32 30 25 19 13 9 8 9 8 9
12 8 10 9 12 7 6 5 5 4 2 2 3 4 5 5 6 7 8 10 12 14 16 18 21 24 27 29 31 31 32 32 31 27 21 16 12 9 9 8 8 9 10

GFSMW_700_spd_039.txt.gz
Wind_Speed
26 34 35 36 37 37 38 40 42 43 43 43 44 46 41 39 40 38 34 36 37 37 37 38 39 39 39 37 36 36 36 37 37 36 35 34 33 31 31 30 28 27 26
30 35 33 36 37 38 40 41 42 43 45 45 46 48 43 41 42 42 40 40 40 37 38 38 38 39 38 39 37 36 36 35 36 35 35 36 34 33 33 32 30 29 28
30 34 33 35 36 37 38 38 39 40 41 43 45 46 50 48 47 46 45 44 43 40 40 38 39 39 40 40 38 37 36 35 35 35 36 36 37 34 34 34 31 31 30
30 32 33 32 33 34 34 35 35 36 37 37 39 41 42 45 43 43 44 44 46 45 46 45 43 43 43 43 42 40 37 38 38 39 38 38 39 37 37 35 33 32 31
24 25 26 27 28 28 28 28 28 29 30 33 37 39 41 43 42 40 41 43 44 47 49 49 50 51 49 48 47 47 42 41 41 39 40 39 39 39 39 37 34 31 29
17 18 20 23 25 26 26 26 27 28 29 31 32 34 35 36 40 43 43 42 40 43 45 51 55 58 56 53 52 51 49 47 45 44 44 42 44 43 39 37 34 33 43
14 15 17 19 21 24 27 28 30 31 33 34 35 36 37 36 37 40 44 44 44 43 44 42 44 47 51 53 55 55 55 53 52 51 48 44 45 44 41 39 45 43 43
14 16 17 20 24 27 29 31 33 35 37 39 40 40 39 39 37 37 41 46 47 47 48 50 49 50 50 50 50 53 55 54 54 54 52 48 47 48 50 42 45 42 41
17 20 22 25 28 30 31 32 34 35 37 37 38 41 42 41 40 39 40 42 44 43 44 46 43 41 44 47 51 53 53 52 51 53 52 51 49 48 47 46 48 46 46
19 22 25 27 27 27 28 29 29 30 31 31 31 33 37 42 44 44 44 45 45 42 44 45 44 43 42 42 44 48 52 53 52 50 52 53 50 48 50 54 51 53 50
18 20 22 24 24 23 23 24 23 23 24 24 24 25 28 31 36 40 44 47 48 48 48 47 45 45 44 43 43 43 44 49 49 49 48 50 52 52 49 53 55 47 44
16 18 19 19 19 20 20 19 18 18 19 21 22 24 25 27 29 29 30 32 34 37 38 40 41 39 40 41 41 42 42 42 45 47 47 45 46 48 52 53 52 47 40
16 19 21 19 18 18 17 17 17 18 18 19 20 24 27 28 28 28 28 28 28 28 30 33 34 37 38 38 37 36 39 42 41 41 43 44 43 42 44 43 47 52 41
16 19 19 18 16 17 17 18 19 19 19 19 23 25 25 24 25 23 25 26 28 28 29 31 31 35 31 33 36 39 42 39 39 39 37 41 43 42 43 44 46 48 46
15 14 14 15 17 19 20 22 21 19 18 19 23 21 18 20 24 21 18 17 21 21 27 32 34 36 36 37 38 41 34 33 32 35 35 36 40 41 39 44 38 44 43
13 13 14 15 16 15 15 15 12 12 16 18 16 17 15 17 18 14 14 14 16 17 17 15 17 23 26 37 28 29 31 30 31 29 29 33 39 38 34 36 40 41 39
9 9 10 11 15 13 9 7 9 10 11 12 13 12 12 12 12 12 13 14 14 15 16 17 19 19 20 24 28 28 26 25 26 24 29 34 34 35 28 32 33 32 31
8 8 10 14 16 16 11 9 10 10 11 12 9 8 11 11 12 11 12 13 15 16 13 15 17 19 21 21 20 22 27 19 23 22 27 29 29 27 31 28 26 31 33
7 7 11 12 10 12 14 15 14 15 13 9 5 5 8 12 12 9 9 11 11 9 9 13 15 18 18 18 15 12 13 15 15 12 15 16 20 21 24 27 30 33 36
5 7 10 10 9 10 11 12 13 14 16 15 15 15 16 16 15 12 10 7 11 11 11 7 8 10 9 8 5 4 5 8 7 11 15 19 22 25 28 32 35 36 37
5 6 7 9 9 9 10 9 9 11 10 10 12 13 13 14 13 14 14 12 10 9 8 8 8 8 8 8 8 8 10 13 15 17 21 24 29 31 34 36 38 36 36
6 6 8 8 8 8 8 9 7 7 7 7 8 9 9 9 9 9 9 8 7 7 8 8 9 10 11 12 14 16 17 19 21 25 28 31 33 35 36 36 34 30 24
8 7 9 9 8 7 7 6 6 5 6 6 5 5 6 5 6 7 7 7 8 8 9 10 11 13 15 16 17 20 22 25 27 29 30 32 33 33 31 28 24 18 13
11 10 11 8 8 7 6 6 6 6 5 4 4 4 5 6 7 7 8 9 10 11 13 15 16 17 19 22 24 26 27 28 29 31 31 32 30 27 23 19 15 11 10
14 12 10 8 10 8 7 7 7 7 6 5 5 5 5 6 6 8 9 10 11 13 15 17 19 21 22 25 28 29 31 32 32 33 32 30 26 22 18 14 12 11 10
16 13 10 10 9 8 8 8 8 9 9 7 7 7 7 7 7 9 11 13 15 16 18 20 22 24 26 28 29 30 31 32 33 32 30 28 24 19 14 13 13 12 11

GFSMW_700_spd_042.txt.gz
Wind_Speed
23 25 33 36 38 36 35 33 36 37 37 38 40 41 40 38 38 38 39 39 39 38 34 36 36 38 39 36 36 36 34 33 33 34 35 36 36 36 34 33 32 29 30
23 29 36 37 34 35 35 35 36 37 39 40 41 42 45 45 41 41 39 39 42 43 41 38 38 39 41 41 38 37 35 34 36 34 33 37 37 35 34 34 33 31 31
29 36 35 36 33 33 34 34 35 35 36 37 39 40 43 46 44 39 37 38 42 46 46 44 41 41 41 41 42 39 37 37 36 36 36 38 39 35 34 35 34 34 33
32 35 34 33 33 32 32 32 32 32 32 33 34 36 37 39 41 40 36 34 37 41 45 49 48 46 44 45 44 43 42 41 39 38 37 39 40 39 38 35 35 36 37
31 31 29 28 30 28 28 28 28 28 28 28 30 31 34 35 37 40 41 39 36 36 36 40 47 50 49 49 48 48 49 47 45 43 42 42 42 42 41 39 37 37 37
20 21 22 22 24 24 25 25 26 27 28 28 29 30 30 31 32 33 35 36 37 38 39 37 39 42 48 52 53 53 54 55 52 50 48 47 46 45 44 42 40 41 39
16 17 18 18 20 20 22 24 26 27 30 31 31 32 34 34 35 35 36 36 36 37 37 36 39 39 40 42 44 45 49 53 56 55 54 51 51 49 46 45 45 45 44
17 16 15 17 18 20 22 25 27 30 32 33 34 35 37 39 38 37 37 37 37 37 39 40 41 41 43 44 45 47 48 49 50 50 50 52 52 51 52 49 47 47 49
15 16 17 19 22 24 26 27 28 30 32 33 33 35 35 37 37 37 37 38 38 38 38 39 44 45 44 42 41 43 44 46 47 49 49 48 48 48 50 50 50 50 55
17 18 19 21 23 24 25 25 25 25 26 28 29 30 31 32 33 34 35 38 39 41 41 41 42 43 44 43 42 43 43 43 41 41 43 45 46 46 46 47 48 50 52
14 16 18 20 21 22 22 21 21 22 22 22 21 21 21 22 25 24 27 30 33 37 41 43 44 46 47 46 43 43 44 46 44 43 41 40 43 44 44 45 47 49 52
13 15 17 19 20 21 20 20 19 18 18 19 19 19 20 22 25 23 26 27 27 28 29 31 33 34 35 35 34 33 35 35 34 33 34 36 38 39 41 41 41 44 44
12 14 17 19 18 20 19 19 19 18 17 16 17 18 19 23 25 23 23 22 23 22 21 22 26 29 30 32 35 39 41 39 39 39 35 31 34 36 35 38 39 39 38
13 13 15 16 15 16 17 20 20 20 19 19 19 20 21 22 18 18 17 18 19 20 21 18 19 23 27 31 33 34 31 26 33 33 30 33 33 35 35 34 36 35 38
13 13 13 15 15 16 16 17 19 20 20 17 17 20 17 15 13 14 15 16 17 16 15 16 16 18 20 23 28 35 33 32 33 31 37 37 27 27 27 29 33 32 39
13 11 10 11 13 14 14 12 12 11 11 14 15 14 13 10 10 12 15 15 16 16 16 17 19 21 21 22 23 20 22 29 30 29 33 32 22 23 23 26 31 29 28
11 9 9 9 12 13 10 8 8 7 7 9 10 9 7 6 8 12 13 14 15 15 15 16 17 18 19 20 20 21 21 23 25 29 23 18 21 23 25 29 26 30 35
9 8 8 7 7 7 10 10 10 9 7 6 5 4 5 8 9 12 12 13 13 13 13 13 14 18 21 21 19 20 21 21 21 23 19 14 16 16 19 21 24 27 26
7 6 6 6 5 6 8 10 9 11 12 12 12 11 11 11 11 7 7 6 6 11 13 12 11 12 14 15 13 10 9 11 14 12 10 9 13 16 19 21 23 26 29
5 6 5 6 4 5 8 8 6 7 10 11 10 9 10 12 13 15 16 16 14 13 12 10 10 12 13 13 13 13 14 15 15 15 16 17 19 22 25 27 30 33 35
6 6 7 6 4 5 6 7 7 7 8 8 7 7 8 9 11 12 12 11 11 10 9 10 10 12 13 14 15 16 17 18 19 21 22 24 27 29 30 32 34 35 35
7 6 7 8 4 4 5 6 6 6 6 6 5 6 6 8 9 8 8 8 8 8 9 10 11 12 14 16 18 19 21 23 23 24 25 26 27 28 29 30 30 30 27
9 8 8 9 6 4 6 5 4 5 5 4 5 5 5 6 6 6 6 7 7 9 10 12 13 15 17 18 20 22 24 25 26 27 28 28 29 30 30 28 26 24 20
12 10 11 11 7 7 7 6 5 5 5 5 5 5 5 5 5 6 7 7 9 10 12 14 17 18 20 21 23 24 25 26 27 28 29 30 30 30 29 27 24 21 16
14 14 13 11 10 9 9 9 7 7 6 6 7 7 6 6 6 7 7 9 10 12 14 16 19 21 23 25 26 27 28 29 30 31 31 30 30 28 26 24 20 16 14
13 14 14 13 10 12 9 6 8 9 9 9 9 8 9 8 8 9 9 10 12 14 16 18 21 23 25 27 28 28 29 30 31 31 30 30 28 26 22 20 16 15 14

GFSMW_700_spd_045.txt.gz
Wind_Speed
27 30 31 32 29 31 33 32 31 34 35 36 36 33 31 32 33 34 34 35 35 36 37 36 34 35 34 32 33 35 36 34 32 33 35 34 32 33 33 34 34 31 30
28 30 32 32 35 34 32 33 33 33 34 35 36 39 38 37 36 36 38 39 40 42 42 41 38 37 38 37 36 36 37 36 34 35 34 36 34 33 32 33 33 33 33
32 35 35 35 32 32 31 31 32 33 33 35 36 37 38 39 38 38 36 35 37 40 42 44 44 42 42 42 42 41 40 38 37 37 36 38 38 35 33 33 34 33 34
33 37 36 33 31 31 32 31 31 32 32 33 33 33 35 37 36 37 38 35 33 34 36 38 42 45 44 45 45 46 44 43 42 42 41 41 41 40 39 35 36 36 36
34 36 36 33 33 30 30 29 29 29 29 28 29 29 30 32 34 35 36 34 32 32 33 36 38 39 40 40 42 45 45 47 46 46 45 45 44 45 45 44 40 40 39
32 30 29 29 27 25 25 25 25 25 27 27 27 29 30 30 31 31 32 33 31 31 33 33 33 36 39 38 37 37 41 45 48 50 50 50 48 48 49 48 46 44 42
24 25 21 20 21 20 21 22 24 26 27 28 28 30 31 33 33 33 34 34 36 37 38 36 32 29 34 36 36 37 37 39 41 46 45 48 43 44 44 48 49 49 46
21 19 17 17 17 18 19 21 23 25 27 28 29 32 34 36 36 37 37 37 38 37 38 37 34 34 33 35 38 41 41 43 44 46 45 44 45 43 43 40 41 47 48
16 14 14 15 18 19 21 24 26 27 29 30 31 32 34 35 36 35 34 34 34 35 35 36 36 36 36 34 38 40 40 43 42 42 42 43 44 42 42 43 38 39 44
15 13 14 18 20 21 23 25 25 26 26 26 27 28 29 30 29 28 27 27 28 30 32 34 36 37 38 38 40 42 44 44 44 43 41 40 41 42 42 43 39 39 40
13 14 16 18 19 21 23 24 23 22 22 22 22 21 22 22 19 18 21 22 24 25 27 29 30 32 33 33 35 38 39 40 39 40 41 44 41 37 42 43 44 33 37
12 15 17 17 18 20 22 22 21 20 21 20 19 18 19 20 19 18 22 24 24 24 25 25 26 27 27 27 27 29 30 30 32 33 34 38 39 37 40 40 46 40 32
12 14 16 15 15 16 17 19 20 21 20 19 19 17 19 20 20 21 22 20 18 19 19 16 16 18 18 20 21 25 27 30 31 33 34 30 35 32 30 32 36 36 34
12 13 14 14 14 15 16 17 18 19 20 20 22 22 22 20 21 20 17 14 13 12 12 14 14 16 17 18 18 20 21 25 30 31 31 32 34 35 36 33 29 30 29
11 12 12 13 12 13 14 14 15 16 18 21 21 18 17 18 18 16 13 10 9 10 12 13 15 17 17 19 20 21 23 23 21 22 28 30 30 31 31 33 25 29 26
12 12 11 9 10 11 12 11 10 10 10 11 13 13 13 14 13 10 10 9 9 11 13 13 15 17 17 20 21 24 23 22 22 21 21 20 22 23 24 24 14 21 23
14 12 10 10 9 8 8 7 7 7 8 9 10 10 8 7 9 10 11 11 10 9 11 12 14 13 15 16 18 18 16 17 18 20 20 19 17 22 22 20 21 25 26
13 11 10 9 8 7 8 6 4 7 6 3 3 2 2 4 5 6 8 8 5 7 9 8 6 5 9 15 18 16 12 10 11 15 14 11 9 9 12 14 16 19 20
12 10 8 7 7 6 5 4 2 3 5 7 6 4 5 6 7 8 10 10 8 8 9 8 7 9 11 13 13 14 13 15 15 16 15 15 15 18 20 21 23 24 26
11 9 7 6 7 5 5 4 3 3 3 3 3 4 7 8 9 10 10 9 8 7 7 6 8 9 11 12 13 14 15 17 18 19 19 19 20 22 23 24 26 27 29
10 8 7 7 8 6 7 4 1 2 3 1 1 4 6 6 6 6 7 6 6 5 5 6 7 9 11 12 13 15 17 19 20 21 21 22 23 24 26 27 28 28 28
10 9 8 8 9 9 8 5 2 0 0 1 1 2 3 3 3 4 4 4 4 4 5 7 9 10 11 13 15 17 19 21 22 23 24 25 25 26 27 27 27 27 25
13 10 10 9 9 9 9 7 5 3 2 2 2 1 1 1 2 3 3 3 5 6 8 9 10 12 14 16 17 19 20 21 23 24 25 25 26 26 26 26 25 24 23
14 13 11 11 11 8 9 10 8 5 4 5 5 4 4 4 4 4 5 5 6 8 9 10 12 13 15 17 19 20 22 23 24 25 26 26 26 26 25 24 23 22 19
7 12 14 13 13 13 10 12 10 7 6 7 7 7 7 6 6 7 7 7 8 9 11 12 14 16 17 19 21 21 22 24 24 26 26 26 25 25 24 23 21 19 17
13 10 13 14 13 14 12 9 7 7 7 9 10 10 9 8 8 9 9 9 10 11 12 14 16 18 20 22 23 23 24 24 25 26 25 24 24 23 23 22 20 18 17

GFSMW_700_spd_048.txt.gz
Wind_Speed
28 28 30 31 29 28 28 29 30 29 30 32 32 32 30 30 31 31 30 30 31 32 34 34 34 34 34 32 32 33 33 33 32 35 36 35 33 33 32 32 31 30 30
26 30 32 31 30 30 30 30 31 32 32 34 35 35 34 32 30 30 32 34 35 37 40 41 41 41 40 37 35 36 36 36 35 37 37 41 39 35 32 32 32 31 30
27 29 30 32 32 32 32 32 32 32 34 35 36 36 36 35 34 32 31 33 36 39 41 42 44 45 45 45 41 38 40 40 40 39 39 43 43 40 35 35 35 34 33
32 34 34 34 35 34 32 32 33 33 34 35 35 35 36 36 35 35 34 34 35 36 38 38 39 40 40 40 41 39 40 41 43 42 43 44 43 45 44 41 38 38 38
36 36 36 37 37 35 34 34 35 34 33 33 33 34 34 34 34 35 36 35 34 34 34 35 36 38 40 41 40 40 39 39 41 43 41 47 42 45 46 49 45 42 42
37 37 38 37 35 33 34 34 33 32 31 31 30 31 31 33 33 34 34 34 33 32 33 32 32 33 34 36 35 37 37 37 37 39 40 41 46 46 46 49 48 49 49
37 36 36 35 32 30 30 29 28 28 27 27 28 30 32 33 34 34 34 34 34 35 35 35 35 35 35 34 33 35 36 36 36 35 37 39 42 42 45 45 46 44 45
30 29 27 26 25 24 24 24 24 25 25 26 27 30 31 32 33 33 34 36 38 38 38 38 37 35 34 34 35 37 39 39 39 40 39 40 40 40 40 42 46 49 49
26 23 22 22 22 20 20 22 24 24 25 27 29 31 32 33 33 33 34 34 35 35 34 34 34 33 33 33 34 35 36 38 39 40 41 40 40 41 39 39 41 40 45
18 18 19 17 18 19 21 23 24 25 27 29 29 29 30 30 29 29 29 29 28 28 28 28 28 29 30 32 33 33 35 36 37 38 40 40 39 39 39 41 42 41 41
15 15 16 17 18 21 23 24 25 26 27 27 26 26 27 25 24 22 22 22 23 23 25 26 27 27 29 28 27 28 29 31 32 34 33 33 33 33 33 35 39 42 43
14 16 16 17 19 20 22 23 24 26 26 26 24 24 24 22 22 20 22 21 22 25 26 27 26 25 24 24 23 23 23 25 27 28 27 29 31 33 33 31 34 39 39
16 15 16 16 17 18 21 22 22 23 24 26 24 24 23 20 20 20 21 22 25 26 23 22 21 20 19 19 19 20 21 24 22 21 25 29 31 31 28 29 31 35 37
15 16 15 16 17 18 19 20 21 22 22 24 24 24 23 24 23 22 21 22 21 19 18 17 16 15 16 18 19 21 21 22 21 22 23 24 24 24 26 29 31 36 35
15 15 14 15 15 15 16 18 19 18 18 19 19 22 22 21 19 20 19 17 16 15 15 14 13 14 14 16 17 20 22 23 23 22 23 24 24 23 24 23 25 20 25
12 14 14 15 14 13 12 11 12 12 11 11 11 12 14 15 15 14 13 12 12 13 14 13 13 12 13 14 17 20 22 21 19 20 20 26 20 21 19 22 25 18 21
15 15 15 15 14 13 11 10 9 7 7 7 8 8 8 9 10 10 11 12 12 13 12 13 12 9 8 4 5 9 10 8 7 8 13 12 10 11 10 12 15 15 19
19 17 16 14 14 12 10 7 6 5 4 2 0 3 3 4 4 5 6 7 6 7 8 7 2 1 2 3 5 7 7 8 9 12 14 14 14 13 15 19 21 21 22
20 18 16 13 12 11 8 6 5 5 4 2 3 4 4 3 3 4 5 4 3 4 4 2 1 1 3 6 7 7 9 11 13 14 16 17 17 18 19 21 23 24 25
19 17 15 12 10 9 7 5 4 4 6 4 3 4 5 5 4 4 4 4 3 2 1 1 2 5 7 8 9 10 11 13 15 16 18 19 20 21 21 23 24 24 25
17 16 14 12 10 9 7 6 6 4 8 5 4 5 4 3 3 3 3 2 1 0 2 4 6 8 9 11 12 13 14 16 18 19 20 21 22 24 25 25 27 27 27
15 15 13 12 9 8 8 8 7 8 9 6 6 5 4 4 4 4 3 2 1 3 5 7 8 10 12 13 15 17 18 20 21 22 22 23 24 26 27 27 27 27 27
17 16 14 12 9 9 8 10 10 10 10 7 7 7 6 6 7 6 4 4 5 7 8 9 10 12 14 16 18 19 20 22 23 24 24 24 25 26 26 26 26 26 26
17 19 15 12 10 10 9 10 12 11 9 9 10 9 7 8 8 7 7 7 8 10 10 11 12 13 15 17 19 21 22 23 23 24 24 25 26 25 25 25 25 24 24
21 17 15 14 12 14 13 12 13 14 12 11 11 11 10 10 9 10 10 11 11 11 12 13 14 15 16 18 20 22 23 24 24 24 24 25 25 24 24 23 23 23 23
13 12 10 12 14 15 15 15 11 13 13 12 12 12 12 12 12 12 13 14 14 13 14 14 15 17 18 20 22 24 24 24 24 23 24 24 23 22 22 22 22 22 22

GFSMW_700_spd_051.txt.gz
Wind_Speed
32 31 29 32 32 32 31 29 27 27 29 29 29 31 31 30 30 29 29 30 30 30 31 32 31 31 33 34 34 35 34 33 33 34 35 35 36 36 32 31 31 29 28
33 33 31 30 30 30 30 30 30 30 29 29 31 33 33 33 33 32 32 33 33 33 34 35 36 38 39 38 37 37 38 38 36 38 38 42 41 38 35 33 32 30 31
32 29 28 30 32 31 30 30 31 31 32 32 32 33 34 35 35 34 33 33 35 35 37 38 40 40 43 43 42 42 42 40 38 37 39 44 46 44 41 37 36 35 34
33 31 30 28 28 29 31 31 32 32 32 33 33 34 35 35 36 36 35 32 32 34 36 38 39 40 41 41 40 40 40 40 38 37 37 40 43 44 49 43 42 41 37
38 36 31 30 31 32 33 34 35 35 36 36 36 35 36 36 35 35 35 34 34 34 35 35 35 36 37 37 39 39 37 38 39 40 38 37 39 42 44 48 42 41 39
41 38 38 36 35 35 36 37 37 37 38 37 35 34 34 35 34 34 34 34 35 35 34 34 33 33 34 33 34 34 33 32 34 36 37 36 36 37 37 39 42 43 40
42 41 40 38 36 36 37 36 37 37 35 33 32 32 33 33 34 34 35 35 36 35 36 36 36 36 36 36 37 36 35 34 33 34 36 36 36 35 39 41 42 44 43
36 39 38 36 36 37 35 33 32 30 29 30 31 31 32 32 33 33 33 34 35 36 37 38 39 38 37 37 38 38 38 37 35 37 40 39 37 37 38 39 41 45 45
26 27 29 30 31 29 27 26 26 27 28 29 30 30 31 32 32 32 33 34 35 36 36 36 36 35 35 35 35 36 37 37 37 37 37 38 39 39 38 38 40 41 45
24 25 26 26 24 24 23 25 25 26 27 29 29 30 31 31 31 31 30 32 32 32 31 30 29 29 29 29 30 32 33 33 34 34 33 32 32 34 35 33 32 33 36
17 18 19 20 21 21 22 24 25 26 27 28 29 30 30 28 28 27 26 27 27 26 25 25 24 25 26 27 27 27 28 28 28 27 26 29 31 30 31 32 32 32 34
16 17 18 18 18 20 22 24 25 25 26 27 27 29 29 27 26 24 24 24 24 24 24 25 26 27 26 26 26 24 23 23 23 23 25 27 26 25 27 29 29 29 33
18 16 15 16 18 20 21 23 24 25 26 26 26 28 28 26 25 23 21 22 23 24 25 26 25 23 22 22 21 21 21 22 22 24 24 24 25 24 26 25 25 28 31
14 14 14 16 18 20 21 22 24 25 26 26 27 27 27 26 25 24 24 24 23 23 23 20 19 18 18 19 20 21 21 22 23 24 24 24 25 26 25 25 26 28 29
17 15 15 16 18 19 19 19 21 24 25 25 24 24 25 25 25 24 23 21 20 19 16 15 15 16 17 18 18 19 20 22 24 24 22 22 24 24 24 23 19 23 25
16 14 14 16 17 18 17 17 16 17 19 19 19 18 19 18 18 18 17 16 15 13 13 14 14 14 14 15 15 14 12 12 10 9 9 11 11 9 13 10 10 14 17
17 18 15 16 17 16 16 17 17 16 15 14 15 15 14 14 13 13 12 11 11 13 13 12 11 11 11 9 6 6 5 6 4 7 10 10 11 12 12 14 20 22 23
19 17 17 18 17 16 16 15 14 13 12 10 9 9 10 9 9 9 8 8 9 8 7 7 7 5 5 6 6 8 8 8 10 12 14 14 15 16 17 19 21 23 24
22 19 19 18 18 16 15 14 12 11 11 10 7 5 5 4 4 4 5 5 5 4 4 4 4 4 5 7 8 9 11 13 15 17 18 18 18 19 20 21 23 24 26
22 21 20 19 17 14 13 13 10 9 8 7 7 4 4 5 6 5 4 5 5 4 5 5 5 5 7 8 10 11 13 15 17 19 20 21 21 22 22 24 25 26 26
27 24 20 18 16 14 13 12 10 9 8 7 5 5 6 6 5 4 4 5 5 6 5 6 7 9 10 10 12 14 16 18 20 22 23 24 24 24 25 25 27 26 26
19 18 19 17 16 14 12 12 11 9 8 8 6 7 8 8 7 7 7 7 7 6 7 8 10 11 12 14 15 17 18 20 21 23 24 24 25 25 26 26 26 26 25
19 19 19 18 16 14 12 11 12 10 8 9 8 9 10 10 10 11 9 9 8 8 10 10 12 13 14 16 17 19 20 22 23 24 24 25 25 25 26 26 25 24 24
21 21 21 19 17 15 12 10 10 11 10 10 11 12 12 12 12 12 12 10 10 12 13 12 13 15 16 18 19 20 23 24 25 25 24 24 24 24 24 24 24 23 23
14 20 25 25 21 17 15 14 11 12 14 13 13 14 15 14 14 14 14 13 14 15 15 15 15 17 18 19 20 22 23 24 25 25 25 24 24 24 24 23 23 23 23
13 11 11 24 21 20 17 15 16 14 13 16 16 16 16 16 15 15 15 16 17 17 17 17 17 18 19 20 21 23 24 25 25 25 24 24 24 24 23 23 24 24 24

GFSMW_700_spd_054.txt.gz
Wind_Speed
22 22 21 20 22 25 26 27 26 27 28 27 26 26 26 27 28 27 27 28 27 28 29 31 31 31 32 32 34 35 37 36 34 36 35 35 35 35 34 32 29 29 29
25 25 25 26 26 27 27 27 28 28 28 28 26 26 27 28 28 29 30 31 31 31 32 33 33 34 35 36 36 38 38 39 38 40 39 41 40 38 36 34 33 32 31
30 28 27 27 26 28 29 28 28 28 29 28 28 28 30 31 31 31 32 33 33 33 34 35 36 37 38 39 40 41 42 43 40 37 36 38 41 39 37 35 34 33 32
31 32 31 28 28 27 28 30 30 30 30 30 29 30 32 33 33 33 33 34 35 35 36 37 38 39 39 40 39 39 38 38 39 37 35 36 39 40 43 40 37 33 33
35 32 32 31 28 27 27 27 28 29 30 31 32 33 34 34 34 35 35 34 35 36 36 36 37 37 37 36 36 35 34 36 35 35 35 35 37 37 39 43 39 37 34
37 36 34 36 33 31 29 30 31 32 33 35 36 37 37 37 36 35 34 34 34 36 36 36 35 34 34 35 35 35 34 34 34 35 35 35 36 36 36 38 41 42 41
39 41 41 38 36 34 34 34 35 35 35 36 36 37 37 36 34 34 33 33 34 35 36 37 37 37 36 36 36 36 36 35 34 34 31 33 35 37 37 40 42 44 45
32 36 42 45 42 38 36 36 36 38 37 36 35 33 33 32 32 33 33 33 34 34 35 36 38 38 38 38 38 39 38 36 33 33 36 35 35 34 36 38 40 43 43
28 32 30 38 40 38 36 36 36 35 32 31 30 30 30 31 32 32 33 33 34 34 35 35 36 36 36 35 35 35 36 35 35 36 35 35 33 33 34 35 35 36 38
24 24 25 26 28 30 31 31 28 27 27 27 29 31 31 32 33 32 32 32 33 32 31 30 30 29 28 27 27 28 30 31 32 33 33 33 32 29 28 30 30 30 32
19 18 19 21 23 25 26 25 25 26 27 28 29 31 31 32 32 32 31 30 30 28 27 26 25 24 23 23 25 26 27 28 29 30 28 27 26 25 27 25 26 28 30
15 14 17 18 18 19 20 22 24 25 26 27 27 29 30 30 31 30 29 28 26 25 24 23 23 23 24 25 24 23 23 22 22 23 21 22 24 25 24 24 25 27 27
14 14 15 16 16 17 19 22 23 24 25 26 26 27 29 28 28 28 27 26 25 23 23 24 23 23 22 20 19 18 18 18 19 20 22 24 24 25 24 25 25 25 25
12 14 13 14 16 17 18 19 21 22 24 25 27 27 27 28 28 27 26 25 24 24 23 22 21 19 16 15 15 16 17 18 19 21 23 25 26 26 26 26 24 24 22
16 16 15 14 15 16 18 18 20 21 21 23 25 26 26 26 26 25 25 24 23 22 20 18 17 14 14 14 14 15 16 17 18 19 19 17 16 18 18 16 16 14 12
13 15 14 13 14 17 18 18 20 20 20 21 21 22 22 22 21 20 20 20 19 18 16 14 13 13 12 12 12 12 9 9 9 8 6 8 11 13 13 13 14 16 19
12 15 15 17 15 17 18 18 18 18 19 19 18 18 18 17 17 16 15 15 15 13 13 13 12 11 11 9 6 6 7 8 9 9 10 13 14 16 17 19 20 20 21
18 16 18 18 18 18 18 18 18 17 16 17 15 13 13 13 13 13 13 12 13 13 10 9 9 8 5 5 7 8 9 10 11 12 13 15 16 18 19 21 22 22 23
18 18 20 19 19 19 18 17 16 16 15 14 13 12 9 8 8 9 10 10 9 8 8 6 5 5 6 7 8 10 11 12 14 15 17 18 19 20 21 22 23 24 24
24 22 20 20 19 19 18 17 15 14 13 12 11 8 7 7 6 6 6 7 8 8 6 6 6 7 7 8 10 12 13 15 17 19 20 20 21 22 21 23 23 24 25
22 23 23 22 23 20 18 16 15 14 12 11 10 8 7 6 6 7 7 7 7 6 7 7 8 9 10 10 11 14 17 18 19 21 22 23 23 23 22 22 23 24 25
22 23 25 24 21 20 18 16 15 14 12 11 10 9 8 8 8 7 8 7 6 7 8 9 10 11 12 11 13 14 17 20 21 22 23 24 24 23 23 23 24 24 24
19 20 20 20 20 19 15 17 15 15 14 12 12 11 10 10 9 8 10 9 9 10 11 12 12 13 12 13 16 16 17 19 21 23 24 24 23 23 23 23 23 24 24
18 20 21 22 21 21 20 18 16 14 15 14 13 13 12 11 10 11 12 12 12 13 14 14 15 14 15 16 18 19 19 19 21 23 23 23 23 22 22 23 23 23 23
16 13 21 30 27 26 24 21 17 14 14 15 15 15 14 13 13 13 14 14 15 16 15 16 16 16 17 18 19 20 21 21 21 23 24 24 24 23 22 22 22 23 24
11 12 13 10 8 28 29 26 19 16 15 14 16 16 16 15 15 16 17 17 18 17 18 18 18 18 19 20 21 22 22 22 22 23 24 24 24 24 23 23 24 25 25

GFSMW_700_spd_057.txt.gz
Wind_Speed
32 31 29 27 23 21 21 20 21 23 24 25 25 25 25 25 26 27 28 28 27 27 28 27 28 29 31 31 32 33 35 34 35 37 36 35 36 36 35 34 32 31 31
33 33 30 28 24 20 22 24 25 26 27 27 26 26 25 25 25 27 27 28 29 30 30 31 31 31 32 33 34 35 37 38 35 40 43 43 38 32 31 31 31 31 32
34 32 30 28 24 22 23 25 25 25 26 27 27 27 26 26 27 28 28 29 31 32 32 33 33 34 34 36 36 37 38 40 39 39 40 41 40 36 33 32 32 30 29
45 32 32 30 28 25 26 27 28 28 28 27 28 28 28 28 28 29 29 31 32 34 35 35 35 36 37 38 38 38 38 39 39 38 37 37 38 37 39 34 30 29 27
36 38 34 32 30 29 27 27 26 27 28 29 30 30 30 30 31 32 32 33 35 35 35 35 35 36 36 36 36 35 35 35 35 34 33 33 34 35 37 37 35 32 29
37 40 36 35 33 32 30 28 26 27 28 29 30 32 33 34 34 35 35 35 35 35 35 36 36 36 35 35 35 35 36 35 35 35 35 34 35 35 38 37 35 36 36
33 35 38 38 35 32 32 32 29 30 31 32 33 34 35 35 36 36 35 35 34 34 35 35 36 36 37 36 36 37 37 37 37 36 36 34 33 33 31 36 38 39 38
22 32 36 38 38 34 34 34 33 34 36 36 37 37 37 36 35 34 33 32 32 32 33 33 34 35 36 37 37 37 37 37 36 35 34 33 35 36 38 37 36 37 36
23 28 30 37 39 40 40 39 39 39 38 38 38 38 37 34 33 32 31 32 32 32 32 33 34 34 34 34 33 32 32 30 29 29 29 29 31 32 33 33 32 30 32
26 26 28 30 32 37 41 41 40 38 36 36 34 33 32 32 32 31 31 32 32 32 31 31 31 30 29 27 25 23 23 23 24 25 26 27 28 29 28 26 25 27 27
21 20 23 23 30 30 32 33 33 32 31 30 29 30 30 31 31 31 31 31 32 31 30 28 26 25 24 23 22 22 23 24 24 24 24 25 25 24 22 22 25 25 24
18 16 18 20 23 24 25 27 26 25 25 25 27 29 30 30 31 31 30 30 30 29 27 25 23 22 22 22 22 23 21 20 20 20 20 20 20 21 22 23 24 25 25
12 15 15 15 17 19 19 20 21 22 23 24 25 27 28 29 30 30 30 30 30 28 26 23 22 22 21 21 20 17 16 15 16 17 17 18 19 21 22 23 24 25 24
10 11 13 13 14 15 17 19 20 20 21 22 23 24 27 28 29 29 29 29 29 27 25 23 23 20 19 16 14 13 13 14 15 16 17 18 18 18 17 18 19 18 17
16 13 14 14 15 15 16 17 19 19 20 21 21 22 24 25 26 27 26 26 25 25 23 22 21 18 14 12 12 12 12 12 11 10 9 8 7 8 10 11 11 10 10
11 13 15 18 16 15 15 17 19 20 20 21 21 21 22 22 22 23 22 22 22 22 21 19 16 13 12 11 10 10 7 4 4 5 5 8 8 11 12 13 14 15 16
18 17 17 16 17 15 14 16 19 20 20 20 20 19 20 20 19 18 17 17 17 16 16 14 12 11 10 10 8 5 4 5 6 7 9 11 13 14 15 16 17 17 18
25 22 19 19 18 19 18 19 20 20 19 19 18 17 17 15 13 14 14 13 14 14 13 11 11 10 9 8 7 6 5 6 8 11 13 14 15 17 18 20 20 20 21
20 24 21 21 21 18 19 20 20 20 19 18 17 17 16 13 10 8 10 11 12 11 10 10 9 8 8 7 5 6 8 9 10 12 14 16 18 19 20 21 21 21 22
22 21 22 22 21 19 19 20 20 19 18 17 15 14 13 10 9 6 6 7 8 8 8 8 8 8 6 6 7 9 10 12 13 14 14 16 18 19 20 22 22 22 21
23 20 22 22 21 22 22 22 20 19 17 16 14 12 9 8 7 5 5 6 7 7 6 8 8 7 7 7 10 11 12 14 14 15 16 18 18 19 19 20 21 21 21
20 23 22 23 23 24 25 23 21 19 17 15 14 12 11 10 9 7 7 6 7 8 9 9 9 9 8 11 11 13 14 15 15 15 17 19 20 20 19 19 20 20 20
16 18 20 22 24 25 23 23 25 18 17 16 14 13 12 11 10 9 9 10 10 10 11 12 11 11 11 12 13 14 14 15 16 16 17 18 20 21 21 20 20 20 20
13 16 18 20 21 22 23 23 18 18 17 17 16 15 14 13 12 12 12 12 13 13 13 14 14 13 14 14 15 15 16 16 17 17 17 18 20 22 22 21 21 20 20
13 15 19 19 22 28 28 26 25 21 20 18 16 16 16 15 15 15 15 15 14 15 15 16 16 16 16 16 17 17 18 18 18 18 19 20 22 23 22 22 22 21 21
8 9 11 12 12 9 10 27 25 28 25 19 16 17 17 17 17 17 17 17 17 18 17 17 17 17 18 18 19 19 20 19 20 20 20 21 23 24 23 23 23 22 22

GFSMW_700_spd_060.txt.gz
Wind_Speed
35 34 34 32 30 29 29 28 26 24 25 25 25 26 25 25 27 28 29 29 29 29 28 28 28 29 30 30 32 33 34 34 35 38 38 38 37 37 37 36 34 33 33
39 36 35 33 31 29 27 25 23 22 23 25 24 25 25 25 27 28 28 29 30 30 30 31 31 33 34 34 34 34 35 36 37 39 40 42 41 40 34 31 31 30 29
40 38 36 32 33 31 29 27 26 25 25 26 27 27 28 28 28 29 30 31 31 31 32 33 34 34 35 35 35 36 37 39 38 37 39 40 41 40 37 32 30 30 29
48 43 39 34 32 32 34 29 29 29 30 29 29 28 29 29 30 31 32 32 32 33 34 35 36 37 37 37 37 37 38 39 39 38 37 36 37 38 39 36 32 29 30
43 42 36 34 34 40 37 33 36 33 33 32 31 31 31 31 31 32 32 33 34 35 36 37 37 36 36 36 36 35 36 36 36 36 35 33 35 35 36 39 37 33 29
35 40 37 41 38 37 37 35 32 32 32 31 30 31 31 31 32 33 34 35 37 37 37 37 36 35 35 34 33 33 34 35 36 36 35 35 35 34 35 36 35 31 29
34 35 36 42 49 41 36 36 33 32 32 30 30 30 31 32 33 34 35 36 37 38 37 36 35 35 34 34 35 35 35 35 36 36 36 36 35 36 37 36 35 36 37
25 35 36 41 49 45 40 38 36 34 34 33 32 33 34 36 37 38 38 38 38 37 36 35 35 34 34 34 35 35 35 35 35 36 35 35 34 34 35 35 36 38 38
21 27 33 37 50 49 45 39 35 34 35 36 36 37 38 39 39 40 40 38 37 35 34 34 34 34 34 34 33 32 32 32 31 31 29 28 28 29 29 31 32 32 34
21 29 29 30 31 36 40 39 38 38 38 39 39 40 40 40 38 36 36 36 35 34 34 33 33 32 32 31 29 28 27 25 25 24 24 25 24 25 26 27 27 25 26
15 20 30 34 32 32 34 38 39 40 40 41 41 39 38 36 33 32 32 34 34 34 33 33 32 31 29 28 27 25 24 23 24 24 23 22 22 23 22 22 22 23 24
11 16 24 25 28 27 34 35 35 36 36 37 36 34 32 32 32 32 31 31 32 33 33 31 31 29 27 26 25 24 24 24 23 21 20 20 20 20 20 21 23 23 23
19 13 17 21 25 25 27 29 30 31 31 31 31 30 29 30 31 32 32 32 32 32 32 31 29 27 26 25 25 24 23 21 19 18 18 18 18 19 20 21 22 22 22
18 12 13 15 17 19 22 24 25 26 26 26 27 28 29 29 29 30 32 33 33 33 32 31 28 27 26 25 23 21 18 16 15 15 15 16 16 16 13 10 9 10 10
17 17 16 16 17 17 19 20 21 22 22 23 25 26 27 28 27 28 29 30 32 32 31 29 26 26 25 23 19 16 15 14 13 12 10 9 6 6 6 9 10 11 12
18 18 18 18 18 18 18 19 19 20 22 23 25 26 26 27 28 28 28 28 28 29 28 26 25 24 21 19 17 15 13 12 9 7 7 7 7 8 9 11 13 15 15
28 26 21 19 20 20 20 19 18 18 20 22 23 24 26 26 26 26 26 26 26 24 24 23 22 20 18 17 14 13 11 10 9 8 9 10 10 11 12 14 16 17 18
25 33 27 25 24 24 24 22 20 20 21 22 23 24 25 24 24 23 22 22 22 20 19 18 17 17 15 13 13 12 11 9 9 11 11 11 13 14 16 17 18 17 18
23 30 31 27 28 27 25 24 22 22 22 22 23 23 23 23 22 21 19 18 18 16 15 16 15 14 13 13 13 11 8 9 11 11 11 14 16 16 17 18 19 19 19
24 25 31 33 33 29 25 23 23 22 22 23 23 21 21 20 19 16 16 15 15 13 14 13 13 13 14 12 10 9 10 11 11 11 13 15 16 17 19 19 20 20 20
22 21 22 27 28 26 25 27 25 24 24 24 23 21 18 16 15 14 13 11 12 13 13 14 14 13 12 11 10 11 12 12 11 12 14 15 16 16 19 20 20 20 20
21 22 22 23 26 28 26 26 27 27 25 24 21 20 18 16 15 14 13 11 12 13 13 13 13 13 12 12 12 13 13 13 12 13 14 16 16 17 18 19 20 20 20
16 18 22 24 25 27 27 28 29 28 26 28 26 18 19 17 16 15 14 13 13 13 13 14 13 12 13 13 13 14 15 14 14 15 15 17 18 18 18 20 21 21 21
13 15 17 20 23 25 28 30 28 27 30 34 22 19 19 18 17 16 15 15 15 15 16 15 14 14 14 14 15 16 16 16 17 16 17 18 19 19 20 21 22 22 22
14 18 18 19 22 24 27 30 29 28 27 24 21 20 18 17 18 17 17 17 17 17 17 17 16 16 17 17 17 18 18 18 18 18 19 19 21 21 22 23 23 22 23
14 13 14 14 13 14 14 10 19 30 32 29 28 25 22 20 20 20 19 19 19 18 19 18 19 19 19 19 20 20 20 20 20 20 21 21 23 23 24 24 24 24 24

GFSMW_700_spd_063.txt.gz
Wind_Speed
22 33 34 33 32 32 31 29 28 26 26 26 24 23 21 21 22 24 26 28 29 29 30 30 29 29 29 29 30 32 32 33 33 35 35 37 37 37 36 38 36 34 32
26 32 34 34 33 33 32 32 31 29 28 27 26 25 25 26 27 27 27 29 30 31 31 31 30 31 32 31 32 34 35 36 35 37 37 39 37 37 40 36 30 30 31
28 30 40 39 35 35 33 32 33 32 30 29 28 25 26 27 30 30 29 30 30 31 32 32 33 33 35 35 35 36 38 38 38 38 39 40 40 40 39 38 31 29 31
30 29 36 43 39 36 35 33 31 31 30 29 29 29 29 31 32 32 31 31 32 33 33 34 34 35 36 37 38 38 39 39 40 39 37 38 38 37 39 36 31 31 30
29 38 39 39 40 39 38 34 34 33 32 31 30 31 30 30 31 30 32 33 33 34 35 35 37 38 39 39 39 37 37 36 37 36 36 34 35 34 36 39 34 31 31
31 31 39 39 45 43 41 36 37 41 38 35 31 31 32 33 33 33 34 34 34 35 36 37 39 39 39 38 37 36 35 35 35 35 35 36 35 34 36 35 33 34 32
27 27 28 40 46 43 42 39 38 39 37 34 37 36 41 34 33 33 33 34 35 36 36 37 39 39 38 36 36 35 34 34 34 34 35 35 36 36 35 34 35 35 34
21 29 31 36 46 41 39 44 40 40 41 36 36 35 34 33 32 32 34 37 39 40 39 39 38 37 36 35 34 34 34 34 34 35 34 34 34 33 33 33 34 33 29
15 22 32 36 38 40 43 46 51 48 40 39 34 35 35 35 35 36 38 40 41 42 42 40 38 36 36 35 35 34 33 33 32 32 31 30 29 28 28 27 30 30 29
12 16 20 29 38 45 44 42 46 49 46 41 41 39 38 38 38 40 42 42 41 40 40 39 38 36 35 35 34 33 31 31 29 29 27 26 26 26 27 26 29 28 28
11 13 20 24 31 34 35 34 46 48 49 47 41 40 39 40 41 44 43 41 39 37 37 37 37 36 34 33 33 31 29 28 27 27 26 26 26 26 25 25 24 23 23
11 16 18 21 24 31 37 34 34 36 42 42 41 41 41 41 41 41 38 37 37 36 36 36 36 35 33 32 32 29 28 27 27 27 26 26 24 22 21 21 20 20 22
29 26 23 20 20 24 28 31 31 33 36 37 37 37 38 37 36 36 34 35 35 36 36 36 35 34 33 32 31 29 28 27 27 26 23 22 21 20 20 19 18 18 18
33 26 21 20 15 19 24 28 27 28 29 30 31 32 32 32 32 32 33 33 34 35 36 37 36 34 33 31 31 29 28 26 25 22 20 19 19 19 18 15 11 9 10
23 22 21 20 15 16 18 20 21 22 24 25 26 27 28 29 29 31 32 33 34 35 35 35 35 34 31 29 28 27 26 23 21 19 19 17 15 12 9 9 11 12 13
25 23 24 24 20 17 18 20 20 21 22 23 24 26 27 28 29 30 31 33 34 35 35 34 33 31 28 27 25 23 22 21 18 17 14 11 10 10 10 11 14 14 16
25 24 27 26 24 21 21 20 21 23 22 23 24 25 26 28 29 30 31 31 33 33 33 33 30 27 25 24 23 20 19 18 16 14 12 11 11 11 12 14 15 18 19
23 23 26 28 29 25 25 25 25 23 22 22 23 24 26 26 27 30 30 30 30 30 29 29 25 23 22 20 20 18 17 16 15 13 12 11 11 12 14 16 17 18 19
20 21 27 28 36 31 30 29 28 27 27 26 26 26 26 27 26 28 28 28 28 28 26 25 21 19 19 18 18 17 15 14 14 13 12 12 13 14 15 16 18 19 20
21 22 23 26 31 35 31 31 31 28 25 25 26 26 26 26 26 26 26 25 24 23 21 20 18 18 17 17 16 16 15 14 13 13 12 13 14 15 16 16 17 19 19
18 19 19 22 26 34 33 32 31 27 27 28 28 28 28 26 25 23 22 20 20 19 19 18 17 18 17 16 16 15 14 13 13 13 13 14 15 16 16 16 16 18 18
17 14 19 21 22 22 26 29 30 30 31 30 29 30 29 26 22 22 19 18 17 16 16 16 16 16 16 16 16 15 14 14 14 14 15 16 16 17 16 16 17 19 21
18 14 15 20 22 21 25 28 31 32 32 32 32 33 30 29 25 19 20 18 16 14 15 15 16 16 16 16 15 15 16 16 15 15 17 18 18 17 17 18 18 20 21
19 19 16 17 19 22 25 29 31 33 34 34 35 32 31 32 22 19 20 18 17 17 16 16 16 16 16 16 17 18 18 17 17 18 19 19 19 18 19 19 20 21 22
22 18 19 20 20 21 24 28 31 32 34 33 33 33 32 30 23 21 19 19 19 19 19 19 19 18 18 20 20 20 19 19 20 20 21 21 20 20 22 21 22 23 23
25 21 18 17 21 21 20 19 24 24 22 31 36 34 29 29 27 22 22 21 20 21 21 21 20 21 21 22 22 22 22 22 22 22 22 23 23 23 23 23 24 25 25

GFSMW_700_spd_066.txt.gz
Wind_Speed
20 20 28 29 29 30 31 30 29 26 26 25 23 21 21 21 20 19 19 20 21 22 24 25 27 27 27 27 28 29 30 30 30 33 33 32 33 34 34 33 33 31 29
27 26 30 31 31 31 31 31 30 28 27 25 24 24 23 23 22 22 22 21 23 25 26 26 27 28 29 29 29 31 32 33 34 36 37 39 38 34 35 35 33 32 30
33 31 32 34 32 33 32 31 30 30 30 28 27 27 27 25 25 25 23 22 23 25 28 28 29 31 32 32 32 33 34 36 37 37 38 38 41 38 37 36 34 31 30
25 34 35 33 34 31 33 33 34 33 33 31 31 30 28 28 28 29 27 26 25 30 30 30 31 32 33 34 35 36 38 39 39 37 36 36 38 38 39 33 32 33 31
32 35 35 35 35 38 35 36 35 33 34 33 32 30 29 29 30 29 29 30 30 31 31 31 32 33 34 36 37 37 38 38 38 36 35 34 35 35 37 39 33 33 34
29 29 32 38 36 38 40 37 37 38 34 32 30 32 30 28 29 29 31 32 33 32 32 32 32 33 35 35 36 36 36 36 36 35 35 35 35 35 35 36 35 33 33
21 27 31 34 32 39 35 37 37 38 36 34 31 31 35 33 33 31 32 33 34 33 32 31 34 35 36 36 37 36 35 35 34 35 34 35 35 36 36 34 34 31 29
23 23 25 31 33 29 39 39 39 39 39 36 37 35 34 34 37 46 44 38 39 34 33 34 37 39 38 38 38 37 35 35 34 33 34 34 33 33 33 32 31 28 25
12 15 20 26 33 33 28 40 39 38 39 37 38 39 43 45 42 34 36 38 36 36 38 40 41 41 40 38 38 36 36 35 33 32 32 32 31 29 28 27 27 25 22
12 13 16 19 23 33 32 33 41 44 46 45 46 47 40 33 33 35 37 38 39 40 42 43 42 40 39 38 37 36 34 35 33 32 30 29 28 26 25 25 25 20 24
10 10 11 15 20 27 30 32 39 44 46 46 46 42 47 42 38 41 41 42 42 43 43 42 40 39 38 38 38 35 34 33 32 30 29 28 27 25 25 25 24 23 23
18 14 11 19 17 22 27 31 34 35 33 35 38 41 46 43 43 42 41 42 43 42 40 39 39 39 38 37 37 36 35 33 32 30 28 27 27 26 25 23 21 20 20
17 18 25 24 23 22 22 26 28 31 34 33 33 36 40 41 39 39 40 40 38 36 36 36 35 36 37 38 37 36 34 33 31 28 28 28 25 23 21 20 20 19 19
28 29 27 25 24 22 22 21 24 25 25 28 30 31 32 33 34 36 36 34 33 33 34 33 34 35 36 36 36 36 34 32 30 27 26 26 22 20 19 18 17 15 11
23 22 23 20 20 20 20 19 17 18 22 24 24 25 27 28 29 29 30 30 31 31 33 34 34 35 36 34 33 34 32 30 28 26 22 20 19 19 16 12 10 10 11
20 21 20 21 20 20 20 20 18 17 17 19 21 22 23 24 26 27 29 30 31 32 33 34 35 35 35 33 31 30 29 26 25 23 20 18 16 13 12 11 11 12 13
21 22 19 20 19 22 22 22 21 19 19 20 21 22 23 24 25 27 28 29 30 31 31 33 34 34 33 30 29 27 24 23 21 19 17 14 13 13 12 12 13 13 15
22 21 21 20 21 24 26 25 24 22 23 23 23 22 22 23 24 26 28 30 30 30 30 32 32 31 29 27 25 24 20 19 18 17 16 15 13 13 14 15 15 15 16
21 21 21 23 22 25 27 28 27 26 26 25 25 25 26 25 26 28 29 29 30 30 29 29 28 26 25 23 21 19 18 19 17 16 16 15 15 14 16 16 15 15 16
20 20 20 21 21 23 26 25 30 28 29 28 27 27 26 26 26 27 28 28 28 28 26 26 23 19 19 18 19 18 17 17 16 16 16 15 15 15 15 15 15 15 17
22 22 20 18 18 20 20 21 27 30 28 29 29 28 28 29 30 29 29 27 26 24 21 22 20 18 16 17 17 16 16 17 16 16 15 15 15 14 14 15 16 16 17
24 23 20 17 17 19 18 20 23 28 29 29 31 29 31 31 31 31 29 27 25 19 20 21 18 15 16 16 16 16 16 16 15 15 16 15 15 15 16 16 17 18 18
28 24 22 18 16 19 20 19 19 20 25 28 30 33 33 33 34 31 29 28 22 18 20 19 16 14 14 15 16 16 17 17 17 17 17 16 17 17 17 17 18 20 20
26 24 22 21 18 19 19 20 22 24 27 30 33 35 36 37 36 33 31 32 22 18 19 16 15 15 16 16 17 18 18 18 19 19 18 18 19 19 18 19 20 21 21
24 23 23 20 18 20 22 21 21 24 26 29 32 34 38 38 32 30 31 29 21 19 20 20 19 18 18 20 19 20 20 21 21 20 20 20 21 21 21 21 22 23 23
25 25 24 22 21 18 23 22 22 22 22 22 28 26 24 29 34 33 27 28 29 22 21 20 19 19 20 21 21 22 22 23 23 22 22 23 24 24 23 23 23 25 26

GFSMW_700_spd_069.txt.gz
Wind_Speed
24 20 19 17 24 27 27 27 25 25 26 26 26 25 25 25 25 25 23 21 20 19 19 19 20 21 22 22 23 24 26 27 28 30 30 30 31 33 31 29 29 31 31
24 23 31 24 21 25 27 25 24 26 25 24 23 23 22 20 20 22 23 23 21 20 20 21 21 22 23 24 25 27 28 29 29 33 35 36 34 34 34 28 27 29 30
38 32 36 35 22 22 25 28 27 26 26 26 27 25 25 25 26 25 23 22 22 22 22 22 23 24 25 26 27 29 30 32 31 33 36 39 38 36 35 33 30 29 28
21 45 40 42 38 26 28 31 32 28 28 29 29 28 27 26 25 26 27 24 25 24 24 23 24 24 26 28 30 31 32 34 34 34 34 36 37 37 38 32 30 30 30
23 25 39 40 32 35 33 27 28 32 31 33 31 33 29 30 31 28 27 27 26 26 25 25 26 27 29 30 31 32 33 34 36 36 34 34 34 34 36 38 30 30 32
24 26 30 32 32 36 34 33 34 34 35 33 33 35 35 33 32 28 28 27 26 25 26 28 29 31 31 31 32 33 34 35 36 35 35 34 33 32 34 36 36 33 31
17 28 30 31 31 34 34 35 32 31 33 33 33 34 32 30 28 26 26 30 29 29 30 31 31 33 33 33 35 37 37 38 37 36 34 33 33 33 34 34 34 34 32
20 25 34 36 33 32 33 29 27 30 33 33 33 32 30 28 27 25 26 29 35 39 44 37 36 34 37 37 38 39 39 39 39 37 36 34 34 34 34 32 31 31 28
22 22 23 25 27 28 28 30 25 32 34 36 39 34 31 31 31 37 39 40 38 41 40 39 38 37 41 41 41 40 39 39 38 38 36 35 34 32 31 30 29 28 25
14 14 16 19 23 25 24 26 27 28 36 35 36 40 46 41 41 36 38 45 42 39 34 35 39 42 43 44 43 39 38 38 37 36 35 34 33 31 30 28 27 25 24
8 8 12 14 13 17 22 23 26 28 31 41 40 38 43 43 42 41 46 46 41 33 32 37 43 44 45 41 39 37 37 37 36 35 33 33 31 30 28 26 25 24 21
14 10 14 16 16 18 19 21 24 26 29 34 39 42 40 40 41 41 42 42 41 40 42 43 43 43 40 38 36 35 35 35 34 33 32 31 30 28 27 26 25 23 21
18 19 15 20 23 24 23 23 23 23 26 30 34 33 32 33 36 37 37 36 38 40 41 42 41 37 36 35 35 35 34 34 34 33 31 30 28 27 26 25 23 21 20
22 26 27 27 27 22 21 22 23 23 24 26 28 31 32 32 32 33 33 35 37 38 37 35 34 35 34 34 34 35 35 35 33 32 30 29 28 27 25 23 21 20 20
31 30 27 26 24 20 18 18 19 19 21 23 23 24 26 26 27 28 29 31 32 32 32 32 33 33 33 33 34 35 34 34 32 30 27 26 25 25 22 20 19 17 14
24 23 22 22 23 19 19 19 19 17 18 18 19 19 20 21 22 24 25 27 28 29 31 32 32 32 32 33 33 33 33 32 30 29 24 23 22 20 19 17 15 13 14
19 20 21 21 20 22 21 21 21 21 20 19 19 19 20 20 21 22 23 25 26 27 29 30 31 31 31 32 32 32 31 29 26 25 23 22 19 18 17 16 15 14 14
18 19 21 21 20 21 22 23 23 23 23 22 21 20 20 20 21 21 22 24 26 27 28 29 30 30 31 30 30 29 27 25 24 23 21 21 17 17 16 16 15 15 15
19 18 19 19 19 21 23 20 24 25 26 25 24 22 22 22 23 23 24 24 25 26 28 29 29 29 29 27 26 24 23 21 19 18 18 17 16 17 15 15 16 16 16
21 19 18 18 18 19 22 21 20 22 27 26 27 27 25 26 25 25 25 26 27 28 28 28 27 25 24 22 21 19 18 16 15 15 16 16 16 16 14 15 17 15 15
26 23 20 20 19 17 17 17 17 19 21 28 28 27 27 27 27 27 28 28 28 28 27 27 25 20 20 21 18 17 16 15 15 15 15 16 15 15 15 16 15 15 15
28 30 27 23 20 17 16 18 17 18 21 26 28 27 27 27 29 30 29 29 29 29 27 26 24 25 24 21 18 16 15 16 15 16 16 15 15 16 16 16 16 16 16
24 27 27 24 21 18 17 16 18 19 19 20 25 28 29 30 31 32 32 32 32 31 29 27 25 22 20 18 16 15 15 15 15 16 16 16 16 17 17 18 17 18 18
28 27 25 24 21 19 17 16 16 19 21 21 22 25 29 32 33 35 35 34 34 34 28 29 30 21 16 14 14 15 15 16 17 16 16 17 18 19 19 20 20 19 20
25 25 24 24 23 22 17 15 17 18 20 22 23 26 30 32 33 34 37 36 33 29 28 22 22 18 17 18 18 17 17 17 18 18 18 19 20 21 21 22 21 21 22
24 23 24 25 26 25 20 18 19 21 21 22 22 21 21 23 24 25 26 29 29 28 22 23 21 23 21 20 20 20 20 20 20 19 19 21 21 22 23 22 25 26 27

GFSMW_700_spd_072.txt.gz
Wind_Speed
23 23 24 22 25 29 28 26 26 24 26 25 25 26 25 24 24 26 26 28 26 25 23 22 20 19 20 20 20 20 21 22 24 27 27 26 27 29 28 29 24 27 29
26 25 22 23 23 21 25 27 26 24 24 24 23 24 24 23 21 22 28 26 24 25 24 22 20 21 21 21 22 23 24 25 26 29 32 32 30 30 29 31 29 24 26
28 28 30 28 26 23 25 17 22 29 25 24 25 24 23 23 25 25 25 24 24 25 23 22 23 22 22 22 24 25 26 27 27 29 33 36 36 34 34 31 29 30 29
36 39 32 31 28 24 22 25 20 25 22 22 26 26 25 25 23 22 21 22 24 24 24 24 24 24 24 24 24 26 27 30 29 30 31 35 38 36 38 33 29 30 30
28 36 36 41 39 33 32 34 27 21 23 34 34 30 29 29 26 24 25 27 29 30 27 26 23 23 24 25 26 27 28 30 32 33 33 35 36 36 37 37 31 31 32
27 29 26 24 31 30 29 32 32 30 27 30 31 30 30 34 30 29 32 34 30 26 24 22 21 22 24 24 27 31 32 33 35 36 37 37 37 36 36 37 36 33 31
19 21 27 23 23 30 31 31 33 32 30 28 32 32 34 32 38 32 32 31 30 28 27 25 25 28 30 39 47 35 37 37 38 40 40 39 38 37 36 37 36 37 34
17 17 21 27 24 24 27 30 30 30 29 26 27 27 29 30 30 30 25 25 26 24 19 18 21 27 33 41 39 33 40 39 41 41 40 38 37 37 37 36 35 35 33
20 19 23 27 31 31 31 31 32 33 31 28 27 28 27 25 25 26 26 27 27 26 27 36 35 41 37 33 35 38 40 41 41 40 38 36 35 35 35 35 33 32 33
19 20 22 23 23 26 28 30 28 27 29 27 29 30 34 34 38 33 32 29 37 30 30 35 32 35 34 33 31 33 44 42 40 39 36 35 34 33 33 32 31 30 29
17 17 14 13 12 10 15 18 21 23 26 29 29 33 35 37 38 39 39 38 37 39 37 40 38 36 37 38 42 45 46 42 38 36 35 35 34 32 31 30 30 29 27
14 11 10 13 16 18 16 17 19 19 22 25 28 31 35 39 39 39 41 39 40 39 39 40 43 42 42 42 45 46 42 39 37 35 34 34 34 31 31 30 29 28 28
16 17 20 20 17 20 25 22 22 25 26 25 27 30 32 36 40 40 41 39 37 39 41 38 37 39 42 44 43 41 38 37 35 35 34 33 33 31 30 29 29 28 27
16 21 24 25 24 25 26 29 26 24 27 28 27 28 30 34 36 35 33 32 33 34 35 35 38 39 39 38 38 37 36 36 36 34 34 33 33 31 30 29 28 27 25
23 27 30 29 28 26 25 27 28 24 22 23 23 24 26 28 30 30 29 29 29 31 32 33 34 34 34 34 35 35 35 35 35 35 34 32 31 29 29 28 26 24 23
27 28 28 27 26 27 26 26 27 27 23 21 20 21 21 22 23 24 24 25 26 27 28 29 30 31 32 32 32 33 34 34 34 34 33 31 28 26 26 25 23 21 19
27 24 23 24 24 25 26 22 24 28 27 23 23 21 20 19 20 21 21 22 22 23 24 26 27 28 29 30 31 32 34 35 34 32 30 28 26 24 22 21 22 18 16
20 20 22 21 22 23 24 24 23 25 28 27 25 23 22 21 21 21 21 21 21 22 23 25 26 28 30 31 31 33 33 33 32 29 25 24 23 22 20 18 19 16 17
21 20 20 22 22 23 25 25 23 25 26 30 26 25 25 24 24 22 23 23 23 24 25 25 27 29 30 30 30 30 29 28 27 23 20 19 19 18 17 17 17 15 16
27 28 28 27 26 25 25 24 22 25 24 26 28 29 30 28 26 26 26 25 26 26 25 26 27 28 29 28 27 24 22 22 21 19 16 15 16 16 15 15 16 15 16
30 33 33 32 29 27 25 24 21 22 22 25 29 34 32 31 31 31 28 28 28 27 27 27 28 28 28 27 25 28 25 20 16 16 14 14 14 13 14 16 16 16 16
36 34 33 30 28 31 29 25 22 22 22 22 25 27 32 32 32 31 31 31 30 30 29 29 29 29 28 27 27 25 21 17 15 16 15 16 15 16 16 17 16 16 16
31 31 31 29 29 28 29 25 24 22 24 23 23 25 29 32 31 32 32 33 32 32 33 32 32 31 28 26 23 22 19 17 16 16 16 16 17 17 17 17 17 17 17
26 27 28 29 28 29 27 27 24 23 23 23 22 22 22 26 31 32 32 33 34 36 36 34 32 30 28 28 25 20 18 18 16 17 16 16 17 17 18 18 18 19 19
24 25 24 23 22 25 27 29 25 24 22 21 21 21 23 25 28 30 33 35 35 37 37 35 33 29 24 20 20 18 18 18 18 18 18 18 19 19 19 20 20 20 20
23 23 24 24 23 23 25 27 26 26 22 23 22 23 24 24 24 23 24 23 25 25 28 28 30 25 22 23 20 19 20 20 20 17 17 21 22 21 21 21 22 22 25

GFSMW_700_spd_075.txt.gz
Wind_Speed
25 28 28 31 34 31 28 25 23 24 26 24 24 26 23 30 34 34 26 24 23 24 26 26 27 24 22 21 20 20 20 20 22 23 24 23 24 25 26 27 27 28 25
26 24 25 27 25 27 29 29 25 25 24 24 20 22 28 28 28 27 26 26 27 28 28 28 25 24 23 22 21 21 21 21 23 26 27 29 26 26 27 27 27 27 28
26 25 23 23 22 23 22 26 26 25 28 26 26 27 26 27 28 27 26 25 27 28 27 26 24 24 23 22 21 21 22 22 23 26 29 32 32 31 30 30 30 29 29
26 25 25 25 23 20 21 22 21 21 25 24 25 25 31 29 28 26 25 25 25 23 24 24 24 24 23 21 20 20 21 23 24 25 28 32 36 36 36 32 32 32 31
30 31 29 27 25 24 21 24 21 19 21 26 27 27 27 25 28 28 26 25 23 22 20 22 24 26 26 21 18 20 20 22 26 30 31 33 36 37 39 39 33 33 32
26 28 31 31 36 34 34 32 28 25 23 24 25 28 33 35 30 29 30 25 26 25 25 23 25 34 32 23 18 22 28 32 36 41 37 37 38 38 38 39 38 34 32
20 18 21 23 24 21 23 28 29 29 26 28 28 28 32 31 33 32 34 36 34 36 28 25 26 29 29 20 24 29 36 36 39 35 35 38 39 40 38 38 37 38 34
17 18 18 18 22 20 16 27 29 27 28 28 28 28 28 30 31 31 31 35 34 32 37 21 20 25 23 19 27 32 34 35 31 33 35 38 40 39 37 36 36 36 35
15 15 16 17 17 19 21 21 25 27 29 30 30 29 27 26 27 28 28 28 29 28 27 25 19 19 24 23 28 28 28 28 30 34 40 42 40 38 36 36 35 34 35
18 19 19 17 18 19 21 24 26 28 30 30 31 30 31 29 27 26 25 27 26 28 29 27 30 36 28 28 30 30 28 31 36 42 44 41 37 37 36 35 35 34 33
13 15 18 18 17 17 18 20 20 22 25 27 29 31 31 30 30 30 32 33 36 33 32 32 34 38 38 34 36 37 39 40 41 43 41 38 36 35 35 34 34 32 32
14 14 14 13 13 15 16 18 19 18 20 21 24 27 29 31 31 33 34 36 36 35 36 37 39 40 36 38 42 43 40 40 43 43 40 37 36 35 34 33 32 31 31
10 12 14 17 17 18 20 21 25 27 23 23 25 25 26 28 30 32 34 37 37 39 41 42 40 36 36 40 38 39 40 42 41 39 38 37 36 35 35 34 32 30 30
13 15 18 21 24 26 28 28 27 27 28 30 28 29 29 29 31 33 33 35 37 38 38 36 34 35 36 37 38 38 37 37 37 36 37 36 36 35 35 34 32 30 29
19 22 25 27 28 28 27 27 27 26 27 28 30 30 30 30 29 30 31 32 33 33 33 32 32 32 34 34 34 33 34 35 35 35 36 36 35 35 34 33 31 30 28
24 27 30 32 32 31 30 29 27 27 29 29 27 29 28 26 26 28 28 27 27 27 27 28 28 28 28 29 30 30 31 32 33 33 34 35 36 35 33 30 28 27 27
28 28 28 28 28 27 28 29 28 27 30 30 29 28 29 25 23 24 24 24 25 24 24 24 24 24 25 26 28 29 30 32 33 34 35 35 34 32 30 27 25 24 22
26 25 25 25 26 25 25 25 27 27 28 30 30 29 29 26 24 24 22 23 24 24 23 23 23 23 24 25 27 29 30 31 32 33 32 31 29 27 24 22 20 19 17
23 24 25 24 24 26 27 25 24 27 27 28 30 30 29 30 28 26 25 25 25 25 25 24 25 25 26 27 27 28 30 30 28 26 27 25 23 21 20 18 16 15 14
25 26 27 27 28 30 32 30 29 27 26 28 29 30 32 33 32 30 30 29 27 28 27 27 27 27 27 28 29 28 28 27 26 28 27 22 19 16 15 12 13 13 13
32 34 34 34 35 34 34 32 31 30 27 26 29 32 35 35 34 35 34 32 31 30 30 29 29 28 28 28 28 28 28 26 27 25 22 19 16 13 13 12 12 11 12
35 36 37 36 34 34 35 30 28 30 30 26 27 31 33 33 35 37 36 36 36 35 33 33 31 31 31 31 31 30 29 26 23 21 19 17 16 14 14 14 15 19 19
29 30 32 31 30 31 34 31 29 29 29 28 27 30 31 30 32 34 36 37 37 36 35 35 35 34 34 33 32 30 27 24 23 20 19 17 16 15 14 18 17 16 17
30 29 28 29 27 28 29 32 30 30 29 28 29 29 31 31 30 32 34 35 35 35 37 38 35 36 37 34 32 30 29 25 21 20 19 18 17 17 17 18 18 18 18
24 25 25 26 26 27 28 28 28 30 29 29 29 28 29 31 31 29 27 30 32 34 35 36 39 38 38 36 35 31 26 22 21 22 20 19 18 17 18 18 18 17 18
27 28 29 29 28 28 28 28 29 31 29 28 27 27 29 28 28 29 29 29 30 32 32 31 30 29 31 30 31 26 23 22 22 21 20 20 18 18 19 18 20 23 21

GFSMW_700_spd_078.txt.gz
Wind_Speed
25 26 25 24 25 24 26 24 26 30 23 23 23 24 28 36 32 29 28 27 25 29 30 29 28 28 26 25 25 23 21 19 19 19 18 18 19 20 20 21 23 25 25
28 29 28 25 29 27 26 26 26 25 28 28 28 16 10 17 26 31 29 29 28 29 27 27 27 26 25 26 26 23 21 19 18 19 21 20 19 20 21 22 23 25 25
24 26 28 28 27 29 27 26 27 27 23 19 25 30 25 26 27 27 24 27 30 29 28 28 25 25 26 27 24 22 20 18 15 17 20 23 23 25 24 27 28 30 29
27 24 21 21 19 17 18 20 25 28 27 25 30 30 29 23 24 22 24 27 26 27 25 25 26 25 26 25 24 24 21 18 14 15 17 24 29 33 35 31 31 32 32
28 24 22 19 18 16 17 17 18 20 23 23 25 25 24 27 29 23 25 28 29 30 28 25 22 25 25 25 24 27 25 22 15 18 26 30 32 32 36 36 31 34 33
26 25 25 24 24 23 23 21 18 20 20 20 20 22 25 26 26 26 24 25 29 29 22 30 26 29 24 26 23 34 38 35 32 26 32 33 33 33 34 38 36 33 32
27 23 21 24 28 28 28 28 27 27 29 28 25 24 25 26 25 29 29 30 40 28 26 23 30 31 29 23 16 17 21 27 25 30 35 30 29 31 33 38 39 38 34
22 19 14 14 17 20 20 21 24 30 30 29 29 27 25 26 29 30 29 30 31 27 28 26 28 31 34 35 23 21 21 22 24 26 24 26 29 34 36 38 39 38 37
20 17 15 17 17 17 18 20 20 26 29 29 29 27 27 26 27 28 28 27 27 27 28 26 24 26 24 17 22 19 22 24 26 26 28 31 34 37 37 35 35 36 38
16 14 13 13 14 15 17 18 20 21 23 26 27 27 28 29 30 29 26 25 23 26 27 24 21 23 25 22 23 25 29 29 30 32 34 37 36 36 35 33 33 34 35
12 12 13 13 13 15 17 20 21 23 25 28 29 29 29 28 28 28 29 27 27 25 23 25 27 27 28 31 33 33 36 36 35 38 39 38 39 38 35 32 32 33 34
8 9 10 12 13 12 13 14 15 17 20 21 23 25 26 26 27 29 30 30 30 31 30 31 32 31 30 36 37 37 37 36 38 39 38 39 37 35 35 34 33 32 33
5 6 8 10 12 15 16 18 20 21 23 25 25 24 24 25 27 29 30 31 32 33 34 35 35 35 36 38 40 36 35 37 36 37 37 36 35 33 33 33 34 33 32
7 10 12 14 16 19 22 23 27 30 32 32 31 28 30 30 30 31 31 32 33 35 37 39 40 40 40 38 36 35 35 35 35 34 34 33 33 33 33 34 33 33 33
13 16 18 21 24 27 28 28 26 25 25 28 30 32 33 31 30 30 32 32 33 34 35 35 35 35 34 34 33 32 31 31 31 31 31 32 32 32 32 33 33 33 32
19 21 23 26 29 31 30 27 26 26 26 25 26 29 30 31 29 28 28 29 30 31 31 31 31 31 30 30 29 28 27 28 29 29 30 31 32 33 33 33 32 32 30
23 26 27 27 27 28 28 26 25 25 24 25 26 27 28 29 29 29 28 26 26 27 27 27 27 26 26 25 25 25 25 25 26 29 30 31 32 33 33 32 30 28 27
26 27 27 26 26 26 27 26 26 26 25 23 24 27 29 28 29 29 28 26 24 25 25 25 25 23 24 23 24 24 26 27 28 28 29 29 28 26 28 28 26 24 22
27 27 27 26 26 28 29 29 27 28 28 27 25 25 28 30 30 29 29 29 29 28 27 27 25 25 25 25 25 25 27 28 28 28 27 26 27 28 26 23 21 19 17
27 29 30 30 31 33 36 35 32 32 31 30 28 26 26 29 32 32 32 33 32 31 30 29 28 27 27 27 27 26 27 27 28 28 28 28 29 25 22 19 16 13 11
30 32 33 34 35 36 37 36 35 35 34 32 30 28 26 27 30 32 35 36 35 34 33 32 30 29 29 29 29 27 29 29 30 30 29 27 24 20 17 15 13 12 12
30 30 30 29 30 31 32 32 31 32 33 32 30 30 29 27 29 32 33 35 37 37 37 36 34 33 32 31 31 31 32 31 31 31 27 23 21 17 14 14 11 12 12
29 29 29 27 28 29 30 31 30 29 31 33 32 31 30 28 29 30 31 33 34 37 38 38 37 36 35 34 34 35 32 33 32 29 27 25 21 17 16 14 15 15 14
29 28 26 25 23 22 23 27 29 29 29 30 33 32 30 29 29 32 33 33 33 33 35 36 36 35 35 36 37 36 36 35 33 30 29 24 21 19 18 17 18 18 17
29 29 28 29 29 28 27 28 29 28 28 29 31 32 30 27 29 30 31 32 32 32 32 33 34 34 35 37 38 38 39 40 36 31 27 23 22 20 19 19 19 18 16
33 35 37 37 38 38 37 35 34 35 33 30 30 31 29 27 29 30 29 29 30 30 29 29 31 33 34 35 35 32 34 30 29 26 22 22 23 21 20 20 19 17 17

GFSMW_700_spd_081.txt.gz
Wind_Speed
34 34 35 40 36 31 27 20 17 16 20 36 36 39 38 39 32 30 29 26 27 25 29 28 29 29 28 29 29 28 26 24 22 21 18 15 15 14 13 14 16 18 21
36 40 27 29 33 26 38 24 23 24 22 21 28 26 38 46 43 39 32 32 30 28 27 29 28 31 30 29 30 30 28 27 25 22 21 18 14 13 14 15 18 21 23
23 18 19 14 15 22 20 24 18 20 21 23 17 23 26 25 51 45 40 36 39 37 32 26 26 24 24 25 27 28 28 27 25 21 20 19 18 20 18 19 24 28 28
21 22 22 20 17 16 13 14 18 19 17 28 23 24 21 21 25 37 39 42 37 31 27 24 24 26 28 28 27 25 25 26 25 22 19 17 18 23 26 24 28 29 29
22 18 18 19 18 20 19 19 17 19 20 23 23 26 23 24 18 23 27 23 24 24 21 23 25 27 24 27 27 29 29 26 22 27 25 21 24 30 34 33 30 30 29
27 24 20 17 15 15 15 15 15 15 16 17 18 18 20 19 17 18 20 20 20 14 16 18 25 28 37 33 24 28 31 33 28 30 37 36 35 35 33 32 28 28 28
29 25 18 15 19 20 22 20 20 19 18 17 19 20 18 18 17 17 17 20 20 21 25 28 24 34 28 32 22 22 21 24 25 29 25 30 32 33 30 29 32 33 30
25 28 23 17 16 20 24 25 25 27 26 25 27 26 24 23 22 22 23 23 23 25 25 29 29 36 18 17 22 23 23 24 17 16 19 20 22 26 28 31 34 36 34
18 16 16 13 13 14 16 18 20 20 23 26 31 31 30 26 25 23 22 23 25 27 27 27 26 24 17 18 15 16 15 16 18 19 22 23 25 27 31 34 34 34 34
15 16 14 13 13 12 11 12 13 17 19 23 27 29 27 26 24 25 25 25 26 26 25 24 23 21 14 14 17 16 16 19 23 26 26 27 30 32 34 34 35 34 32
19 14 13 11 10 11 11 13 15 17 19 21 23 25 26 27 29 30 30 28 28 28 26 23 21 20 20 20 20 23 24 27 27 30 32 31 33 35 34 35 34 32 31
12 11 9 9 10 12 15 15 15 15 16 18 19 20 21 22 24 25 27 27 28 27 27 27 27 26 26 26 27 27 28 31 32 33 32 32 35 35 35 34 32 31 30
8 7 8 10 11 12 14 16 18 19 21 22 22 22 23 24 22 21 23 25 27 28 29 30 31 31 33 33 33 33 33 34 35 33 32 33 34 34 32 32 31 31 31
9 8 10 11 13 15 17 19 21 23 26 28 30 30 30 29 27 26 28 27 27 28 29 30 32 34 35 36 36 36 37 37 33 32 33 33 32 31 30 30 30 31 31
9 11 13 15 16 17 19 22 25 27 26 26 27 29 30 31 31 31 30 30 30 31 33 32 33 35 36 37 38 37 34 33 32 31 30 30 29 28 29 30 31 32 32
13 15 16 19 21 23 24 25 24 23 23 23 25 26 27 28 30 30 30 30 30 30 32 34 35 35 35 35 34 32 31 30 28 27 28 27 27 29 30 32 33 33 33
20 21 23 25 26 27 26 25 24 24 24 23 24 25 26 28 28 29 30 30 29 29 30 31 32 31 32 31 29 27 26 25 25 25 26 26 28 29 30 31 30 29 29
26 27 27 27 27 26 26 24 24 25 25 26 26 26 25 25 27 28 28 28 28 28 28 28 28 28 27 27 25 24 25 25 25 25 25 26 26 27 27 27 29 29 27
26 27 27 27 28 29 29 29 28 28 29 29 28 28 28 27 27 28 27 28 29 29 28 28 27 27 26 26 25 25 25 26 25 25 25 26 26 26 28 28 28 26 23
27 27 28 29 30 32 32 32 33 33 33 33 32 31 30 29 28 27 28 29 29 30 31 30 28 28 29 28 27 27 27 27 26 25 25 27 27 27 28 27 24 20 17
28 30 31 32 32 31 31 31 31 31 31 31 32 31 31 30 30 29 29 30 30 32 32 32 31 32 32 31 31 29 29 28 27 28 28 28 28 27 26 24 19 16 14
31 30 28 28 29 30 30 31 31 31 30 30 30 29 30 29 28 29 30 31 31 31 31 32 34 34 34 34 34 32 30 29 29 30 31 29 28 26 24 22 17 16 15
32 30 28 26 25 26 26 25 25 26 27 28 27 29 29 30 29 28 29 30 31 30 30 31 33 34 36 36 36 35 33 32 32 32 31 29 27 26 24 21 18 18 18
30 28 28 29 30 30 30 30 29 28 26 25 25 25 27 28 29 28 29 31 33 32 30 31 32 33 36 36 36 36 36 34 34 34 32 31 28 26 25 22 21 20 19
29 32 35 36 37 38 38 39 38 37 35 32 29 27 27 26 29 29 25 30 31 33 34 33 33 33 33 33 36 35 33 35 35 35 35 35 33 27 24 24 23 23 21
33 35 37 40 41 41 40 40 42 43 42 41 39 36 32 28 28 30 28 29 29 30 31 31 30 28 29 32 33 33 33 35 36 32 30 26 25 25 25 25 25 23 22

GFSMW_700_spd_084.txt.gz
Wind_Speed
41 38 37 45 39 38 28 22 26 28 43 60 37 40 37 30 28 30 31 30 32 31 30 30 30 31 29 29 28 28 29 30 31 29 26 22 20 20 17 15 15 15 16
39 36 38 46 43 38 28 25 19 28 26 56 55 41 42 41 36 30 31 31 33 34 33 27 29 29 29 30 30 31 31 32 34 31 30 25 23 21 17 16 17 18 19
31 33 36 25 44 45 35 37 29 25 24 52 52 40 45 43 45 44 40 36 34 35 35 32 31 30 29 27 27 27 29 31 34 33 30 28 24 24 21 20 20 22 25
22 26 26 38 32 32 23 31 35 37 19 19 28 38 36 52 55 50 44 45 41 43 44 39 38 39 33 30 30 28 29 30 28 28 29 26 26 27 26 26 25 28 30
16 16 14 7 16 8 4 3 10 8 20 10 16 25 16 19 27 45 46 54 51 51 45 40 38 35 28 27 24 29 29 37 29 31 25 24 22 25 29 30 33 35 34
18 15 14 13 9 14 10 8 9 11 10 11 14 22 24 15 18 18 16 17 56 36 37 26 21 17 23 19 21 29 30 36 31 32 25 30 29 32 39 40 40 41 34
8 16 15 15 17 14 10 8 8 7 8 10 12 13 12 12 14 13 14 13 15 15 19 22 26 21 18 19 25 22 25 28 30 18 17 23 29 30 29 32 34 31 29
19 12 15 20 8 6 10 13 13 13 15 16 15 14 14 17 17 16 17 16 16 17 20 22 22 21 18 21 24 17 19 18 22 23 24 23 21 22 21 23 26 28 29
19 17 16 18 10 9 12 14 16 18 19 21 22 23 23 22 19 20 21 21 22 21 20 22 23 22 22 20 23 19 21 23 19 19 20 20 20 23 25 27 29 32 34
11 13 17 14 10 10 9 9 10 12 15 16 19 21 24 26 25 25 25 23 24 25 24 23 23 24 24 23 17 15 18 14 14 15 18 22 24 27 29 31 32 34 33
15 14 10 8 10 12 10 9 9 10 13 15 18 20 23 24 25 25 26 27 28 29 28 28 27 25 24 23 21 17 16 18 18 20 23 25 27 29 30 31 33 33 34
9 8 8 8 9 9 9 10 11 11 12 14 17 20 23 26 28 28 28 28 28 28 29 29 29 28 25 25 26 23 22 21 23 25 27 29 30 31 31 32 32 32 32
12 10 8 7 7 8 9 11 13 14 16 17 19 21 21 22 23 23 23 24 25 26 27 29 29 30 29 30 28 29 28 28 29 29 29 32 32 31 30 31 31 30 31
9 8 8 9 9 11 13 15 16 18 20 21 22 23 25 27 28 28 28 28 29 28 28 28 29 30 31 32 31 31 34 33 33 33 34 34 32 31 30 28 28 28 29
8 9 10 12 15 16 18 19 21 23 24 26 27 28 28 29 30 31 33 33 33 31 31 31 31 32 33 33 33 34 35 35 36 37 34 31 30 28 26 25 25 27 30
15 16 17 19 21 22 24 26 28 28 27 26 26 27 28 29 31 32 33 33 33 33 32 32 31 32 33 34 34 34 34 35 34 32 30 28 26 25 24 25 27 30 31
18 20 23 25 28 30 31 31 31 30 29 28 28 27 26 26 28 29 30 32 33 33 32 32 32 31 31 32 32 32 31 31 30 28 26 24 25 25 25 26 26 28 29
25 28 29 30 30 29 28 27 28 28 29 29 30 30 29 28 28 29 30 30 31 32 32 32 32 32 31 31 30 29 29 28 28 26 25 25 26 26 26 26 26 27 28
27 29 31 32 32 31 30 29 28 29 30 31 32 33 33 32 32 30 30 31 31 32 31 31 32 31 32 31 29 29 29 29 28 27 26 26 26 26 25 27 27 28 28
27 28 30 31 32 33 33 33 32 31 30 29 30 31 33 35 35 35 33 32 32 32 33 33 32 33 33 32 31 30 30 29 29 29 28 27 26 26 27 26 26 27 26
27 30 32 34 34 32 31 30 31 32 32 32 32 31 30 31 33 35 36 34 34 33 33 34 33 34 34 33 33 32 32 32 33 30 28 27 26 27 26 26 25 25 24
32 34 33 32 31 30 29 29 31 31 32 32 31 30 31 32 31 32 34 34 34 34 34 34 34 34 35 35 35 35 34 35 33 31 29 28 28 27 27 26 24 23 22
34 33 30 26 27 30 32 32 32 32 32 31 30 29 28 27 30 30 31 33 34 35 34 33 34 34 35 36 37 37 36 37 35 34 31 31 29 29 29 27 24 23 22
31 29 27 31 33 35 37 39 39 39 38 38 36 34 33 30 27 27 28 30 32 34 35 34 33 33 33 36 36 35 37 38 37 35 35 33 32 32 31 28 25 23 23
33 34 36 37 37 38 39 41 42 42 41 41 40 40 38 37 35 32 28 29 28 31 33 35 37 39 38 35 36 38 37 37 34 38 36 34 34 34 33 31 30 26 25
37 38 39 41 41 41 41 40 41 41 41 41 40 40 42 41 39 39 35 32 30 28 32 35 37 40 39 39 38 36 36 35 34 37 34 35 35 37 33 29 30 28 27

GFSMW_700_spd_087.txt.gz
Wind_Speed
33 30 39 33 32 29 25 25 24 21 34 26 49 37 34 31 34 37 38 36 36 34 35 33 30 31 31 28 30 30 30 28 28 29 29 29 27 25 22 20 18 18 18
33 31 33 34 35 42 38 29 27 23 35 36 48 38 36 34 33 35 34 35 37 36 37 35 33 33 34 35 33 32 31 30 29 30 31 30 29 29 23 22 21 20 19
32 34 29 33 34 43 37 35 32 31 30 27 51 35 40 38 39 35 36 34 34 32 33 33 32 33 38 31 30 31 33 33 33 31 30 30 31 27 24 24 22 20 20
28 26 33 30 42 15 42 42 36 33 28 22 41 34 39 38 36 38 41 36 34 33 34 36 36 36 34 34 34 39 36 29 33 32 30 30 29 27 25 25 23 21 24
28 16 23 33 27 20 28 41 40 32 28 25 25 48 42 39 40 35 42 42 41 35 37 39 39 44 43 42 38 40 33 35 37 36 33 33 32 32 25 23 23 27 33
18 22 17 14 11 15 21 25 13 29 28 17 17 27 56 45 35 25 46 39 41 47 43 50 49 52 51 40 46 39 28 35 20 34 36 37 27 31 19 28 30 33 35
20 14 18 18 13 15 12 12 9 7 18 15 5 13 16 22 7 9 25 57 29 45 32 27 35 42 27 51 20 27 17 16 17 18 33 20 21 15 18 24 25 26 24
19 12 15 20 19 20 19 16 15 11 1 3 7 10 8 6 6 7 5 7 10 15 17 14 14 18 21 27 31 18 17 11 11 15 12 13 21 23 22 20 21 22 22
18 6 15 18 15 11 10 6 3 4 7 9 14 14 12 11 11 11 11 13 16 16 17 17 18 19 18 15 17 17 17 18 19 20 22 26 25 24 20 21 23 25 28
16 14 13 16 15 13 10 6 6 7 10 12 14 15 16 16 16 16 18 19 20 21 21 19 20 19 18 19 22 20 14 18 23 24 21 22 21 19 21 23 24 27 29
19 18 17 17 14 13 9 4 6 7 9 11 12 13 16 18 19 21 23 23 23 24 23 24 22 23 22 22 22 22 18 18 18 18 19 19 21 22 24 25 26 28 29
13 14 14 12 8 8 7 8 9 9 10 12 13 14 16 19 21 24 24 25 27 28 29 28 27 27 26 25 24 23 23 23 21 22 23 25 25 27 27 28 29 29 29
15 14 11 9 7 5 4 6 8 10 12 13 14 16 18 19 20 21 23 24 24 25 26 27 28 28 27 27 26 26 27 29 28 27 26 26 26 28 29 30 30 29 29
10 8 6 4 3 5 8 10 12 13 14 15 16 19 22 22 24 26 27 28 28 28 28 27 27 27 28 30 30 30 31 31 32 33 32 31 30 31 32 30 30 29 27
3 3 4 6 9 11 14 16 18 20 22 23 24 24 24 25 28 29 29 30 31 33 33 33 32 32 32 31 32 32 32 34 34 35 35 34 33 32 31 30 28 26 26
8 10 12 14 16 18 22 25 27 29 31 31 30 29 28 28 29 30 31 31 31 31 33 35 36 37 36 34 34 34 35 36 36 36 36 35 33 31 29 28 26 25 25
16 18 20 22 24 26 28 30 31 31 31 31 31 30 29 29 29 29 30 30 31 32 32 33 35 36 37 35 36 36 37 38 38 37 35 33 31 30 27 26 25 25 26
20 22 25 27 29 31 32 33 33 33 32 32 31 32 32 31 31 31 31 31 31 31 32 33 34 36 37 35 35 35 37 37 37 36 33 31 29 28 26 25 26 26 26
27 30 31 30 30 30 30 30 31 31 32 33 33 34 35 34 34 35 34 33 33 32 32 33 33 35 35 34 35 35 34 34 34 33 31 30 28 27 26 27 26 26 26
29 32 33 34 35 37 36 34 32 31 30 30 31 33 34 34 34 34 34 35 35 35 35 35 34 34 35 35 35 34 33 33 32 31 31 29 28 27 27 27 27 26 27
30 33 36 39 40 40 39 36 33 31 29 29 30 33 34 35 36 36 35 34 33 35 36 36 36 35 34 34 35 34 33 32 33 33 30 29 28 28 28 28 28 27 28
35 38 40 41 40 40 38 34 33 34 35 35 34 32 32 33 32 32 32 34 35 34 35 36 37 36 36 35 34 34 33 34 35 33 33 32 31 30 30 30 30 28 27
39 41 42 41 39 38 37 37 39 40 40 40 40 39 38 37 36 35 33 30 30 33 34 36 36 35 33 34 34 34 34 36 37 35 35 35 35 33 32 32 32 30 29
42 41 41 40 40 40 40 42 43 43 44 43 42 42 42 40 39 39 39 37 32 30 33 36 36 35 33 37 37 35 37 38 37 38 38 38 38 37 35 36 34 31 30
41 41 41 42 42 43 44 45 45 46 45 44 42 40 39 40 40 39 40 41 39 35 32 33 33 35 36 36 37 37 36 38 39 36 39 40 41 39 39 38 36 33 33
42 44 43 44 44 42 42 40 40 40 40 39 37 36 34 33 34 35 35 36 42 41 39 36 36 34 36 39 40 42 42 38 37 40 42 43 40 39 39 39 37 36 35

GFSMW_700_spd_090.txt.gz
Wind_Speed
29 33 29 30 29 38 33 27 28 28 23 23 28 25 39 41 37 35 33 31 33 37 37 37 35 33 32 29 27 26 27 25 25 25 26 26 27 27 26 25 23 21 19
29 29 26 27 27 35 31 29 30 30 24 26 26 23 38 34 34 35 38 39 33 32 33 35 33 32 31 30 33 29 29 29 27 28 29 30 30 28 30 28 25 23 21
30 25 26 26 25 31 34 26 33 24 25 27 32 30 37 33 35 35 36 34 39 35 35 36 34 34 34 34 34 32 32 32 33 30 31 32 32 28 28 30 24 23 22
19 18 21 24 21 24 27 32 35 37 31 28 26 36 44 40 36 32 35 35 40 38 38 34 40 40 34 34 32 30 32 29 34 33 30 32 34 33 33 32 25 27 25
11 16 18 19 28 26 31 24 36 33 18 28 25 24 36 45 38 41 34 36 40 42 37 35 32 33 32 33 34 33 36 41 39 31 31 42 42 35 34 33 33 30 27
16 14 21 21 22 22 23 27 29 32 38 22 17 23 34 28 44 38 36 34 40 39 41 34 35 39 40 44 40 44 45 44 47 53 52 36 36 35 35 35 37 28 24
13 11 17 22 18 20 19 22 9 33 35 20 17 26 23 38 30 34 26 26 44 36 39 37 40 41 38 44 52 54 55 54 48 34 32 28 40 36 19 9 8 13 17
15 9 20 17 18 20 14 14 15 14 23 18 32 11 17 17 6 21 30 30 9 26 27 12 37 45 41 34 35 43 41 43 55 15 18 17 13 11 7 10 20 18 18
9 2 10 12 16 14 17 14 11 11 9 4 2 6 6 4 8 5 6 6 7 7 11 12 17 21 16 19 13 18 20 28 23 12 18 14 15 20 21 23 19 20 19
17 6 7 12 14 19 14 14 9 8 4 1 2 5 9 10 10 10 12 12 13 17 17 24 24 23 18 18 18 18 15 10 15 18 25 22 23 26 28 23 18 20 22
9 8 8 18 19 16 13 12 7 4 3 3 5 8 11 13 14 13 16 18 18 20 21 22 24 22 21 21 21 19 21 19 21 23 23 22 19 20 20 20 22 23 25
17 15 9 15 12 13 10 8 6 3 2 4 7 10 13 14 15 16 18 20 21 23 23 24 25 25 25 25 25 25 23 24 26 23 22 21 20 19 22 24 25 26 28
14 16 16 13 13 7 4 3 1 3 5 8 10 12 14 15 16 17 20 22 23 24 25 27 29 29 29 29 28 27 26 25 25 27 26 25 24 24 25 27 27 27 29
14 12 9 7 5 3 3 5 6 9 11 12 14 16 16 17 17 19 22 24 27 28 28 29 30 29 29 29 30 28 28 27 27 29 31 31 29 30 30 29 30 31 30
6 5 4 5 5 7 9 11 14 16 18 20 21 22 22 23 24 25 26 27 30 31 33 35 36 35 33 33 31 30 31 31 31 33 33 35 36 35 35 34 34 33 31
5 6 8 10 13 15 17 20 22 25 27 28 29 29 28 28 29 29 30 31 31 33 35 36 38 38 38 37 35 34 34 34 35 36 38 38 37 37 38 38 36 34 31
12 14 16 18 21 23 26 28 30 31 30 30 29 29 29 29 30 31 32 33 33 33 33 34 35 36 38 36 36 36 36 37 38 38 39 39 39 38 40 38 35 32 29
19 21 23 25 28 30 31 31 31 31 31 31 31 30 29 29 30 31 32 33 35 36 35 33 33 34 34 35 36 37 38 39 39 39 40 41 41 40 38 35 32 30 28
20 21 23 25 28 29 30 31 34 35 36 35 34 34 34 34 33 31 31 32 34 36 37 38 36 35 33 33 34 37 38 38 39 40 40 40 38 37 35 32 30 29 26
22 25 27 28 29 30 32 33 33 34 33 32 31 31 34 35 36 36 35 34 35 34 35 38 39 38 37 35 34 36 37 38 37 38 38 37 34 33 32 30 29 27 25
28 31 34 37 39 40 37 33 31 30 28 27 30 33 36 37 38 38 36 33 32 33 34 34 36 37 39 38 34 34 34 34 34 35 35 34 33 32 32 30 28 28 27
32 36 38 40 42 42 42 40 38 37 35 34 35 36 38 39 40 41 40 38 35 32 31 33 34 34 37 38 36 34 33 32 32 33 33 33 33 32 32 31 31 30 29
37 39 41 42 42 43 44 44 43 44 43 42 42 42 42 41 41 40 41 42 41 38 35 33 32 33 34 36 37 34 33 32 33 34 35 35 34 35 35 33 33 31 30
41 43 44 45 45 44 45 45 46 46 46 45 44 41 40 41 41 41 41 40 39 39 39 38 36 34 33 32 35 35 34 36 34 34 35 35 36 37 36 36 35 32 31
44 45 47 47 47 46 46 45 44 44 44 44 41 39 37 36 35 34 35 36 35 35 37 39 39 37 34 31 30 32 37 38 38 36 38 40 38 38 37 37 36 33 35
47 48 49 49 48 47 46 44 41 41 41 41 39 37 36 33 31 31 29 29 31 30 31 34 38 39 38 33 32 33 38 36 41 43 39 38 39 41 38 36 36 37 37

GFSMW_700_spd_093.txt.gz
Wind_Speed
25 33 33 31 27 33 34 38 35 26 31 27 28 23 26 25 28 31 39 45 32 30 34 38 40 40 38 35 32 30 28 25 23 21 21 21 24 23 23 25 26 25 22
23 29 24 29 28 28 28 28 32 29 29 33 32 25 26 29 30 31 37 39 42 30 34 36 38 38 38 36 34 31 28 24 25 25 25 26 27 27 25 28 28 27 24
24 24 27 26 29 27 28 27 28 29 27 35 39 24 25 28 35 32 32 40 39 36 32 34 37 37 36 35 33 30 29 25 30 33 26 27 29 29 29 30 29 29 26
26 28 23 19 26 26 25 24 24 23 26 35 32 26 22 30 34 36 32 34 37 39 41 37 34 34 34 34 32 28 29 32 34 31 29 28 29 29 32 30 32 30 30
22 22 23 21 23 24 21 21 21 22 25 27 41 38 31 28 35 29 34 39 37 38 37 41 32 31 33 32 33 34 34 33 29 27 30 31 33 36 30 39 45 39 37
21 18 19 21 21 22 25 25 24 19 19 30 32 32 28 24 38 38 35 32 42 34 32 36 39 38 36 36 31 40 42 37 41 40 36 43 48 49 43 41 46 41 35
20 19 13 22 22 23 26 24 20 19 18 22 25 17 10 15 28 32 32 37 27 38 32 38 39 43 46 37 29 38 37 39 44 52 58 53 51 52 53 44 37 26 20
12 8 7 13 19 20 24 22 18 12 11 13 19 23 19 27 21 25 34 26 32 35 36 33 45 45 47 45 37 38 45 45 50 49 51 54 51 57 38 44 37 18 19
20 10 11 14 19 18 15 16 13 12 4 11 16 29 5 9 14 17 6 4 37 21 8 39 49 42 47 34 33 34 29 32 36 40 37 41 41 40 29 18 16 15 23
18 8 8 11 18 16 16 15 14 10 8 9 9 9 6 3 4 2 8 6 6 12 16 19 17 19 21 25 25 23 23 18 16 21 25 24 23 18 16 16 22 24 26
7 10 2 13 20 22 20 17 12 10 8 6 4 3 1 3 5 7 8 13 16 20 21 24 25 26 28 20 21 22 22 26 21 15 20 19 22 27 30 31 30 29 22
14 8 15 17 17 19 16 15 9 8 6 4 2 2 3 5 8 10 13 16 18 20 22 24 24 24 23 25 25 26 27 29 28 26 24 24 26 30 32 27 23 21 23
10 13 15 16 19 14 11 7 4 2 2 3 5 6 9 11 12 14 16 19 20 22 24 26 28 29 30 30 30 31 31 30 29 28 31 30 31 31 29 26 24 26 27
17 16 14 11 8 5 2 1 2 4 6 8 10 12 14 16 18 20 22 24 25 27 28 29 29 30 30 30 30 31 30 32 32 32 31 32 33 31 31 30 29 28 29
9 7 4 2 1 3 6 8 11 13 14 16 18 20 22 23 25 27 28 29 30 32 32 33 33 33 34 34 34 33 32 33 34 34 34 33 35 35 37 35 34 33 33
2 2 4 7 10 13 15 18 20 22 24 26 27 28 29 30 31 32 34 36 37 37 37 38 37 37 37 38 39 39 37 36 36 36 37 36 37 37 39 38 40 39 37
8 11 14 16 17 20 22 24 26 28 28 28 29 30 29 29 30 32 33 35 37 39 40 40 41 40 39 39 39 40 41 42 40 39 39 39 39 39 40 40 40 39 38
16 19 20 22 24 26 27 28 30 31 32 33 34 35 35 35 34 33 33 34 36 38 40 41 42 42 40 39 40 40 41 41 42 41 41 41 40 41 39 39 40 40 40
17 19 22 24 26 29 31 33 34 35 37 38 38 37 36 35 35 35 36 37 38 39 38 40 42 43 43 40 40 41 42 41 41 40 41 42 42 41 41 39 40 43 42
20 22 24 26 28 31 33 34 36 38 40 37 36 35 36 38 39 41 41 40 40 40 41 43 44 44 44 43 43 41 42 43 41 40 40 40 40 42 42 41 41 40 37
23 25 27 29 30 31 31 31 29 28 30 32 34 35 38 40 41 44 46 46 44 42 40 39 40 42 43 42 42 43 43 42 40 39 38 38 38 39 39 37 38 36 37
28 31 32 34 36 38 38 37 37 37 36 35 35 36 39 42 44 46 46 45 46 46 42 41 39 37 37 39 41 41 41 42 40 38 35 34 36 37 37 38 36 37 36
31 33 35 36 37 39 41 44 43 44 44 43 40 37 37 37 38 41 42 42 43 43 43 39 38 38 38 36 35 37 39 39 39 36 33 34 36 35 37 38 37 37 35
34 36 38 40 41 41 42 43 44 44 44 44 42 39 36 35 35 36 36 38 39 39 39 40 37 37 36 37 36 32 31 35 39 39 38 38 37 38 39 39 41 39 35
37 40 42 44 45 44 43 42 43 43 43 42 41 39 36 34 32 31 32 33 34 34 34 34 34 34 35 34 34 33 28 29 35 41 40 43 38 38 38 40 42 39 38
40 43 44 45 46 45 45 43 43 43 42 41 38 36 35 33 31 29 28 27 29 29 30 29 29 29 31 32 31 33 33 33 28 40 45 42 47 44 39 37 37 36 35

GFSMW_700_spd_096.txt.gz
Wind_Speed
44 39 51 42 38 39 35 29 31 31 29 23 26 31 27 28 28 33 29 27 29 40 43 43 41 41 39 38 37 37 37 33 30 28 26 24 23 21 18 19 23 21 24
27 28 40 39 35 33 32 31 29 27 31 28 25 27 30 30 33 33 30 31 32 36 48 40 40 43 41 42 41 40 37 34 32 29 27 27 25 23 26 26 28 22 27
17 23 29 31 26 29 30 27 25 26 28 30 30 27 29 33 30 34 34 35 36 39 44 40 37 38 41 42 41 39 37 35 33 30 29 29 29 27 28 30 25 25 28
14 18 23 26 26 23 28 29 26 26 27 26 24 24 30 35 31 37 31 31 37 43 38 42 35 35 37 39 39 39 38 35 32 33 33 32 33 34 35 27 26 25 27
15 18 20 21 22 24 26 25 24 24 25 25 23 28 31 34 37 31 30 36 32 36 41 50 41 39 39 40 39 40 39 36 35 37 40 37 32 32 27 28 30 32 32
14 15 18 21 23 21 25 25 23 22 22 23 22 25 21 29 38 40 36 35 40 36 36 44 42 43 44 46 42 38 39 39 40 39 40 39 39 40 39 32 37 40 48
15 16 17 17 23 25 24 24 25 26 25 23 21 19 24 27 40 28 34 35 38 30 36 39 44 47 47 37 38 38 39 40 41 45 49 40 54 55 48 53 50 50 52
10 14 16 17 23 22 20 22 21 23 22 16 19 24 20 29 33 30 23 28 31 28 35 34 39 38 45 44 39 45 44 45 51 45 34 39 51 54 53 52 47 47 49
8 10 10 11 10 15 13 15 18 22 17 16 16 19 25 22 16 21 31 21 20 34 25 34 30 29 33 40 46 44 44 48 44 45 48 51 52 45 51 43 40 39 47
13 18 9 13 22 17 20 19 20 11 10 10 17 19 19 7 7 6 11 6 1 27 28 34 28 42 40 40 38 46 49 44 48 36 24 33 40 42 39 34 26 34 36
10 11 9 16 21 22 22 22 19 11 8 6 6 5 6 7 2 1 0 3 6 8 11 14 16 20 22 29 36 31 32 35 30 33 26 24 25 25 27 16 12 20 24
9 11 14 13 18 19 20 20 18 14 10 9 4 3 4 5 4 6 9 11 13 14 17 20 22 21 20 21 25 25 23 25 27 28 28 27 23 26 25 24 29 34 33
19 23 24 25 23 21 16 15 12 6 4 2 0 3 5 6 9 11 13 15 16 18 20 23 25 25 25 26 27 27 29 30 31 32 31 30 31 31 33 31 34 34 36
18 18 16 13 11 9 7 4 3 4 6 7 10 12 13 14 16 17 19 20 22 24 26 27 28 28 28 30 32 34 35 36 36 36 37 37 36 40 40 41 35 36 30
11 9 7 6 5 5 6 7 9 12 14 16 18 20 22 24 26 27 28 29 30 30 31 32 33 32 34 36 37 37 37 38 38 39 39 40 40 41 38 41 36 36 35
3 4 5 7 9 11 13 16 17 20 22 24 25 27 28 29 30 32 34 36 38 39 39 39 39 38 39 39 40 41 42 41 42 41 40 40 41 42 41 38 38 37 38
7 10 12 14 16 18 20 21 23 25 26 28 29 29 30 33 34 34 35 37 38 40 42 42 43 43 44 43 43 42 42 43 44 44 44 42 42 42 43 42 40 43 44
14 16 18 20 22 23 24 27 29 30 31 33 35 37 38 38 39 40 41 41 41 41 42 45 46 47 46 45 44 44 46 43 42 44 44 46 45 45 42 46 44 46 43
16 18 21 23 25 27 28 30 33 35 37 38 39 41 41 41 41 41 43 45 46 47 47 47 48 50 51 49 48 46 46 46 45 42 42 44 46 47 47 43 41 41 44
21 23 24 26 28 29 31 32 33 35 38 39 40 41 43 44 44 45 47 47 49 50 52 53 52 51 53 52 51 50 50 49 47 46 44 42 43 45 47 42 41 42 43
22 23 25 27 29 32 34 35 36 38 41 41 42 42 42 43 45 47 49 52 54 55 55 55 53 51 49 48 46 43 45 48 49 48 46 44 41 42 44 45 50 49 41
24 26 28 30 32 34 36 38 39 41 42 42 42 42 42 43 46 48 48 49 51 53 56 56 54 49 45 43 44 44 41 41 44 47 47 43 39 38 41 43 41 43 44
27 29 31 33 35 39 42 44 45 47 48 49 49 47 43 40 39 43 44 46 46 47 47 48 49 47 43 41 40 41 42 40 38 41 43 41 37 39 39 40 38 41 43
31 33 36 39 40 42 43 44 47 48 50 51 51 50 49 46 42 39 40 40 40 42 42 43 43 41 40 37 36 39 38 38 37 34 35 37 40 40 39 43 42 41 41
34 37 40 41 41 43 44 45 47 50 52 52 52 50 48 46 42 38 38 38 36 35 35 34 36 36 34 31 32 36 37 37 36 33 33 35 41 39 43 39 41 42 42
37 39 40 42 43 44 46 47 48 49 49 49 48 46 45 42 40 38 36 33 34 31 31 30 30 30 30 27 27 29 32 35 34 34 35 35 39 48 42 38 44 40 41

GFSMW_700_spd_099.txt.gz
Wind_Speed
31 34 48 48 46 38 34 29 27 26 26 29 23 21 29 30 31 25 25 30 29 32 39 46 39 46 42 32 39 41 41 39 35 35 33 30 29 27 24 23 23 21 20
21 23 31 41 45 41 35 34 29 25 25 28 30 32 27 27 30 26 25 26 31 32 34 41 40 47 47 40 39 43 41 40 38 37 35 35 33 29 26 26 24 25 26
14 13 21 34 36 33 33 35 34 31 29 31 32 34 34 29 28 28 29 31 35 34 41 41 43 44 44 43 44 43 40 42 39 39 38 38 35 30 29 27 26 26 32
8 10 15 26 29 31 29 35 36 34 28 30 30 30 34 33 31 29 27 30 30 36 41 41 40 43 42 39 44 46 46 43 41 40 40 39 36 33 33 31 30 30 35
7 11 17 23 25 27 27 29 32 29 26 27 27 26 30 30 28 30 33 30 35 35 38 40 49 44 43 44 41 44 43 41 40 41 39 38 38 39 41 40 43 35 40
7 11 15 20 24 24 23 24 28 24 25 25 25 26 27 28 29 29 31 30 32 37 41 39 47 45 43 41 39 41 42 41 42 42 41 41 42 41 44 45 48 42 29
8 11 11 16 19 20 22 22 25 25 23 24 23 25 27 27 29 31 25 28 29 28 31 42 38 45 45 46 43 45 47 45 46 47 45 46 46 48 45 53 58 51 47
2 5 8 11 12 16 21 22 24 24 25 23 23 25 29 25 25 29 26 24 28 33 32 36 31 33 52 53 50 56 52 49 49 53 47 48 48 48 46 54 50 49 50
4 8 10 14 12 10 15 16 19 18 18 19 18 19 22 20 27 27 29 27 29 29 19 27 31 30 34 44 52 47 53 57 55 49 41 49 51 50 50 59 54 46 51
11 11 8 10 11 11 12 12 13 14 17 18 19 10 15 16 15 18 18 17 21 24 27 26 34 30 28 24 31 39 44 48 45 45 51 43 49 54 47 41 46 47 55
13 16 17 13 15 17 14 18 20 15 13 12 9 6 6 10 14 2 5 6 6 5 7 16 17 22 31 34 36 42 43 38 36 35 43 46 48 44 35 42 45 47 43
9 11 12 13 21 21 21 25 24 18 12 9 7 7 6 4 5 2 4 7 10 12 13 15 17 18 19 17 19 20 22 29 30 32 35 37 31 36 34 34 33 35 25
22 24 23 24 23 22 19 18 15 11 10 3 4 5 7 6 8 10 12 14 16 17 18 19 21 22 23 23 24 26 26 25 25 25 25 31 31 30 31 27 32 27 26
19 19 19 18 16 15 13 11 7 4 4 7 10 12 14 15 16 18 20 21 23 24 25 26 26 27 28 29 30 31 32 32 33 34 34 36 37 36 34 34 33 35 38
11 11 10 8 7 7 7 7 9 11 12 14 17 19 21 23 25 26 27 29 30 32 33 34 35 35 35 35 35 36 36 37 38 38 39 40 41 41 39 39 39 37 46
5 5 5 6 8 9 11 14 16 17 20 22 24 24 25 27 30 32 34 35 35 36 37 38 39 40 41 42 42 42 42 42 42 42 42 43 42 42 44 44 44 46 49
8 10 11 12 14 15 16 17 19 21 23 24 26 28 29 31 32 33 35 37 38 40 41 43 44 44 45 46 46 46 46 46 47 46 45 46 46 46 46 45 47 46 44
11 12 13 15 17 18 19 22 24 26 28 30 32 35 36 37 39 40 42 43 44 45 46 46 48 49 48 49 49 50 51 51 48 48 48 49 47 47 49 48 48 48 42
13 15 18 20 23 26 27 29 32 34 35 36 36 38 40 41 42 45 46 48 50 51 51 52 53 54 53 52 53 53 52 52 51 50 50 49 49 48 48 49 50 49 46
19 21 23 25 27 29 30 33 34 36 38 39 40 41 43 43 43 44 45 46 48 51 54 56 57 59 59 58 55 52 53 54 53 51 49 51 51 49 47 47 47 48 47
22 23 26 29 31 33 34 34 36 38 39 40 40 41 42 45 46 47 47 47 46 47 49 51 55 60 63 62 58 54 52 52 52 49 44 45 48 50 47 46 46 46 41
24 25 26 29 31 34 35 37 39 42 44 45 46 45 45 46 47 47 48 49 49 49 49 51 52 53 53 54 53 49 44 44 48 47 44 41 39 43 45 43 43 44 49
25 27 28 30 33 37 39 40 41 43 44 45 47 48 49 49 48 48 47 46 45 46 47 48 50 51 48 45 45 42 41 40 41 42 42 40 37 37 40 44 47 45 46
27 29 30 33 34 36 38 41 44 46 47 48 47 45 46 45 44 44 43 43 43 43 43 43 44 46 45 39 37 36 37 37 38 40 39 38 35 33 35 39 45 49 42
29 31 34 35 36 39 40 41 42 43 42 40 41 43 44 44 44 42 40 39 37 39 40 39 39 39 39 36 30 30 31 34 35 36 36 37 35 31 32 37 47 46 44
31 33 34 36 37 39 39 39 39 37 38 40 41 42 43 42 42 41 38 33 33 34 35 35 36 36 34 34 30 28 29 29 30 31 32 34 37 30 33 35 41 47 41

GFSMW_700_spd_102.txt.gz
Wind_Speed
29 28 29 30 38 49 39 32 28 28 27 25 25 25 28 24 28 21 23 26 29 25 26 28 30 39 44 44 50 46 42 45 39 39 39 36 35 33 28 25 24 23 23
24 24 24 24 31 46 46 36 29 26 24 25 24 24 26 25 25 28 26 27 29 27 24 28 31 33 40 44 45 38 38 40 42 41 41 41 40 37 30 29 27 25 25
12 14 19 23 24 35 48 40 33 28 25 24 22 25 28 31 28 25 24 26 30 31 30 27 30 36 40 39 38 39 39 51 47 43 43 45 45 34 34 33 30 28 26
7 10 17 22 25 29 37 41 35 31 31 30 28 28 30 30 31 33 31 27 29 31 30 29 26 35 42 42 45 39 34 36 37 39 49 48 44 41 39 36 34 32 31
7 11 12 17 21 24 31 32 34 31 31 31 31 31 31 29 28 29 32 30 28 30 35 36 29 34 32 46 53 48 44 44 43 45 44 50 47 44 41 38 35 37 36
8 4 8 13 20 26 28 29 30 30 31 33 32 32 29 27 28 27 28 30 32 33 34 29 33 35 41 43 50 51 48 46 43 53 53 49 48 46 44 41 41 41 41
14 3 4 6 13 18 23 23 26 29 30 29 30 30 26 26 26 28 30 31 32 30 30 27 26 33 36 40 41 49 49 47 42 51 48 51 51 46 43 43 44 45 44
10 6 2 3 7 10 14 17 19 22 24 25 25 25 25 26 28 30 31 35 28 28 28 29 30 32 36 41 43 44 46 51 46 50 52 52 50 48 48 47 48 48 48
3 4 6 4 7 5 8 13 15 13 16 20 22 22 22 21 22 23 26 32 27 29 29 34 27 30 20 29 40 39 50 48 53 48 50 51 52 50 52 56 53 50 54
6 4 7 5 5 7 6 11 8 11 15 15 15 17 17 17 18 15 16 16 20 25 27 30 33 25 24 21 27 18 27 47 46 51 55 57 50 50 52 57 49 49 51
6 6 12 11 9 8 8 7 10 12 17 15 12 18 15 22 20 19 15 7 14 16 11 15 13 20 23 27 27 31 26 25 29 44 46 51 52 60 56 56 54 54 51
13 13 3 9 12 17 13 15 14 15 10 18 20 6 3 3 7 12 13 6 11 14 16 17 17 14 14 17 17 19 19 21 25 40 42 40 39 43 45 40 43 44 40
21 22 22 22 23 20 18 15 13 15 12 7 6 10 10 10 11 15 18 14 16 18 17 20 21 20 19 21 23 24 25 24 26 23 27 24 30 31 37 33 33 40 35
15 16 17 19 20 19 18 17 17 15 14 11 9 11 13 16 17 19 22 22 22 26 28 27 27 28 28 28 28 27 28 29 31 32 33 32 30 30 31 34 34 32 34
9 10 11 12 11 10 11 11 10 10 12 14 16 18 20 22 23 25 27 27 28 30 33 33 34 35 35 36 36 36 36 35 35 35 36 37 39 40 40 40 39 36 35
7 8 9 10 11 13 13 13 14 15 16 17 19 21 23 26 27 29 30 31 33 35 36 38 39 40 42 41 42 42 42 41 42 42 42 42 41 42 43 44 45 44 42
10 10 12 13 14 15 16 17 18 19 20 20 22 24 25 28 30 32 34 36 37 38 40 41 43 43 45 47 48 49 50 49 48 47 47 48 48 47 46 46 46 45 46
12 11 12 14 15 16 17 19 21 24 25 27 28 30 32 33 35 38 40 42 44 45 47 48 50 52 51 52 52 53 54 54 53 54 53 52 50 49 51 51 50 49 49
13 13 15 17 19 21 23 24 27 28 30 31 33 35 37 38 40 41 42 43 44 44 45 48 51 54 55 57 59 61 61 60 58 56 54 54 54 52 51 52 52 52 52
14 16 18 21 23 25 27 29 31 33 35 36 38 40 41 42 42 43 44 45 46 46 47 47 47 49 52 54 57 59 62 63 61 57 54 53 54 52 51 54 52 52 51
18 19 21 23 26 29 30 33 35 36 37 38 39 40 41 42 42 41 40 40 41 41 40 41 41 43 46 49 51 53 55 58 59 58 55 49 47 47 46 47 52 53 50
20 21 24 27 29 31 33 35 36 36 37 38 38 38 37 36 38 40 40 41 41 43 43 43 40 39 40 43 46 49 50 49 51 52 50 46 39 40 43 43 41 43 48
21 23 26 28 31 33 35 35 37 37 37 37 37 37 37 39 38 40 41 41 40 42 42 41 41 39 37 36 38 42 43 41 42 42 43 41 38 36 39 40 39 40 42
23 26 28 29 32 34 35 37 37 37 36 36 37 39 39 40 40 41 42 42 42 42 41 41 40 39 37 34 33 35 36 33 34 36 37 38 37 34 36 39 39 39 41
24 26 28 30 32 32 33 34 35 35 35 36 38 38 39 40 40 39 39 40 39 41 40 38 38 38 36 33 31 31 32 30 30 31 32 33 33 32 33 35 37 34 41
26 28 31 31 32 32 32 32 33 34 35 36 37 38 39 39 39 39 38 35 37 37 37 36 34 34 35 34 32 31 30 30 29 29 29 28 28 29 30 31 32 34 35

GFSMW_700_spd_105.txt.gz
Wind_Speed
31 31 32 38 42 41 36 50 45 42 42 40 37 33 30 26 23 22 24 27 27 27 27 26 22 27 29 31 33 37 37 42 43 35 44 46 46 41 37 32 29 26 24
25 25 24 28 33 33 30 50 46 47 40 36 35 30 26 26 29 29 28 29 28 27 26 26 24 22 28 27 31 36 40 40 41 40 38 51 50 49 37 35 34 29 28
21 18 17 21 25 28 24 39 43 39 46 39 35 29 26 26 26 26 25 30 33 28 26 26 26 29 29 31 29 32 36 37 37 40 37 43 51 43 39 39 37 35 33
21 18 16 19 23 23 20 31 38 38 23 24 29 27 23 21 24 27 30 32 32 30 26 25 27 27 31 27 31 35 37 38 38 38 38 47 48 49 47 41 38 40 32
24 29 28 19 21 22 25 28 38 33 31 29 28 26 27 28 25 26 29 31 33 34 32 31 29 33 32 33 29 32 37 42 45 43 40 44 42 51 48 45 42 41 38
25 17 6 3 9 13 19 26 34 33 32 30 30 31 31 30 28 27 28 28 29 31 33 34 34 36 37 35 35 33 37 38 45 48 48 46 42 42 48 49 46 43 41
17 16 8 6 5 11 17 24 28 29 30 31 31 31 32 31 28 27 29 29 29 31 31 32 32 33 35 32 32 31 33 38 43 50 53 54 53 48 49 51 48 47 46
10 11 12 6 2 9 11 17 21 23 25 28 29 27 27 27 27 28 28 28 29 29 31 29 28 28 33 35 33 31 32 33 39 42 49 59 56 55 54 56 52 48 52
7 8 6 4 6 8 10 13 13 15 17 23 19 19 21 22 25 24 27 27 24 30 27 26 26 32 34 30 25 21 26 30 35 37 46 50 48 49 49 50 49 51 51
4 2 3 3 1 2 4 6 10 14 14 14 15 17 21 19 18 18 20 25 21 20 17 30 27 21 28 29 27 23 20 30 26 26 38 44 46 51 55 52 49 49 55
6 6 4 6 3 4 5 11 8 12 13 16 17 17 17 18 21 25 17 19 28 27 20 19 23 19 18 24 24 26 29 25 27 19 25 45 43 40 52 54 52 56 56
19 11 5 3 8 9 7 8 8 16 10 17 12 15 21 20 23 29 31 16 17 13 7 14 16 16 16 17 17 16 18 19 14 23 23 25 30 29 49 50 58 63 59
16 18 18 19 19 15 10 2 5 10 13 16 8 4 1 6 9 12 16 14 16 18 20 21 21 22 22 22 23 24 24 23 24 26 23 26 23 24 28 35 37 38 40
10 11 11 13 14 14 14 13 11 9 8 7 9 14 14 14 15 16 18 20 21 23 25 28 28 29 29 29 29 30 29 30 30 30 31 31 31 30 29 29 29 34 34
6 7 8 9 10 9 10 10 10 10 11 11 13 14 16 17 19 20 22 24 26 28 28 30 32 34 35 35 36 36 36 37 37 38 38 38 38 38 38 39 38 34 33
7 8 9 10 10 10 11 12 13 13 14 14 16 18 19 21 23 25 27 28 30 32 33 35 37 38 39 41 43 44 42 43 43 43 44 45 45 46 45 44 43 44 42
12 12 11 11 11 12 13 14 15 16 17 19 20 21 23 25 27 30 32 34 36 38 39 41 43 43 44 46 47 48 49 49 49 49 49 50 49 50 52 52 51 49 48
14 14 13 13 14 15 15 16 17 19 20 22 24 26 28 30 32 34 36 37 38 39 40 41 43 46 47 49 51 53 54 55 54 55 55 54 54 55 55 57 57 57 55
14 14 14 14 15 16 18 20 22 24 25 27 29 30 32 34 35 36 36 36 36 36 37 38 40 41 42 45 47 50 53 55 58 58 57 57 57 55 56 58 59 59 60
15 15 15 16 17 19 21 23 24 26 29 30 32 34 35 36 35 35 35 35 38 37 37 37 38 38 38 38 39 41 45 47 49 53 57 59 60 56 52 54 59 61 57
16 17 18 19 21 23 24 26 29 32 33 34 36 37 37 37 37 36 38 38 38 38 38 38 34 34 35 35 36 37 40 43 45 48 50 52 53 52 49 42 46 51 55
18 19 20 21 23 25 28 30 32 33 34 35 35 34 34 35 36 37 37 37 39 40 39 38 36 35 36 36 38 40 40 40 42 43 44 46 48 47 44 42 38 41 46
20 21 22 22 24 27 30 33 33 34 35 34 33 33 34 35 37 38 38 37 38 39 39 39 39 38 35 34 35 37 37 37 37 38 38 38 38 40 38 37 36 41 46
22 22 22 25 28 31 33 34 34 34 34 34 34 33 34 35 36 37 37 36 37 39 40 39 39 38 37 33 33 32 32 31 32 32 32 33 34 35 35 34 33 39 41
22 22 23 26 29 32 33 33 32 32 32 32 32 33 34 36 35 34 35 36 37 40 42 42 41 39 38 34 32 31 30 29 30 32 32 31 30 31 30 30 30 35 34
22 23 25 27 30 30 31 31 32 31 31 31 32 33 35 36 36 35 33 34 37 37 36 37 39 38 35 33 31 29 27 28 29 30 31 30 29 29 27 25 26 29 29

GFSMW_700_spd_108.txt.gz
Wind_Speed
36 35 32 30 32 35 42 44 46 48 54 52 51 50 45 42 35 30 28 27 26 23 28 23 29 31 32 28 32 32 33 35 36 38 40 42 33 40 46 44 42 37 34
30 30 31 31 30 30 34 35 38 41 51 47 48 48 45 40 35 31 28 28 28 24 32 32 31 31 30 30 28 30 30 32 36 40 37 41 44 49 41 42 51 51 42
26 30 31 30 27 26 24 26 30 33 48 42 44 43 42 40 36 32 31 29 30 31 33 32 30 29 31 29 29 26 29 32 33 32 35 40 43 35 37 41 45 47 42
24 26 29 33 30 25 27 25 24 26 39 39 42 39 39 36 33 35 32 29 27 28 31 32 31 32 29 28 27 28 27 31 34 34 36 36 38 36 35 38 41 54 43
26 23 21 26 16 19 22 24 23 24 39 41 42 43 42 38 35 31 30 31 32 33 34 34 33 33 31 31 32 32 32 33 33 37 39 38 39 39 42 40 39 42 45
21 21 16 13 13 12 12 16 21 28 36 38 46 38 29 33 31 30 29 28 30 32 34 36 37 37 36 34 35 36 37 37 38 39 36 41 43 44 42 45 42 43 46
21 13 13 10 11 10 7 4 13 24 31 21 14 15 19 24 27 28 28 28 31 32 34 33 33 33 35 37 35 35 38 36 36 39 44 41 48 42 45 48 48 48 47
15 14 12 11 9 4 4 4 9 16 20 25 18 18 21 23 25 26 29 30 32 32 34 34 34 35 34 33 35 34 35 37 38 41 37 35 40 47 43 51 49 53 48
12 13 7 9 7 2 1 8 12 12 20 24 22 20 22 26 25 26 27 29 31 32 31 32 34 33 36 33 35 33 33 34 29 37 30 40 34 41 41 43 54 55 53
11 10 5 3 4 3 2 4 7 8 12 14 14 18 24 25 26 24 22 22 29 27 27 28 28 31 34 31 33 33 31 36 38 29 29 31 29 33 40 43 46 49 50
14 10 5 6 4 4 2 3 4 9 6 12 13 13 15 15 21 22 23 23 23 24 28 26 25 27 21 26 30 29 28 32 31 27 30 35 24 24 40 39 37 37 42
20 18 13 8 1 3 4 12 7 9 6 11 18 14 22 25 13 17 23 28 32 32 30 29 34 25 19 19 21 26 23 27 29 21 25 27 31 31 30 26 25 41 41
12 12 13 14 15 12 8 4 1 1 5 7 7 9 11 10 8 6 6 9 12 16 16 16 19 21 25 25 26 26 28 29 28 28 29 29 27 26 24 26 27 30 30
7 8 8 9 10 10 11 11 9 8 7 7 6 9 12 13 14 13 15 17 19 21 22 23 26 28 30 31 32 33 33 34 34 34 33 34 33 33 34 33 33 31 30
9 8 8 8 7 6 6 6 6 7 8 9 10 12 14 15 17 18 20 21 23 24 26 27 30 31 33 36 36 37 38 38 38 39 40 40 41 41 41 40 38 40 42
11 11 10 9 8 8 8 9 10 11 12 13 15 16 17 19 21 23 24 26 27 29 31 33 34 36 38 41 43 44 45 44 44 44 45 45 46 47 48 48 49 47 46
14 13 12 10 10 11 12 13 13 14 16 18 19 20 21 22 24 25 27 29 31 33 34 36 37 38 39 41 42 43 45 46 46 47 48 48 50 51 52 53 54 54 54
17 16 15 13 13 14 14 15 16 17 18 19 21 23 24 26 29 30 32 33 33 34 34 35 37 38 40 42 44 46 47 47 46 47 47 48 48 48 52 55 57 58 58
18 17 16 16 16 16 17 18 18 20 21 23 26 27 28 29 31 31 32 33 32 34 35 37 38 41 41 42 44 45 46 47 47 47 47 49 50 49 49 51 54 57 60
18 18 18 19 19 19 19 20 22 23 25 27 28 29 30 30 31 31 32 33 33 34 36 36 37 37 37 37 38 39 41 42 43 44 45 46 48 51 53 55 56 57 52
19 19 20 20 20 20 21 22 24 25 27 28 29 30 31 32 33 33 34 35 36 37 37 35 34 35 37 36 37 39 40 41 41 41 41 43 45 47 50 51 55 57 57
19 20 21 21 22 22 23 25 26 28 29 29 30 32 33 34 33 33 34 36 37 36 35 35 34 35 35 35 36 36 35 36 39 38 38 37 36 37 40 44 46 47 49
22 22 22 23 24 24 25 26 28 29 29 29 30 31 33 34 34 35 35 36 36 36 36 38 38 37 35 35 35 36 37 36 36 35 35 34 34 34 34 36 38 40 41
23 23 23 24 25 26 27 28 28 28 28 29 30 31 31 32 33 35 36 35 34 35 37 38 40 40 39 37 35 34 34 34 34 32 31 31 31 30 32 34 35 36 39
22 24 25 25 26 27 29 29 29 28 28 29 30 30 31 32 32 33 33 33 34 36 38 39 41 42 42 38 36 34 33 31 31 32 30 30 30 30 31 31 32 32 34
23 25 25 26 27 29 31 30 29 29 29 29 30 30 32 33 33 34 30 32 34 34 35 36 39 41 42 42 38 35 33 30 30 32 32 30 31 31 30 30 29 28 30

GFSMW_700_spd_111.txt.gz
Wind_Speed
31 31 34 37 36 34 36 37 36 35 40 47 48 54 53 48 47 44 41 36 37 35 36 37 41 40 12 23 27 29 29 32 31 33 35 35 35 35 38 35 38 44 44
28 26 29 33 34 35 35 32 31 32 34 38 44 51 54 49 48 44 42 37 35 32 28 28 24 33 28 26 27 31 31 30 30 32 33 37 38 39 37 36 38 33 41
21 24 26 28 28 28 31 32 29 23 26 31 36 44 48 48 45 41 41 40 36 30 32 29 28 24 24 26 28 30 34 32 29 31 32 35 40 36 33 36 37 38 40
18 23 26 26 25 22 26 24 25 23 23 26 29 35 40 43 38 40 42 41 33 32 32 31 30 29 31 31 32 33 33 34 34 31 29 35 37 36 37 34 33 33 34
18 20 22 24 23 22 21 19 21 21 21 23 23 31 32 32 35 36 34 39 33 35 32 29 29 31 32 33 33 33 34 35 35 33 34 35 33 38 42 41 37 36 35
19 17 18 24 23 20 17 18 15 15 17 18 23 34 32 41 32 50 36 32 32 32 33 33 34 36 36 35 36 36 36 36 37 39 39 39 39 39 41 44 40 42 41
17 13 16 19 19 20 13 16 12 9 7 10 16 32 23 35 15 16 22 25 27 28 31 31 32 33 35 37 37 38 40 40 40 39 41 41 37 38 42 45 50 49 45
18 14 14 17 15 16 10 9 13 8 4 9 12 4 9 26 17 8 12 19 25 30 31 31 32 32 34 35 37 38 38 39 40 39 37 38 41 41 44 36 46 47 47
14 11 9 10 11 11 15 11 7 10 8 11 11 16 9 8 13 15 18 22 25 28 31 33 33 33 34 35 36 37 39 38 36 37 38 40 33 39 34 39 40 43 49
16 10 10 10 12 12 9 9 9 6 9 11 14 14 12 13 18 20 22 22 22 23 24 30 31 33 29 35 32 34 36 34 34 39 39 39 45 41 39 36 38 35 44
18 15 9 6 5 8 9 10 8 12 8 12 10 12 14 10 16 16 20 17 16 18 21 22 26 30 29 28 35 42 37 40 39 38 39 34 41 45 47 39 33 29 44
14 14 17 15 10 6 6 7 7 7 8 8 12 15 17 17 20 21 20 24 24 25 30 32 32 35 39 29 45 36 33 33 35 34 36 30 38 40 35 37 44 37 30
14 12 12 11 10 10 8 5 4 4 5 8 8 9 10 10 14 16 16 14 14 14 15 19 23 25 24 24 26 26 27 27 29 33 32 31 33 32 32 33 34 34 33
15 14 13 12 11 9 8 8 8 8 8 9 9 8 10 12 13 14 14 18 19 20 22 24 26 27 30 32 32 33 34 35 36 37 39 39 40 39 40 39 37 37 35
16 16 15 15 14 12 10 10 11 12 12 13 14 15 16 17 18 19 19 20 21 23 24 26 28 30 32 34 35 36 37 38 39 40 42 43 44 45 46 46 45 43 43
17 17 17 17 16 15 14 14 15 15 16 17 18 18 19 20 21 21 22 22 23 25 26 28 29 30 31 33 35 37 37 38 40 42 43 44 45 47 48 50 50 50 50
19 19 18 18 17 17 16 16 17 19 19 20 21 21 23 24 24 24 25 26 26 27 27 28 29 30 32 34 35 37 38 40 41 42 43 43 43 44 47 50 51 52 55
20 20 21 20 20 19 19 20 21 21 22 23 24 25 26 26 26 26 27 27 28 28 29 30 32 32 34 36 38 40 40 40 40 41 41 42 41 42 44 44 46 49 52
22 22 22 22 22 22 22 23 23 24 25 25 26 27 27 26 27 27 27 28 29 31 32 34 36 37 39 41 42 42 42 42 42 42 43 43 42 42 43 46 47 46 46
21 22 22 23 23 24 25 26 27 27 27 27 28 28 27 27 27 29 30 30 32 33 34 35 37 38 37 38 38 40 42 42 43 42 43 44 46 47 48 49 50 52 51
20 21 22 23 24 25 27 27 28 28 30 31 32 31 29 27 28 29 30 31 31 32 33 34 35 35 36 36 38 38 40 40 41 41 41 42 42 43 44 46 48 49 51
23 23 23 24 25 26 27 28 28 29 31 32 32 30 29 29 30 31 32 33 34 35 35 35 33 33 34 35 36 36 37 38 41 40 39 40 39 40 40 40 41 43 46
23 23 24 24 24 25 26 28 28 29 31 32 31 30 30 31 31 31 32 33 36 37 35 35 35 33 32 32 34 35 36 37 38 39 39 38 36 34 33 33 35 36 39
22 22 23 23 23 25 26 26 27 29 30 29 28 29 30 31 32 33 33 33 35 35 34 34 34 34 35 35 37 38 38 38 38 39 38 36 34 32 32 31 28 30 33
20 20 22 23 24 24 24 25 28 29 28 28 29 29 30 30 30 31 33 34 33 34 34 33 36 40 41 40 40 40 39 37 35 36 37 36 34 33 32 30 31 30 30
20 21 22 24 25 24 25 26 26 25 25 27 29 30 30 30 30 32 32 33 32 31 32 35 39 41 42 43 43 40 37 35 33 34 34 33 33 33 32 31 30 30 30

GFSMW_700_spd_114.txt.gz
Wind_Speed
30 37 42 35 33 37 38 41 41 40 40 40 40 44 43 45 51 50 47 48 41 40 38 35 35 39 38 34 31 33 18 21 24 27 32 31 32 33 33 30 31 37 35
34 36 27 25 28 30 32 33 34 34 37 37 37 38 41 44 47 49 45 46 40 39 40 38 33 36 37 31 32 46 36 20 21 27 29 32 34 33 32 32 33 32 33
35 25 22 24 26 27 31 31 30 30 29 28 28 29 33 39 39 45 47 43 41 39 51 40 36 32 33 31 29 31 31 28 28 27 30 31 35 33 31 30 31 32 34
28 23 20 21 24 26 26 27 27 28 25 22 23 24 27 31 31 31 35 37 43 46 44 35 43 32 32 31 29 29 25 28 31 32 31 32 35 36 35 32 32 31 33
23 21 23 23 23 22 21 25 24 21 17 17 19 21 25 28 27 28 31 32 40 48 57 43 39 33 33 32 32 31 31 30 31 32 31 33 31 37 38 40 34 33 34
23 21 18 17 20 21 22 19 19 19 14 13 15 17 18 20 25 29 30 23 36 47 39 38 35 31 29 29 30 31 31 33 33 34 35 35 37 39 42 44 41 41 36
26 20 17 15 14 16 16 21 15 15 13 9 6 9 15 23 20 22 28 25 41 14 26 27 28 30 30 31 33 34 36 37 38 38 39 38 39 42 43 44 43 40 36
26 23 15 11 11 15 14 16 19 14 13 15 18 16 19 23 11 12 25 28 9 8 8 18 24 26 27 28 32 34 35 36 37 38 39 41 42 42 41 40 42 47 46
25 25 17 14 12 15 14 12 16 17 15 16 18 16 14 17 13 7 14 17 12 13 18 21 26 28 31 31 33 32 34 36 36 39 37 38 36 38 38 40 42 36 48
22 22 20 14 14 12 8 10 16 11 11 15 14 10 15 12 9 10 14 14 19 18 21 23 25 25 25 30 29 32 31 33 34 36 37 35 38 40 39 46 42 44 39
19 19 19 17 12 12 11 11 9 11 12 12 10 11 11 13 13 14 13 17 16 18 17 20 19 22 23 21 27 25 30 33 34 39 39 39 36 39 38 39 40 43 48
19 18 18 18 19 17 14 13 10 10 11 11 14 12 12 14 13 13 16 19 23 23 24 26 27 29 28 34 33 35 40 34 33 40 38 41 42 41 41 46 43 41 37
19 19 19 18 17 15 14 12 12 13 12 11 11 11 10 11 11 11 12 14 16 16 17 20 19 21 23 25 25 26 28 29 30 33 32 32 31 32 31 35 30 32 36
19 19 20 19 17 16 14 13 13 14 14 15 15 16 16 17 17 17 18 19 20 21 21 23 24 26 28 30 30 31 31 32 36 36 35 37 37 38 41 42 42 43 42
20 19 19 19 20 19 17 17 17 18 17 17 17 18 19 19 19 20 21 22 23 23 24 24 26 28 29 31 31 31 31 34 35 37 37 38 40 42 43 45 45 45 46
21 20 20 20 21 21 20 20 20 21 22 22 22 23 23 22 22 23 23 22 22 23 24 24 24 25 26 27 28 29 30 32 33 34 34 36 38 40 41 42 43 45 47
22 21 21 22 22 22 21 22 22 24 24 25 26 26 26 27 27 27 25 23 22 22 22 23 24 25 27 28 30 31 32 33 33 34 35 35 36 37 41 38 40 41 44
22 22 23 23 23 22 22 23 24 25 26 27 28 29 30 30 31 30 28 26 25 26 26 26 27 28 29 30 32 33 34 33 33 33 33 34 34 34 37 37 38 38 38
21 22 22 22 22 22 23 25 26 27 28 29 29 30 30 31 30 28 27 27 27 28 28 29 29 30 31 33 33 32 32 33 33 34 36 38 39 37 36 39 40 41 39
19 20 21 24 25 24 24 26 27 28 29 30 30 30 30 30 29 27 27 27 28 29 30 30 31 32 34 35 36 37 38 39 39 37 36 37 38 41 41 43 44 44 42
19 21 23 25 25 23 25 27 28 29 29 30 30 31 32 31 28 27 28 28 29 30 30 31 32 33 33 32 33 34 34 35 35 35 35 37 38 39 41 41 42 44 44
30 31 30 25 24 24 25 27 27 28 29 29 30 31 31 29 29 29 30 30 31 31 31 31 30 29 29 30 30 32 34 37 39 39 38 38 38 38 38 39 39 39 40
19 22 23 23 23 24 24 25 26 27 27 28 29 29 27 27 28 29 30 31 32 31 31 31 29 27 26 28 33 35 36 37 39 39 40 39 37 36 35 34 35 36 37
18 19 20 20 20 20 22 24 25 25 26 28 27 25 26 28 29 29 29 29 30 31 32 30 29 28 30 32 33 35 38 38 38 38 38 37 37 35 34 32 31 33 33
18 18 20 20 20 20 22 23 23 24 26 24 25 28 29 28 28 28 29 29 30 32 32 30 30 33 33 33 37 40 42 41 38 37 36 35 34 33 32 32 33 30 29
18 20 20 20 20 21 22 20 22 22 24 27 28 29 28 27 29 29 27 28 30 31 30 30 33 34 36 38 40 40 41 37 33 34 34 32 31 31 31 30 30 28 29

GFSMW_700_spd_117.txt.gz
Wind_Speed
26 30 34 37 37 31 29 31 34 36 38 38 39 39 41 42 42 44 47 44 40 40 44 45 43 41 40 39 40 40 37 36 41 46 40 30 30 31 26 25 28 30 30
25 29 32 33 31 27 28 30 34 36 36 37 37 39 38 36 39 41 43 43 46 41 41 44 45 42 37 37 40 39 37 36 37 36 34 39 29 25 25 27 29 31 31
29 29 30 29 26 25 28 30 29 28 30 32 33 32 30 28 31 35 40 41 44 43 35 38 41 46 43 41 39 39 38 33 31 26 28 33 33 31 30 24 24 28 30
28 29 29 27 24 25 23 27 27 27 26 22 22 22 23 24 27 30 30 33 38 41 40 40 42 42 45 46 43 37 36 33 33 33 35 35 31 34 34 33 34 29 26
27 28 28 22 18 15 19 20 21 21 20 18 17 19 21 23 24 24 24 25 26 32 37 41 46 49 45 40 42 38 34 32 32 30 32 33 32 33 33 31 31 32 32
25 27 27 20 15 16 16 19 19 16 15 18 17 17 15 13 19 23 16 20 21 23 28 41 37 49 64 50 36 33 31 33 33 33 32 33 35 36 35 34 39 39 37
24 24 25 18 14 15 15 18 19 15 18 15 20 18 17 14 18 20 8 11 17 16 24 26 34 33 21 37 35 31 30 30 32 33 34 36 37 37 37 37 40 43 44
22 23 23 22 15 14 17 17 17 16 16 17 17 19 16 8 17 5 4 9 17 21 23 33 41 41 13 16 20 27 30 32 34 34 34 37 39 40 41 43 45 47 45
21 22 23 22 19 16 15 15 16 15 15 13 16 12 13 14 16 7 8 9 11 12 17 11 9 9 12 18 23 28 31 33 35 34 33 35 34 38 37 37 34 38 42
23 22 22 22 20 17 16 14 16 12 13 13 13 14 15 14 14 14 14 12 10 19 12 14 14 13 16 19 22 25 29 32 34 32 34 33 36 40 32 36 43 39 44
24 23 22 22 21 19 16 16 14 15 18 16 16 15 18 16 17 15 12 10 15 15 15 15 15 19 17 20 22 23 23 26 26 28 32 32 40 33 39 41 43 48 42
24 23 22 21 20 19 17 15 14 14 15 16 17 18 18 18 18 16 16 17 18 18 18 20 23 23 25 25 25 30 31 32 32 34 37 35 36 41 44 50 44 53 44
23 23 22 22 21 20 17 16 16 16 17 17 18 19 19 19 19 20 20 21 22 23 22 20 20 21 23 24 24 26 27 28 28 29 33 32 31 36 36 36 39 39 38
29 24 23 22 20 19 19 18 18 19 19 20 21 21 22 22 22 22 22 23 23 23 24 24 24 24 26 26 27 28 29 30 31 33 34 35 37 41 40 40 39 40 40
27 27 23 23 22 19 18 19 20 21 21 21 20 21 21 21 22 23 24 24 24 23 23 23 24 24 25 25 25 24 25 27 28 30 31 33 35 36 38 37 36 39 41
23 21 23 23 23 20 19 19 19 20 21 22 22 23 24 25 26 26 26 25 24 24 24 24 24 24 25 25 25 26 26 28 29 30 31 32 33 36 36 37 37 39 40
22 22 22 22 21 21 20 20 22 22 22 23 23 25 26 26 27 27 27 27 25 23 22 22 23 24 24 24 26 27 29 29 30 30 30 30 31 33 35 34 34 36 37
23 22 21 20 19 19 20 21 22 23 23 24 25 26 27 27 27 28 28 27 25 24 24 24 25 26 28 28 27 27 28 29 30 30 31 31 30 32 33 33 33 34 34
22 22 22 19 18 18 20 22 23 23 24 25 27 27 27 28 28 29 28 26 25 25 26 26 27 28 29 29 30 30 28 27 27 27 29 30 29 30 31 33 32 32 31
24 21 17 16 18 21 24 23 24 24 25 26 27 28 28 29 30 29 27 26 26 26 28 28 29 30 29 29 29 30 30 28 26 25 27 29 31 32 34 37 39 39 36
26 26 26 27 28 28 26 25 24 24 26 26 27 27 28 29 28 27 27 27 28 29 29 28 29 29 29 28 28 28 29 31 32 32 32 33 34 36 36 36 38 38 39
23 22 26 29 29 26 24 24 23 24 24 25 25 26 27 26 25 28 30 31 30 30 30 29 29 30 28 27 26 28 30 30 32 33 35 36 36 36 36 36 37 37 38
22 20 19 19 19 21 21 21 20 22 23 23 23 24 23 25 28 30 30 29 30 30 31 31 29 26 24 25 28 27 28 31 35 37 39 37 35 34 34 34 35 37 37
22 23 21 18 19 19 19 19 19 21 21 21 22 22 25 28 30 30 29 31 32 31 32 32 30 26 23 25 27 28 31 33 35 37 37 34 31 29 31 32 32 32 34
23 22 21 19 19 19 19 18 20 19 18 18 21 25 27 27 27 28 31 31 31 32 31 31 29 26 25 27 30 33 35 37 37 40 36 32 29 28 28 29 30 30 31
21 19 19 18 18 18 18 19 18 16 16 19 23 25 24 25 26 27 27 30 30 30 31 30 28 27 29 31 34 36 36 34 36 36 32 30 29 30 30 30 30 30 29